[[[{"header":{"parameterUnit":"kt","parameterCategory":2,"dx":1,"dy":1,"la1":29.285339999999998,"la2":30.599998999999997,"lo1":-89.70041500000002,"lo2":-87.6738589999976,"nx":112,"ny":82,"refTime":"2022-10-16T12:00:00:Z","depth":0,"parameterNumber":1,"parameterNumberName":"U-component_of_WINDS"},"data":[10.7633,10.7481,10.6835,10.4026,10.4633,10.5127,10.2355,9.8749,9.5749,9.4648,8.865,8.3828,8.4549,0.0,0.0,0.0,0.0,0.0,0.0,7.4185,0.0,0.0,0.0,0.0,0.0,0.0,0.0,0.0,0.0,0.0,0.0,11.527,11.4971,11.4859,11.5943,11.6803,11.7289,11.7887,11.8186,11.8186,11.8186,11.8186,11.8186,11.8186,11.8186,11.8186,11.8186,11.8186,11.8186,11.8186,11.8186,11.8186,11.8186,11.8186,11.8186,11.8186,11.8186,11.8186,11.8186,11.8186,11.8186,11.8186,11.8186,11.8186,11.8186,11.8186,11.841,11.957,11.9083,11.8448,11.9607,11.9046,11.8186,11.8186,11.9009,11.9813,11.9863,12.0828,12.1791,12.1807,12.1909,12.2083,12.2083,12.2083,12.2083,12.2083,12.2083,12.2083,12.2083,12.2083,12.2083,12.2083,12.2083,12.2083,12.2083,12.2083,12.2083,12.2083,12.2083,12.2083,12.2083,12.2083,12.2083,12.2083,12.2083,12.2083,12.2083,12.2083,12.2083,12.2083,12.2083,12.2083,10.5241,10.414,10.2621,9.9812,9.9508,9.9318,9.7078,9.2712,8.8953,8.8422,8.3486,7.9044,7.8513,0.0,0.0,0.0,0.0,0.0,0.0,0.0,0.0,0.0,0.0,0.0,0.0,0.0,0.0,0.0,11.7356,0.0,11.5008,11.441,11.4372,11.4859,11.5943,11.7064,11.8149,11.8186,11.8186,11.8186,11.8186,11.8186,11.8186,11.8186,11.8186,11.8186,11.8186,11.8186,11.8186,11.8186,11.8186,11.8186,11.8186,11.8186,11.8186,11.8186,11.8186,11.8186,11.8186,11.8186,11.8186,11.8186,11.8186,11.8186,11.8186,11.8186,11.8186,11.8186,11.8186,11.8186,11.8186,11.8186,11.8298,11.8897,11.9869,12.0859,12.1337,12.2046,12.267,12.2645,12.2305,12.2083,12.2083,12.2083,12.2083,12.2083,12.2083,12.2083,12.2083,12.2083,12.2083,12.2083,12.2083,12.2083,12.2083,12.2083,12.2083,12.2083,12.2083,12.2083,12.2083,12.2083,12.2083,12.2083,12.2083,12.2083,12.2083,12.2083,12.2083,12.2083,12.2083,12.2083,10.0685,9.7382,9.4496,9.2864,9.1117,8.9827,8.9827,8.5954,8.2803,8.4398,8.0943,7.8133,7.9766,0.0,0.0,0.0,0.0,0.0,0.0,0.0,0.0,0.0,0.0,0.0,0.0,11.1925,11.6399,0.0,11.8963,11.8373,11.3587,11.4784,11.4933,11.3438,11.6504,11.8186,11.8186,11.8186,11.8186,11.8186,11.8186,11.8186,11.8186,11.8186,11.8186,11.8186,11.8186,11.8186,11.8186,11.8186,11.8186,11.8186,11.8186,11.8186,11.8186,11.8186,11.8186,11.8186,11.8186,11.8186,11.8186,11.8186,11.8186,11.8186,11.8186,11.8186,11.8186,11.8186,11.8186,11.8186,11.8186,11.8224,11.8672,12.0317,12.0766,12.1701,12.4879,12.411,12.3255,12.4831,12.3567,12.2083,12.2083,12.2083,12.2083,12.2083,12.2083,12.2083,12.2083,12.2083,12.2083,12.2083,12.2083,12.2083,12.2083,12.2083,12.2083,12.2083,12.2083,12.2083,12.2083,12.2083,12.2083,12.2083,12.2083,12.2083,12.2083,12.2083,12.2083,12.2083,12.2083,12.2083,9.6964,9.3927,9.1269,9.0814,8.8498,8.6334,8.6334,8.3448,8.0525,7.9728,7.95,0.0,0.0,0.0,0.0,0.0,0.0,8.3904,0.0,8.7739,0.0,0.0,0.0,0.0,0.0,11.2102,11.406,11.2503,11.426,11.4784,11.34,11.3737,11.4298,11.5008,11.7064,11.8186,11.8186,11.8186,11.8186,11.8186,11.8186,11.8186,11.8186,11.8186,11.8186,11.8186,11.8186,11.8186,11.8186,11.8186,11.8186,11.8186,11.8186,11.8186,11.8186,11.8186,11.8186,11.8186,11.8186,11.8186,11.8186,11.8186,11.8186,11.8186,11.8186,11.8186,11.8186,11.8186,11.8186,11.8186,11.8186,11.9083,12.013,12.0579,12.2523,12.4467,12.5365,12.5486,12.5443,12.5196,12.4115,12.2971,12.218,12.2083,12.2083,12.2083,12.2083,12.2083,12.2083,12.2083,12.2083,12.2083,12.2083,12.2083,12.2083,12.2083,12.2083,12.2083,12.2083,12.2083,12.2083,12.2083,12.2083,12.2083,12.2083,12.2083,12.2083,12.2083,12.2083,12.2083,12.2083,12.2083,9.0814,8.7321,8.4777,8.4777,8.3297,8.2044,8.2765,8.0905,7.8931,7.8665,0.0,0.0,0.0,0.0,0.0,0.0,8.6789,8.8764,0.0,0.0,9.8787,0.0,0.0,0.0,10.9594,11.3563,11.5348,11.3374,11.4559,11.5045,11.4335,11.4298,11.4746,11.5644,11.7289,11.8186,11.8186,11.8186,11.8186,11.8186,11.8186,11.8186,11.8186,11.8186,11.8186,11.8186,11.8186,11.8186,11.8186,11.8186,11.8186,11.8186,11.8186,11.8186,11.8186,11.8186,11.8186,11.8186,11.8186,11.8186,11.8186,11.8186,11.8186,11.8186,11.8186,11.8186,11.8186,11.8186,11.8672,11.9233,11.9233,12.0467,12.1888,12.2561,12.4206,12.5776,12.6486,12.6603,12.6256,12.5378,12.4321,12.3255,12.224,12.2083,12.2083,12.2083,12.2083,12.2083,12.2083,12.2083,12.2083,12.2083,12.2083,12.2083,12.2083,12.2083,12.2083,12.2083,12.2083,12.2083,12.2083,12.2083,12.2083,12.2083,12.2083,12.2083,12.2083,12.2083,12.2083,12.2083,12.2083,12.2083,8.3259,7.9196,7.6766,7.7184,7.726,7.7867,8.0107,0.0,7.9158,8.0867,0.0,8.2499,8.3866,0.0,0.0,8.8915,9.0776,9.237,9.3509,9.9394,10.4064,10.5393,10.8506,11.0442,11.0058,11.4928,11.7565,11.6106,11.7034,11.7064,11.5793,11.5681,11.5756,11.5943,11.7401,11.8186,11.8186,11.8186,11.8186,11.8186,11.8186,11.8186,11.8186,11.8186,11.8186,11.8186,11.8186,11.8186,11.8186,11.8186,11.8186,11.8186,11.8186,11.8186,11.8186,11.8186,11.8186,11.8186,11.8186,11.8186,11.8186,11.8186,11.8186,11.8186,11.8186,11.8186,11.8224,11.841,11.9532,12.0729,12.0916,12.2149,12.372,12.5215,12.5739,12.6262,12.7758,12.7403,12.6419,12.5342,12.44,12.3481,12.2395,12.218,12.2083,12.2083,12.2083,12.2083,12.2083,12.2083,12.2083,12.2083,12.2083,12.2083,12.2083,12.2083,12.2083,12.2083,12.2083,12.2083,12.2083,12.2083,12.2083,12.2083,12.2083,12.2083,12.2083,12.2083,12.2083,12.2083,12.2083,12.2083,7.7184,7.3995,7.2097,7.483,7.5514,7.7032,0.0,0.0,0.0,8.7739,9.1345,9.4307,9.461,9.7078,9.9166,9.9508,10.2128,0.0,0.0,10.6342,0.0,10.9151,11.2037,11.3044,11.0281,11.1831,11.2784,11.2297,11.3519,11.4784,11.6062,11.5831,11.6279,11.7663,11.7999,11.8186,11.8186,11.8186,11.8186,11.8186,11.8186,11.8186,11.8186,11.8186,11.8186,11.8186,11.8186,11.8186,11.8186,11.8186,11.8186,11.8186,11.8186,11.8186,11.8186,11.8186,11.8186,11.8186,11.8186,11.8186,11.8186,11.8186,11.8186,11.8186,11.8186,11.8186,11.8485,11.9831,12.0429,12.099,12.2262,12.3832,12.5178,12.5514,12.6636,12.772,12.8019,12.792,12.7255,12.552,12.5014,12.4557,12.3481,12.264,12.2083,12.2083,12.2083,12.2083,12.2083,12.2083,12.2083,12.2083,12.2083,12.2083,12.2083,12.2083,12.2083,12.2083,12.2083,12.2083,12.2083,12.2083,12.2083,12.2083,12.2083,12.2083,12.2083,12.2083,12.2083,12.2083,12.2083,12.2083,7.3426,7.1261,7.0806,7.4185,7.6311,0.0,0.0,8.7587,9.0016,9.0016,9.4041,9.7572,9.7572,9.9546,10.171,10.3418,10.5127,10.6228,10.6228,10.9151,11.1277,11.1277,11.2796,11.3472,11.2633,11.2829,11.2973,11.2859,11.4048,11.5576,11.7334,11.7064,11.7289,11.8149,11.8186,11.8186,11.8186,11.8186,11.8186,11.8186,11.8186,11.8186,11.8186,11.8186,11.8186,11.8186,11.8186,11.8186,11.8186,11.8186,11.8186,11.8186,11.8186,11.8186,11.8186,11.8186,11.8186,11.8186,11.8186,11.8186,11.8186,11.8186,11.8186,11.8186,11.8186,11.8186,11.8523,12.0205,12.1888,12.3346,12.4131,12.5589,12.6823,12.6823,12.7459,12.8094,12.8094,12.8094,12.7638,12.6127,12.5483,12.4675,12.3114,12.2395,12.2083,12.2083,12.2083,12.2083,12.2083,12.2083,12.2083,12.2083,12.2083,12.2083,12.2083,12.2083,12.2083,12.2083,12.2083,12.2083,12.2083,12.2083,12.2083,12.2083,12.2083,12.2083,12.2083,12.2083,12.2083,12.2083,12.2083,12.2083,7.0502,6.9743,7.0806,7.4185,7.783,0.0,8.5954,9.0092,9.2978,9.294,9.6433,9.9508,9.9508,10.0799,10.2773,10.5506,10.5962,10.6797,10.9189,11.01,11.1011,11.2378,11.2834,11.3593,11.4922,11.4721,11.4619,11.4951,11.5806,11.6997,11.8485,11.8298,11.8186,11.8186,11.8186,11.8186,11.8186,11.8186,11.8186,11.8186,11.8186,11.8186,11.8186,11.8186,11.8186,11.8186,11.8186,11.8186,11.8186,11.8186,11.8186,11.8186,11.8186,11.8186,11.8186,11.8186,11.8186,11.8186,11.8186,11.8186,11.8186,11.8186,11.8186,11.8186,11.8186,11.841,11.8971,12.0317,12.3047,12.5664,12.5963,12.7085,12.8094,12.8094,12.8094,12.8094,12.8094,12.8094,12.778,12.676,12.5759,12.4635,12.2697,12.218,12.2083,12.2083,12.2083,12.2083,12.2083,12.2083,12.2083,12.2083,12.2083,12.2083,12.2083,12.2083,12.2083,12.2083,12.2083,12.2083,12.2083,12.2083,12.2083,12.2083,12.2083,12.2083,12.2083,12.2083,12.2083,12.2083,12.2083,12.2083,6.7465,6.8832,7.0806,7.4185,7.8627,0.0,9.2143,9.4383,9.6395,10.2128,10.4937,10.638,10.638,10.7784,10.9037,10.9417,10.9455,10.9075,10.7936,11.0366,11.234,11.253,11.3859,11.4846,11.5074,11.4721,11.5101,11.6616,11.6623,11.7191,11.8485,11.8298,11.8186,11.8186,11.8186,11.8186,11.8186,11.8186,11.8186,11.8186,11.8186,11.8186,11.8186,11.8186,11.8186,11.8186,11.8186,11.8186,11.8186,11.8186,11.8186,11.8186,11.8186,11.8186,11.8186,11.8186,11.8186,11.8186,11.8186,11.8186,11.8186,11.8186,11.8186,11.8186,11.8186,11.9233,12.0467,12.0654,12.3047,12.5926,12.7421,12.7945,12.8094,12.8094,12.8094,12.8094,12.8094,12.8094,12.778,12.676,12.5759,12.4864,12.3652,12.2733,12.2083,12.2083,12.2083,12.2083,12.2083,12.2083,12.2083,12.2083,12.2083,12.2083,12.2083,12.2083,12.2083,12.2083,12.2083,12.2083,12.2083,12.2083,12.2083,12.2083,12.2083,12.2083,12.2083,12.2083,12.2083,12.2083,12.2083,12.2083,6.8718,7.016,7.2514,7.688,0.0,0.0,9.3585,9.8065,10.1634,10.4405,10.6304,10.7481,10.7481,10.7253,10.7063,10.7063,10.7063,10.7177,10.7443,10.9569,11.1809,11.3783,11.5453,11.682,11.7807,11.7642,11.779,11.8655,11.8462,11.8493,11.8905,11.8448,11.8186,11.8186,11.8186,11.8186,11.8186,11.8186,11.8186,11.8186,11.8186,11.8186,11.8186,11.8186,11.8186,11.8186,11.8186,11.8186,11.8186,11.8186,11.8186,11.8186,11.8186,11.8186,11.8186,11.8186,11.8186,11.8186,11.8186,11.8186,11.8186,11.8186,11.8186,11.8336,11.9345,12.013,12.1102,12.3009,12.4505,12.5963,12.7646,12.8094,12.8094,12.8094,12.8094,12.8094,12.8094,12.8094,12.778,12.676,12.5759,12.4864,12.3785,12.2824,12.224,12.288,12.2489,12.2336,12.288,12.2489,12.2083,12.2083,12.2083,12.2083,12.2083,12.2083,12.2083,12.2083,12.2083,12.2083,12.2083,12.2083,12.2083,12.2083,12.2083,12.2083,12.2083,12.2083,12.2083,12.2083,12.2083,12.2083,7.0426,0.0,0.0,0.0,0.0,0.0,9.5825,10.0457,10.4102,10.5962,10.6987,10.7481,10.7481,10.6494,10.5203,10.3798,10.395,10.4861,10.657,10.9075,11.1619,11.4087,11.6592,11.8415,11.9174,11.947,11.9756,11.9931,11.9702,11.9412,11.9178,11.8588,11.8261,11.8186,11.8186,11.8186,11.8186,11.8186,11.8186,11.8186,11.8186,11.8186,11.8186,11.8186,11.8186,11.8186,11.8186,11.8186,11.8186,11.8186,11.8186,11.8186,11.8186,11.8186,11.8186,11.8186,11.8186,11.8186,11.8186,11.8186,11.8186,11.8186,11.8485,11.9121,12.0317,12.1327,12.2523,12.4916,12.5888,12.6561,12.7795,12.8094,12.8094,12.8094,12.8094,12.8094,12.8094,12.8094,12.778,12.676,12.5759,12.4939,12.4196,12.3167,12.288,12.3868,12.3167,12.2789,12.3481,12.2733,12.2083,12.2083,12.2083,12.2083,12.2083,12.2083,12.2083,12.2083,12.2083,12.2083,12.2083,12.2083,12.2083,12.2083,12.2083,12.2083,12.2083,12.2083,12.2083,12.2083,12.2083,12.2083,0.0,0.0,0.0,8.3562,8.8612,9.4117,10.0723,10.1102,10.1938,10.8506,10.862,10.7481,10.7481,10.7443,10.581,10.0875,10.1444,10.3115,10.4823,10.9341,11.2492,11.2606,11.6896,11.925,11.7655,11.8946,11.9932,11.9933,11.9702,11.9442,11.9179,11.8767,11.841,11.8186,11.8186,11.8186,11.8186,11.8186,11.8186,11.8186,11.8186,11.8186,11.8186,11.8186,11.8186,11.8186,11.8186,11.8186,11.8186,11.8186,11.8186,11.8186,11.8186,11.8186,11.8186,11.8186,11.8186,11.8186,11.8186,11.8186,11.8186,11.8186,11.927,12.0654,12.0691,12.2935,12.5477,12.5552,12.6748,12.8019,12.8057,12.8094,12.8094,12.8094,12.8094,12.8094,12.8094,12.8094,12.778,12.676,12.5759,12.5161,12.5161,12.4241,12.3951,12.5014,12.4241,12.3567,12.3652,12.2733,12.2083,12.2083,12.2083,12.2083,12.2083,12.2083,12.2083,12.2083,12.2083,12.2083,12.2083,12.2083,12.2083,12.2083,12.2083,12.2083,12.2083,12.2083,12.2083,12.2083,12.2083,12.2083,7.3577,7.7412,8.1702,8.565,9.1269,9.6736,10.0001,10.209,10.3912,10.619,10.5317,10.414,10.414,10.414,10.3229,10.0381,10.0381,10.1368,10.3039,10.6683,11.0024,11.2264,11.5036,11.7314,11.8908,11.8567,11.8719,11.9857,11.9851,11.9621,11.9174,11.903,11.8755,11.8186,11.8186,11.8186,11.8186,11.8186,11.8186,11.8186,11.8186,11.8186,11.8186,11.8186,11.8186,11.8186,11.8186,11.8186,11.8186,11.8186,11.8186,11.8186,11.8186,11.8186,11.8186,11.8186,11.8186,11.8186,11.8186,11.8186,11.8186,11.8186,11.9308,12.0878,12.1962,12.3794,12.5813,12.6935,12.7646,12.8094,12.8094,12.8094,12.8094,12.8094,12.8094,12.8094,12.8094,12.8094,12.8007,12.7638,12.6797,12.6127,12.6127,12.527,12.4977,12.5893,12.4675,12.3868,12.4557,12.3167,12.2083,12.2083,12.2083,12.2083,12.2083,12.2083,12.2083,12.2083,12.2083,12.2083,12.2083,12.2083,12.2083,12.2083,12.2083,12.2083,12.2083,12.2083,12.2083,12.2083,12.2083,12.2083,7.6235,8.0449,8.5347,8.9941,9.48,9.9014,10.1216,10.3418,10.4975,10.4975,10.4102,10.3153,10.2545,10.1938,10.1178,10.0077,9.9926,10.0495,10.2203,10.5355,10.8316,11.048,11.3783,11.6289,11.72,11.7921,11.8529,11.8984,11.9592,11.9703,11.9159,11.9181,11.8867,11.8186,11.8186,11.8186,11.8186,11.8186,11.8186,11.8186,11.8186,11.8186,11.8186,11.8186,11.8186,11.8186,11.8186,11.8186,11.8186,11.8186,11.8186,11.8186,11.8186,11.8186,11.8186,11.8186,11.8186,11.8186,11.8186,11.8186,11.8186,11.8186,11.9682,12.1738,12.2748,12.4654,12.6711,12.7795,12.8094,12.8094,12.8094,12.8094,12.8094,12.8094,12.8094,12.8094,12.8094,12.8094,12.8094,12.8094,12.7255,12.6663,12.7067,12.6293,12.5996,12.6915,12.5691,12.4827,12.5161,12.37,12.2489,12.2083,12.2083,12.2083,12.2083,12.2083,12.2083,12.2083,12.2083,12.2083,12.2083,12.2083,12.2083,12.2083,12.2083,12.2083,12.2083,12.2083,12.2083,12.2083,12.2083,12.2083,7.9234,8.3942,8.9447,9.5939,9.8825,10.0875,10.4102,10.4823,10.4823,10.4709,10.4709,10.4216,10.2583,10.0989,9.9926,9.9926,9.9926,10.0495,10.209,10.5127,10.7291,10.7481,11.3138,11.5871,11.2948,11.701,11.9136,11.7542,11.8984,11.9703,11.9159,11.9181,11.8867,11.8186,11.8186,11.8186,11.8186,11.8186,11.8186,11.8186,11.8186,11.8186,11.8186,11.8186,11.8186,11.8186,11.8186,11.8186,11.8186,11.8186,11.8186,11.8186,11.8186,11.8186,11.8186,11.8186,11.8186,11.8186,11.8186,11.8186,11.8186,11.8186,12.0392,12.3047,12.3047,12.544,12.8094,12.8094,12.8094,12.8094,12.8094,12.8094,12.8094,12.8094,12.8094,12.8094,12.8094,12.8094,12.8094,12.8094,12.731,12.6915,12.792,12.731,12.6973,12.792,12.7218,12.6192,12.5307,12.4241,12.3255,12.218,12.2083,12.2083,12.2083,12.2083,12.2083,12.2083,12.2083,12.2083,12.2083,12.2083,12.2083,12.2083,12.2083,12.2083,12.2083,12.2083,12.2083,12.2083,12.2083,12.2083,8.0259,8.7359,9.3851,9.685,9.9698,10.2014,10.2887,10.3077,10.2735,10.1444,10.1178,10.1064,10.0647,10.0191,9.9926,9.9926,9.9926,10.0077,10.0495,10.2393,10.4671,10.7215,11.01,11.2568,11.4277,11.663,11.7883,11.7466,11.8984,11.9703,11.9159,11.9181,11.8867,11.8186,11.8186,11.8186,11.8186,11.8186,11.8186,11.8186,11.8186,11.8186,11.8186,11.8186,11.8186,11.8186,11.8186,11.8186,11.8186,11.8186,11.8186,11.8186,11.8186,11.8186,11.8186,11.8186,11.8186,11.8186,11.8186,11.8186,11.8186,11.8186,12.0392,12.3047,12.3047,12.544,12.8094,12.8094,12.8094,12.8094,12.8094,12.8094,12.8094,12.8094,12.8094,12.8094,12.8094,12.8094,12.8094,12.8094,12.7869,12.778,12.8094,12.7869,12.778,12.8094,12.7218,12.6192,12.5307,12.4241,12.3255,12.218,12.2083,12.2083,12.2083,12.2083,12.2083,12.2083,12.2083,12.2083,12.2083,12.2083,12.2083,12.2083,12.2083,12.2083,12.2083,12.2083,12.2083,12.2083,12.2083,12.2083,8.0829,8.9637,9.761,9.928,10.1634,10.3342,10.2621,10.2431,10.1938,10.0267,9.9926,9.9926,9.9926,9.9926,9.9926,9.9926,9.9926,9.9926,9.9926,10.1368,10.3153,10.5051,10.8088,11.048,11.1619,11.4542,11.6365,11.6365,11.7883,11.8906,11.9121,11.9181,11.8867,11.8186,11.8186,11.8186,11.8186,11.8186,11.8186,11.8186,11.8186,11.8186,11.8186,11.8186,11.8186,11.8186,11.8186,11.8186,11.8186,11.8186,11.8186,11.8186,11.8186,11.8186,11.8186,11.8186,11.8186,11.8186,11.8186,11.8186,11.8186,11.8186,12.0392,12.3047,12.3047,12.544,12.8094,12.8094,12.8094,12.8094,12.8094,12.8094,12.8094,12.8094,12.8094,12.8094,12.8094,12.8094,12.8094,12.8094,12.8094,12.8094,12.8094,12.8094,12.8094,12.8094,12.7601,12.6857,12.593,12.4903,12.3951,12.288,12.2336,12.2083,12.2083,12.2083,12.2083,12.2083,12.2083,12.2083,12.2083,12.2083,12.2083,12.2083,12.2083,12.2083,12.2083,12.2083,12.2083,12.2083,12.2083,12.2083,8.1968,9.0852,9.9166,10.152,10.338,10.4254,10.2773,10.2279,10.1672,10.0229,9.9926,9.9926,9.9926,9.9926,9.9926,9.9926,9.9926,9.9926,9.9926,10.1178,10.2203,10.2431,10.6721,10.9113,10.7633,11.2112,11.5074,11.5074,11.6479,11.7881,11.9083,11.9105,11.883,11.8186,11.8186,11.8186,11.8186,11.8186,11.8186,11.8186,11.8186,11.8186,11.8186,11.8186,11.8186,11.8186,11.8186,11.8186,11.8186,11.8186,11.8186,11.8186,11.8186,11.8186,11.8186,11.8186,11.8186,11.8186,11.8186,11.8186,11.8186,11.8186,12.0392,12.3047,12.3047,12.544,12.8094,12.8094,12.8094,12.8094,12.8094,12.8094,12.8094,12.8094,12.8094,12.8094,12.8094,12.8094,12.8094,12.8094,12.8094,12.8094,12.8094,12.8094,12.8094,12.8094,12.8094,12.7728,12.6701,12.5759,12.4752,12.3737,12.2733,12.2083,12.2083,12.2083,12.2083,12.2083,12.2083,12.2083,12.2083,12.2083,12.2083,12.2083,12.2083,12.2083,12.2083,12.2083,12.2083,12.2083,12.2083,12.2083,8.6562,9.0168,9.3092,9.89,10.1634,10.2773,10.2507,10.1368,10.0267,9.9963,9.9926,9.9926,9.9926,9.9926,9.9926,9.9926,9.9926,9.9926,9.9926,10.0153,10.0875,10.2279,10.5696,10.7822,10.7519,11.2112,11.5074,11.5074,11.6327,11.7691,11.9083,11.8842,11.8485,11.8186,11.8186,11.8186,11.8186,11.8186,11.8186,11.8186,11.8186,11.8186,11.8186,11.8186,11.8186,11.8186,11.8186,11.8186,11.8186,11.8186,11.8186,11.8186,11.8186,11.8186,11.8186,11.8186,11.8186,11.8186,11.8186,11.8186,11.8186,11.8186,12.0392,12.3047,12.3047,12.544,12.8094,12.8094,12.8094,12.8094,12.8094,12.8094,12.8094,12.8094,12.8094,12.8094,12.8094,12.8094,12.8094,12.8094,12.8094,12.8094,12.8094,12.8094,12.8094,12.8094,12.8094,12.7728,12.6701,12.5759,12.4752,12.3737,12.2733,12.2083,12.2083,12.2083,12.2083,12.2083,12.2083,12.2083,12.2083,12.2083,12.2083,12.2083,12.2083,12.2083,12.2083,12.2083,12.2083,12.2083,12.2083,12.2083,8.5802,8.9941,9.3813,9.8673,10.1178,10.2431,10.2431,10.114,10.0153,10.1027,10.0533,9.9926,9.9926,9.9926,9.9926,9.9926,9.9926,9.9926,9.9926,9.9926,10.0191,10.1027,10.4102,10.6114,10.5962,10.991,11.2725,11.3506,11.4898,11.6313,11.7774,11.8303,11.8448,11.8186,11.8186,11.8186,11.8186,11.8186,11.8186,11.8186,11.8186,11.8186,11.8186,11.8186,11.8186,11.8186,11.8186,11.8186,11.8186,11.8186,11.8186,11.8186,11.8186,11.8186,11.8186,11.8186,11.8186,11.8186,11.8186,11.8186,11.8186,11.8186,12.0392,12.3047,12.3047,12.544,12.8094,12.8094,12.8094,12.8094,12.8094,12.8094,12.8094,12.8094,12.8094,12.8094,12.8094,12.8094,12.8094,12.8094,12.8094,12.8094,12.8094,12.8094,12.8094,12.8094,12.8094,12.792,12.7403,12.6099,12.5014,12.4479,12.3025,12.2083,12.2083,12.2083,12.2083,12.2083,12.2083,12.2083,12.2083,12.2083,12.2083,12.2083,12.2083,12.2083,12.2083,12.2083,12.2083,12.2083,12.2083,12.2083,8.4853,9.0168,9.5446,9.947,10.1178,10.209,10.2811,10.1938,10.1178,10.1786,10.1406,10.0761,10.0039,10.0191,10.0343,9.9963,9.9926,9.9926,9.9926,9.9926,9.9926,9.9926,10.2583,10.4443,10.4557,10.7564,11.0214,11.2041,11.3224,11.4659,11.6555,11.7476,11.7999,11.8186,11.8186,11.8186,11.8186,11.8186,11.8186,11.8186,11.8186,11.8186,11.8186,11.8186,11.8186,11.8186,11.8186,11.8186,11.8186,11.8186,11.8186,11.8186,11.8186,11.8186,11.8186,11.8186,11.8186,11.8186,11.8186,11.8186,11.8186,11.8186,12.0392,12.3047,12.3047,12.544,12.8094,12.8094,12.8094,12.8094,12.8094,12.8094,12.8094,12.8094,12.8094,12.8094,12.8094,12.8094,12.8094,12.8094,12.8094,12.8094,12.8094,12.8094,12.8094,12.8094,12.8094,12.8094,12.8094,12.6393,12.5161,12.5161,12.3307,12.2083,12.2083,12.2083,12.2083,12.2083,12.2083,12.2083,12.2083,12.2083,12.2083,12.2083,12.2083,12.2083,12.2083,12.2083,12.2083,12.2083,12.2083,12.2083,8.7397,9.1117,9.4269,10.0647,10.1178,10.0951,10.4026,10.4633,10.3684,10.0761,10.2469,10.357,10.0495,10.1178,10.171,10.0153,9.9926,9.9926,9.9926,9.9926,9.9926,9.9926,10.1558,10.3191,10.4443,10.6472,10.8968,11.1919,11.1939,11.324,11.6473,11.6205,11.6616,11.8149,11.8186,11.8186,11.8186,11.8186,11.8186,11.8186,11.8186,11.8186,11.8186,11.8186,11.8186,11.8186,11.8186,11.8186,11.8186,11.8186,11.8186,11.8186,11.8186,11.8186,11.8186,11.8186,11.8186,11.8186,11.8186,11.8186,11.8186,11.8186,12.0392,12.3047,12.3047,12.544,12.8094,12.8094,12.8094,12.8094,12.8094,12.8094,12.8094,12.8094,12.8094,12.8094,12.8094,12.8094,12.8094,12.8094,12.8094,12.8094,12.8094,12.8094,12.8094,12.8094,12.8094,12.8094,12.8094,12.6393,12.5161,12.5161,12.3307,12.2083,12.2083,12.2083,12.2083,12.2083,12.2083,12.2083,12.2083,12.2083,12.2083,12.2083,12.2083,12.2083,12.2083,12.2083,12.2083,12.2083,12.2083,12.2083,8.3107,8.8194,9.3395,9.7078,9.8255,9.9356,10.2697,10.5013,10.6114,10.4747,10.395,10.3342,10.3039,10.1824,10.1027,10.1368,10.0571,9.9926,9.9926,9.9926,9.9926,9.9926,10.1406,10.2951,10.4224,10.6253,10.8203,10.9928,11.1013,11.2542,11.4759,11.5345,11.6429,11.8111,11.8186,11.8186,11.8186,11.8186,11.8186,11.8186,11.8186,11.8186,11.8186,11.8186,11.8186,11.8186,11.8186,11.8186,11.8186,11.8186,11.8186,11.8186,11.8186,11.8186,11.8186,11.8186,11.8186,11.8186,11.8186,11.8186,11.8186,11.8186,12.0392,12.3047,12.3047,12.544,12.8094,12.8094,12.8094,12.8094,12.8094,12.8094,12.8094,12.8094,12.8094,12.8094,12.8094,12.8094,12.8094,12.8094,12.8094,12.8094,12.8094,12.8094,12.8094,12.8094,12.8094,12.8094,12.8094,12.6393,12.5161,12.5161,12.3307,12.2083,12.2083,12.2083,12.2083,12.2083,12.2083,12.2083,12.2083,12.2083,12.2083,12.2083,12.2083,12.2083,12.2083,12.2083,12.2083,12.2083,12.2083,12.2083,7.969,8.5081,9.0928,9.3623,9.5939,9.8179,10.0495,10.2469,10.4368,10.6342,10.5241,10.414,10.4823,10.3039,10.1634,10.2317,10.1027,9.9926,9.9926,9.9926,9.9926,9.9926,10.133,10.2819,10.4066,10.603,10.769,10.8778,11.0018,11.161,11.3711,11.4522,11.5943,11.8111,11.8186,11.8186,11.8186,11.8186,11.8186,11.8186,11.8186,11.8186,11.8186,11.8186,11.8186,11.8186,11.8186,11.8186,11.8186,11.8186,11.8186,11.8186,11.8186,11.8186,11.8186,11.8186,11.8186,11.8186,11.8186,11.8186,11.8261,11.8747,12.0803,12.3159,12.3645,12.5813,12.8094,12.8094,12.8094,12.8094,12.8094,12.8094,12.8094,12.8094,12.8094,12.8094,12.8094,12.8094,12.8094,12.8094,12.8094,12.8094,12.8094,12.8094,12.8094,12.8094,12.8094,12.8094,12.8094,12.6894,12.5833,12.5234,12.3307,12.2083,12.2083,12.2083,12.2083,12.2083,12.2083,12.2083,12.2083,12.2083,12.2083,12.2083,12.2083,12.2083,12.2083,12.2083,12.2083,12.2083,12.2083,12.2083,7.8741,8.2499,8.622,9.1269,9.5104,9.7572,9.761,9.6357,9.704,10.3608,10.6304,10.6949,10.5279,10.4937,10.4368,10.2697,10.1027,9.9926,9.9926,9.9926,9.9926,9.9926,10.1178,10.2629,10.4066,10.573,10.7393,10.9109,10.8916,11.0302,11.3886,11.3625,11.4859,11.8074,11.8186,11.8186,11.8186,11.8186,11.8186,11.8186,11.8186,11.8186,11.8186,11.8186,11.8186,11.8186,11.8186,11.8186,11.8186,11.8186,11.8186,11.8186,11.8186,11.8186,11.8186,11.8186,11.8186,11.8186,11.8186,11.8186,11.8448,12.013,12.1775,12.3383,12.5066,12.6748,12.8094,12.8094,12.8094,12.8094,12.8094,12.8094,12.8094,12.8094,12.8094,12.8094,12.8094,12.8094,12.8094,12.8094,12.8094,12.8094,12.8094,12.8094,12.8094,12.8094,12.8094,12.8094,12.8094,12.8094,12.7348,12.5378,12.3307,12.2083,12.2083,12.2083,12.2083,12.2083,12.2083,12.2083,12.2083,12.2083,12.2083,12.2083,12.2083,12.2083,12.2083,12.2083,12.2083,12.2083,12.2083,12.2083,7.5855,7.9842,8.4701,9.0966,9.1611,9.1573,9.5066,9.8065,10.0723,10.2811,10.4595,10.5962,10.657,10.5734,10.4785,10.4254,10.2735,10.1216,10.0077,9.9926,9.9926,9.9926,10.1178,10.2609,10.4039,10.5706,10.724,10.8478,10.8615,10.9602,11.1723,11.2765,11.4298,11.6391,11.7588,11.8186,11.8186,11.8186,11.8186,11.8186,11.8186,11.8186,11.8186,11.8186,11.8186,11.8186,11.8186,11.8186,11.8186,11.8186,11.8186,11.8186,11.8186,11.8186,11.8186,11.8186,11.8186,11.8186,11.8186,11.8186,11.8448,12.0168,12.1775,12.3383,12.5066,12.6748,12.8094,12.8094,12.8094,12.8094,12.8094,12.8094,12.8094,12.8094,12.8094,12.8094,12.8094,12.8094,12.8094,12.8094,12.8094,12.8094,12.8094,12.8094,12.8094,12.8094,12.8094,12.8094,12.8094,12.8094,12.7348,12.5378,12.3307,12.2083,12.2083,12.2083,12.2083,12.2083,12.2083,12.2083,12.2083,12.2083,12.2083,12.2083,12.2083,12.2083,12.2083,12.2083,12.2083,12.2083,12.2083,12.2083,7.4375,7.8209,8.2841,8.8308,8.808,8.7852,9.294,9.6471,9.89,9.9508,10.1482,10.338,10.4443,10.4823,10.4975,10.4975,10.4102,10.3039,10.1976,10.1824,10.1558,10.0799,10.2559,10.3853,10.402,10.6031,10.7642,10.8353,10.8481,10.9193,11.0863,11.2466,11.4036,11.5606,11.7289,11.8186,11.8186,11.8186,11.8186,11.8186,11.8186,11.8186,11.8186,11.8186,11.8186,11.8186,11.8186,11.8186,11.8186,11.8186,11.8186,11.8186,11.8186,11.8186,11.8186,11.8186,11.8186,11.8186,11.8186,11.8186,11.856,12.0841,12.2262,12.3495,12.5813,12.7272,12.8094,12.8094,12.8094,12.8094,12.8094,12.8094,12.8094,12.8094,12.8094,12.8094,12.8094,12.8094,12.8094,12.8094,12.8094,12.8094,12.8094,12.8094,12.8094,12.8094,12.8094,12.8094,12.8094,12.8094,12.7348,12.5378,12.3997,12.2935,12.218,12.2083,12.2083,12.2083,12.2083,12.2083,12.2083,12.2083,12.2083,12.2083,12.2083,12.2083,12.2083,12.2083,12.2083,12.2083,12.2083,12.2083,7.4033,7.7336,8.0563,8.4056,8.5043,8.641,9.1231,9.2446,9.3016,9.4686,9.7458,9.966,9.9888,10.2469,10.4671,10.4937,10.5051,10.5127,10.5127,10.5127,10.4443,10.2621,10.5034,10.6122,10.417,10.6596,10.8353,10.8615,10.839,10.9063,11.0895,11.2466,11.3999,11.5457,11.7251,11.8186,11.8186,11.8186,11.8186,11.8186,11.8186,11.8186,11.8186,11.8186,11.8186,11.8186,11.8186,11.8186,11.8186,11.8186,11.8186,11.8186,11.8186,11.8186,11.8186,11.8186,11.8186,11.8186,11.8186,11.8186,11.871,12.2,12.3047,12.3682,12.7085,12.8094,12.8094,12.8094,12.8094,12.8094,12.8094,12.8094,12.8094,12.8094,12.8094,12.8094,12.8094,12.8094,12.8094,12.8094,12.8094,12.8094,12.8094,12.8094,12.8094,12.8094,12.8094,12.8094,12.8094,12.8094,12.7348,12.5378,12.5161,12.4321,12.224,12.2083,12.2083,12.2083,12.2083,12.2083,12.2083,12.2083,12.2083,12.2083,12.2083,12.2083,12.2083,12.2083,12.2083,12.2083,12.2083,12.2083,7.3388,7.5628,7.7602,8.3486,8.5916,8.7549,9.0016,9.1611,9.3016,9.4686,9.5673,9.6964,9.9432,10.0571,10.1938,10.4557,10.6038,10.6911,10.6911,10.6721,10.6456,10.5962,10.7294,10.7582,10.5923,10.7306,10.8278,10.8353,10.8315,10.8465,10.8914,11.1718,11.3513,11.3886,11.6653,11.8186,11.8186,11.8186,11.8186,11.8186,11.8186,11.8186,11.8186,11.8186,11.8186,11.8186,11.8186,11.8186,11.8186,11.8186,11.8186,11.8186,11.8186,11.8186,11.8186,11.8186,11.8186,11.8186,11.8186,11.8186,11.871,12.2,12.3047,12.3682,12.7085,12.8094,12.8094,12.8094,12.8094,12.8094,12.8094,12.8094,12.8094,12.8094,12.8094,12.8094,12.8094,12.8094,12.8094,12.8094,12.8094,12.8094,12.8094,12.8094,12.8094,12.8094,12.8094,12.8094,12.8094,12.8094,12.7348,12.5378,12.5161,12.4321,12.224,12.2083,12.2083,12.2083,12.2083,12.2083,12.2083,12.2083,12.2083,12.2083,12.2083,12.2083,12.2083,12.2083,12.2083,12.2083,12.2083,12.2083,7.3398,7.5593,7.726,8.1626,8.3942,8.5385,8.6296,8.7814,8.9295,9.0206,9.1649,9.3282,9.5028,9.7268,9.9698,10.2241,10.5393,10.7443,10.7329,10.7215,10.7004,10.6786,10.7251,10.7493,10.7227,10.7867,10.8278,10.8278,10.8278,10.8278,10.8278,11.1494,11.3326,11.3326,11.6504,11.8186,11.8186,11.8186,11.8186,11.8186,11.8186,11.8186,11.8186,11.8186,11.8186,11.8186,11.8186,11.8186,11.8186,11.8186,11.8186,11.8186,11.8186,11.8186,11.8186,11.8186,11.8186,11.8186,11.8186,11.8672,11.9756,12.2262,12.357,12.4692,12.7309,12.8094,12.8094,12.8094,12.8094,12.8094,12.8094,12.8094,12.8094,12.8094,12.8094,12.8094,12.8094,12.8094,12.8094,12.8094,12.8094,12.8094,12.8094,12.8094,12.8094,12.8094,12.8094,12.8094,12.8094,12.8094,12.7348,12.5378,12.5161,12.4321,12.224,12.2083,12.2083,12.2083,12.2083,12.2083,12.2083,12.2083,12.2083,12.2083,12.2083,12.2083,12.2083,12.2083,12.2083,12.2083,12.2083,12.2511,7.3934,7.6444,7.7981,7.9652,8.0867,8.1778,8.2309,8.3335,8.436,8.4853,8.7207,8.9371,8.9903,9.3509,9.7192,9.9508,10.376,10.6873,10.7405,10.743,10.7076,10.642,10.6262,10.6711,10.7792,10.7904,10.8016,10.8241,10.8278,10.8278,10.8278,11.1494,11.3326,11.3326,11.6504,11.8186,11.8186,11.8186,11.8186,11.8186,11.8186,11.8186,11.8186,11.8186,11.8186,11.8186,11.8186,11.8186,11.8186,11.8186,11.8186,11.8186,11.8186,11.8186,11.8186,11.8186,11.8186,11.8186,11.8186,11.927,12.0953,12.2561,12.4206,12.5888,12.7571,12.8094,12.8094,12.8094,12.8094,12.8094,12.8094,12.8094,12.8094,12.8094,12.8094,12.8094,12.8094,12.8094,12.8094,12.8094,12.8094,12.8094,12.8094,12.8094,12.8094,12.8094,12.8094,12.8094,12.8094,12.8094,12.7348,12.5378,12.5161,12.4321,12.224,12.2083,12.2083,12.2083,12.2083,12.2083,12.2083,12.2083,12.2083,12.2083,12.2083,12.2083,12.2083,12.2083,12.2083,12.2083,12.2083,12.3011,7.5134,7.7201,7.7981,7.9652,7.9196,7.9006,8.1778,8.1588,8.1588,8.4398,8.5347,8.66,8.9485,9.0624,9.3054,9.8976,10.1748,10.4633,10.8696,10.8794,10.7918,10.6493,10.6113,10.6072,10.6259,10.6296,10.6857,10.8166,10.8278,10.8278,10.8278,11.1494,11.3326,11.3326,11.6504,11.8186,11.8186,11.8186,11.8186,11.8186,11.8186,11.8186,11.8186,11.8186,11.8186,11.8186,11.8186,11.8186,11.8186,11.8186,11.8186,11.8186,11.8186,11.8186,11.8186,11.8186,11.8186,11.8186,11.8186,11.927,12.0953,12.2561,12.4206,12.5888,12.7571,12.8094,12.8094,12.8094,12.8094,12.8094,12.8094,12.8094,12.8094,12.8094,12.8094,12.8094,12.8094,12.8094,12.8094,12.8094,12.8094,12.8094,12.8094,12.8094,12.8094,12.8094,12.8094,12.8094,12.8094,12.8094,12.7348,12.5378,12.5161,12.4321,12.224,12.2083,12.2083,12.2083,12.2083,12.2083,12.2083,12.2083,12.2083,12.2083,12.2083,12.2083,12.2083,12.2083,12.2083,12.2083,12.2083,12.3011,7.4226,7.9215,8.2704,8.2711,8.1436,8.0563,8.2082,8.1208,8.0525,8.2006,8.2993,8.4322,8.6827,8.8764,9.1915,9.7724,10.1558,10.4836,10.783,10.6956,10.6337,10.7275,10.4916,10.4614,10.8203,10.6969,10.6558,10.8166,10.8278,10.8278,10.8278,11.1494,11.3326,11.3326,11.6504,11.8186,11.8186,11.8186,11.8186,11.8186,11.8186,11.8186,11.8186,11.8186,11.8186,11.8186,11.8186,11.8186,11.8186,11.8186,11.8186,11.8186,11.8186,11.8186,11.8186,11.8186,11.8186,11.8186,11.8186,11.8672,11.9756,12.2262,12.4804,12.7085,12.787,12.8094,12.8094,12.8094,12.8094,12.8094,12.8094,12.8094,12.8094,12.8094,12.8094,12.8094,12.8094,12.8094,12.8094,12.8094,12.8094,12.8094,12.8094,12.8094,12.8094,12.8094,12.8094,12.8094,12.8094,12.8094,12.7348,12.5378,12.5161,12.4321,12.224,12.2083,12.2083,12.2083,12.2083,12.2083,12.2083,12.2083,12.2083,12.2083,12.2083,12.2083,12.2083,12.2083,12.2083,12.2083,12.2083,12.3011,7.5629,0.0,8.6212,8.5097,8.3542,8.2319,0.0,8.1123,8.0014,8.0068,8.1057,8.2499,8.4549,8.7055,9.0586,9.6091,10.0448,10.3921,10.6096,10.4921,10.4617,10.6857,10.3455,10.3044,10.8502,10.682,10.5997,10.7605,10.8054,10.8278,10.8278,11.112,11.2914,11.3326,11.6092,11.7588,11.7588,11.7999,11.8186,11.8186,11.8186,11.8186,11.8186,11.8186,11.8186,11.8186,11.8186,11.8186,11.8186,11.8186,11.8186,11.8186,11.8186,11.8186,11.8186,11.8186,11.8186,11.8186,11.8186,11.8186,11.871,12.2,12.5327,12.8094,12.8094,12.8094,12.8094,12.8094,12.8094,12.8094,12.8094,12.8094,12.8094,12.8094,12.8094,12.8094,12.8094,12.8094,12.8094,12.8094,12.8094,12.8094,12.8094,12.8094,12.8094,12.8094,12.8094,12.8094,12.8094,12.8094,12.7348,12.5378,12.5161,12.4321,12.224,12.2083,12.2083,12.2083,12.2083,12.2083,12.2083,12.2083,12.2083,12.2083,12.2083,12.2083,12.2083,12.2083,12.2083,12.2083,12.2083,12.3011,0.0,8.394,8.452,8.4417,8.3131,8.1953,8.2176,8.0953,0.0,8.0046,8.0183,8.1208,8.436,8.5157,8.7511,9.4155,9.6642,9.9317,10.3774,10.4066,10.3756,10.3754,10.2072,10.1698,10.3754,10.3717,10.4277,10.596,10.7456,10.8278,10.8278,10.9998,11.168,11.3288,11.4971,11.5831,11.5831,11.7401,11.8186,11.8186,11.8186,11.8186,11.8186,11.8186,11.8186,11.8186,11.8186,11.8186,11.8186,11.8186,11.8186,11.8186,11.8186,11.8186,11.8186,11.8186,11.8186,11.8186,11.8186,11.8186,11.871,12.2,12.5327,12.8094,12.8094,12.8094,12.8094,12.8094,12.8094,12.8094,12.8094,12.8094,12.8094,12.8094,12.8094,12.8094,12.8094,12.8094,12.8094,12.8094,12.8094,12.8094,12.8094,12.8094,12.8094,12.8094,12.8094,12.8094,12.8094,12.8094,12.7348,12.5378,12.5161,12.4321,12.224,12.2083,12.2083,12.2083,12.2083,12.2083,12.2083,12.2083,12.2083,12.2083,12.2083,12.2083,12.2083,12.2083,12.2083,12.2083,12.2083,12.3011,8.7041,8.9446,9.1393,8.9441,8.7685,8.6208,8.5326,8.31,8.1289,8.1365,8.0699,8.1095,8.436,8.4891,8.7359,9.5142,9.8407,10.1258,10.5025,10.717,10.72,10.3791,10.1062,10.0464,10.3156,10.2483,10.3006,10.5736,10.6483,10.7231,10.8203,10.9886,11.1082,11.1718,11.3363,11.4672,11.5644,11.7326,11.8186,11.8186,11.8186,11.8186,11.8186,11.8186,11.8186,11.8186,11.8186,11.8186,0.0,11.8186,11.8186,11.8186,11.8186,11.8186,11.8186,11.8186,11.8186,11.8186,11.8186,11.8186,11.871,12.2,12.3907,12.5327,12.7459,12.8094,12.8094,12.8094,12.8094,12.8094,12.8094,12.8094,12.8094,12.8094,12.8094,12.8094,12.8094,12.8094,12.8094,12.8094,12.8094,12.8094,12.8094,12.8094,12.8094,12.8094,12.8094,12.8094,12.8094,12.8094,12.7348,12.5378,12.5161,12.4321,12.224,12.2083,12.2083,12.2083,12.2083,12.2083,12.2083,12.2083,12.2083,12.2083,12.2083,12.2083,12.2083,12.2083,12.2083,12.2083,12.2083,12.244,9.0406,9.2911,9.4968,9.2838,9.1083,8.9404,8.7907,8.5482,8.3312,8.2288,8.1754,8.2125,8.4331,8.554,8.8368,9.5184,9.8788,10.1856,10.5071,10.7388,10.7609,10.4577,10.1772,10.0763,10.2445,10.1585,10.1847,10.4165,10.5324,10.6409,10.7456,10.9101,10.9998,10.9998,11.1643,11.3288,11.4896,11.6541,11.7663,11.8186,11.8186,11.8186,11.8186,11.8186,11.8186,11.8186,11.8186,11.8186,11.8186,11.8186,11.8186,11.8186,11.8186,11.8186,11.8186,11.8186,11.8186,11.8186,11.8186,11.8186,11.8635,12.1402,12.2635,12.357,12.6412,12.7309,12.7309,12.7309,12.7683,12.8094,12.8094,12.8094,12.8094,12.8094,12.8094,12.8094,12.8094,12.8094,12.8094,12.8094,12.8094,12.8094,12.8094,12.8094,12.8094,12.8094,12.8094,12.8094,12.8094,12.778,12.6989,12.5378,12.4864,12.4033,12.2276,12.2083,12.2083,12.2083,12.2083,12.2083,12.2083,12.2083,12.2083,12.2083,12.2083,12.2083,12.2083,12.2083,12.2083,12.2083,12.2083,12.2083,9.2575,9.3472,9.3509,9.3509,9.235,9.0782,8.9364,8.7721,8.563,8.2519,8.3195,8.4346,8.4395,8.7043,9.0354,9.374,9.6798,9.994,10.3303,10.3604,10.4053,10.5736,10.4427,10.2707,10.1025,10.0875,10.0875,10.0912,10.4016,10.5885,10.5923,10.7381,10.8241,10.8241,10.9886,11.1606,11.3288,11.4859,11.6504,11.8149,11.8186,11.8186,11.8186,11.8186,11.8186,11.8186,11.8186,11.8186,11.8186,11.8186,11.8186,11.8186,11.8186,11.8186,11.8186,11.8186,11.8186,11.8186,11.8186,11.8186,11.8448,12.0168,12.1775,12.3346,12.5028,12.5552,12.5552,12.5552,12.6748,12.8057,12.8057,12.8057,12.8094,12.8094,12.8094,12.8094,12.8094,12.8094,12.8094,12.8094,12.8094,12.8094,12.8094,12.8094,12.8094,12.8094,12.8094,12.8094,12.8094,12.7161,12.6192,12.5307,12.4277,12.3203,12.218,12.2083,12.2083,12.2083,12.2083,12.2083,12.2083,12.2083,12.2083,12.2083,12.2083,12.2083,12.2083,12.2083,12.2083,12.2083,12.2083,12.2083,9.1266,9.2687,9.3509,9.3509,9.235,9.1079,9.0595,8.8465,8.6219,8.5308,8.4691,8.4719,8.5921,8.7751,9.017,9.3468,9.751,10.1025,10.3231,10.4502,10.4913,10.424,10.267,10.1025,9.938,9.923,9.9716,10.0838,10.1847,10.3418,10.581,10.6371,10.6633,10.6633,10.9325,11.1007,11.1531,11.426,11.5905,11.6429,11.7625,11.8186,11.8186,11.8186,11.8186,11.8186,11.8186,11.8186,11.8186,11.8186,11.8186,11.8186,11.8186,11.8186,11.8186,11.8186,11.8186,11.8186,11.8186,11.8186,11.8448,12.0168,12.1028,12.1476,12.2,12.2935,12.3794,12.3794,12.4168,12.4804,12.6,12.7197,12.8094,12.8094,12.8094,12.8094,12.8094,12.8094,12.8094,12.8094,12.8094,12.8094,12.8094,12.8094,12.8094,12.8094,12.8094,12.8094,12.8094,12.7161,12.6192,12.5307,12.3616,12.2395,12.2083,12.2083,12.2083,12.2083,12.2083,12.2083,12.2083,12.2083,12.2083,12.2083,12.2083,12.2083,12.2083,12.2083,12.2083,12.2083,12.2083,12.2083,9.0705,9.2313,9.3659,9.4332,9.3285,9.2126,9.2126,9.0147,8.7979,8.6596,8.6181,8.6368,8.7415,8.9359,9.1864,9.5229,9.9193,10.2258,10.3268,10.4277,10.4315,10.2632,10.0987,9.9566,9.8632,9.8557,9.8931,9.9903,10.0539,10.181,10.3829,10.3941,10.4539,10.5885,10.7829,10.9475,11.0746,11.2727,11.4372,11.5681,11.6691,11.7513,11.8186,11.8186,11.8186,11.8186,11.8186,11.8186,11.8186,11.8186,11.8186,11.8186,11.8186,11.8186,11.8186,11.8186,11.8186,11.8186,11.8186,11.8186,11.8336,11.9345,11.9682,11.9682,11.9682,12.0841,12.2112,12.2112,12.2561,12.3308,12.4318,12.5327,12.6262,12.6935,12.7085,12.7272,12.7945,12.8094,12.8094,12.8094,12.8094,12.8094,12.8094,12.8094,12.8094,12.8094,12.8094,12.8094,12.8094,12.6894,12.5759,12.5234,12.3307,12.2083,12.2083,12.2083,12.2083,12.2083,12.2083,12.2083,12.2083,12.2083,12.2083,12.2083,12.2083,12.2083,12.2083,12.2083,12.2083,12.2083,12.2083,12.2083,9.0257,9.1864,9.3472,9.5155,9.4444,9.3323,9.3472,9.2313,9.0294,8.7228,8.7789,8.8873,8.8873,9.1528,9.4781,9.8034,10.1286,10.3418,10.3418,10.3418,10.2782,10.1099,9.9492,9.8557,9.8557,9.8557,9.8557,9.8557,9.9866,10.0688,10.0688,10.0838,10.2333,10.5362,10.5773,10.7343,11.0334,11.0634,11.2279,11.5195,11.5532,11.6466,11.7962,11.8111,11.8186,11.8186,11.8186,11.8186,11.8186,11.8186,11.8186,11.8186,11.8186,11.8186,11.8186,11.8186,11.8186,11.8186,11.8186,11.8186,11.8186,11.8186,11.8186,11.8186,11.8186,11.9233,12.0467,12.0467,12.1514,12.2635,12.2785,12.2822,12.3271,12.4954,12.5327,12.5813,12.7496,12.787,12.7907,12.8057,12.8094,12.8094,12.8094,12.8094,12.8094,12.8094,12.8094,12.8094,12.8094,12.6393,12.5161,12.5161,12.3394,12.218,12.2083,12.2083,12.2083,12.2083,12.2083,12.2083,12.2083,12.2083,12.2083,12.2083,12.2083,12.2083,12.2083,12.2083,12.2083,12.2083,12.2083,12.2083,8.6742,8.8387,9.007,9.179,9.1939,9.1977,9.3248,9.2313,9.0967,9.0257,9.0369,9.0631,9.0631,9.3285,9.6164,9.822,10.1286,10.3418,10.3418,10.3418,10.2782,10.1099,9.9492,9.8557,9.8557,9.8557,9.8557,9.8557,9.8856,9.9043,9.9043,10.0239,10.1249,10.1959,10.4577,10.6259,10.6969,10.9512,11.112,11.1867,11.4447,11.5868,11.6242,11.7588,11.8186,11.8186,11.8186,11.8186,11.8186,11.8186,11.8186,11.8186,11.8186,11.8186,11.8186,11.8186,11.8186,11.8186,11.8186,11.8186,11.8186,11.8186,11.8186,11.8186,11.8186,11.8448,11.871,11.871,11.8971,11.9532,12.0878,12.1215,12.1589,12.3196,12.3608,12.4056,12.5739,12.6113,12.6486,12.7832,12.8094,12.8094,12.8094,12.8094,12.8094,12.8094,12.8094,12.8094,12.8094,12.6393,12.5161,12.5161,12.4033,12.2971,12.218,12.2083,12.2083,12.2083,12.2083,12.2083,12.2083,12.2083,12.2083,12.2083,12.2083,12.2083,12.2083,12.2083,12.2083,12.2083,12.2083,12.2083,8.5695,8.734,8.9023,9.0743,9.1752,9.25,9.3323,9.3509,9.3285,9.2463,9.2313,9.2537,9.336,9.5528,9.8034,10.0464,10.2969,10.4352,10.353,10.3418,10.252,10.0053,9.9043,9.8557,9.8557,9.8557,9.8557,9.8557,9.8557,9.8557,9.8557,9.9342,10.0127,10.0875,10.2595,10.4277,10.5923,10.7605,10.925,11.0821,11.3326,11.4933,11.5718,11.7401,11.8186,11.8186,11.8186,11.8186,11.8186,11.8186,11.8186,11.8186,11.8186,11.8186,11.8186,11.8186,11.8186,11.8186,11.8186,11.8186,11.7924,11.6354,11.6354,11.684,11.6092,11.6391,11.699,11.699,11.699,11.7364,11.9046,11.9495,11.9682,12.0504,12.1327,12.2187,12.3047,12.3832,12.4617,12.5514,12.6337,12.6898,12.6898,12.7533,12.8094,12.8094,12.8094,12.8094,12.8094,12.569,12.3842,12.3389,12.3047,12.264,12.2083,12.2083,12.2083,12.2083,12.2083,12.2083,12.2083,12.2083,12.2083,12.2083,12.2083,12.2083,12.2083,12.2083,12.2083,12.2083,12.2083,12.2083,8.5359,8.6929,8.8574,9.0331,9.1939,9.3098,9.3098,9.4407,9.5192,9.3809,9.3734,9.4369,9.5753,9.7398,9.9716,10.3268,10.5025,10.5549,10.4427,10.4016,10.2632,9.9342,9.8707,9.8557,9.8557,9.8557,9.8557,9.8557,9.8557,9.8557,9.8557,9.8557,9.9118,10.0464,10.0501,10.1959,10.5025,10.5362,10.7007,10.9961,11.1643,11.3288,11.4896,11.6578,11.7476,11.7737,11.7737,11.7737,11.7737,11.7737,11.7588,11.7326,11.7326,11.7326,11.7326,11.7326,11.7326,11.7326,11.7326,11.7326,11.6915,11.4186,11.4186,11.5008,11.3737,11.4223,11.527,11.527,11.527,11.5569,11.699,11.7326,11.7401,11.7663,11.8597,11.9495,11.9756,12.1065,12.2374,12.2935,12.4168,12.514,12.514,12.63,12.7234,12.7234,12.7234,12.7148,12.701,12.448,12.2264,12.12,12.1493,12.1665,12.1298,12.1263,12.1263,12.1263,12.1263,12.1263,12.1263,12.1263,12.1263,12.1263,12.1548,12.1548,12.1263,12.1834,12.1976,12.1691,12.1976,12.2083,8.405,8.5247,8.6854,8.8537,9.0219,9.149,9.149,9.2724,9.3771,9.3547,9.4669,9.5753,9.5977,9.7398,10.009,10.4838,10.5773,10.6334,10.7456,10.6446,10.4352,10.0987,9.938,9.8557,9.8557,9.8557,9.8557,9.8557,9.8557,9.8557,9.8557,9.8557,9.8632,9.8856,9.8856,9.9753,10.1548,10.3006,10.4689,10.6596,10.8203,10.9811,11.1494,11.3176,11.4709,11.598,11.598,11.598,11.598,11.598,11.5195,11.3961,11.3961,11.3961,11.3961,11.3961,11.3961,11.3961,11.3961,11.3961,11.3924,11.3475,11.3475,11.3587,11.34,11.3475,11.3662,11.3662,11.3662,11.3699,11.3924,11.3961,11.4335,11.5681,11.512,11.4672,11.6018,11.7625,11.9644,12.2523,12.3234,12.3383,12.3383,12.357,12.372,12.372,12.372,12.345,12.2642,12.2842,12.2345,12.0651,12.0547,11.9892,11.8167,11.8052,11.8052,11.8052,11.8052,11.8052,11.8052,11.8052,11.8052,11.8052,11.9336,11.9372,11.8052,12.0763,12.1405,12.0085,12.1441,12.2083,8.3788,8.491,8.6293,8.7004,8.921,9.1191,9.1191,9.2388,9.3509,9.3509,9.5603,9.7136,9.6201,9.9679,10.2782,10.3081,10.4689,10.5511,10.4315,10.353,10.2221,9.9866,9.8968,9.8557,9.8557,9.8557,9.8557,9.8557,9.8557,9.8557,9.8557,9.8557,9.8557,9.8557,9.8557,9.8856,9.9566,10.1174,10.2857,10.4539,10.6184,10.7792,10.9437,11.112,11.2802,11.4372,11.4372,11.4372,11.4372,11.4372,11.3961,11.3326,11.3326,11.3326,11.3326,11.3326,11.3326,11.3326,11.3326,11.2092,11.0484,11.0484,11.112,11.1718,11.0783,11.1157,11.1905,11.1905,11.1905,11.2129,11.3064,11.3326,11.3513,11.4186,11.3849,11.3513,11.4223,11.5606,11.7177,11.8635,12.0429,12.1738,12.1738,12.2486,12.3047,12.3047,12.3047,12.1385,11.6832,11.7367,11.7458,11.5616,11.6196,11.6157,11.4951,11.5626,11.6125,11.6125,11.6946,11.7017,11.6161,11.6125,11.5697,11.4805,11.5448,11.5911,11.6125,11.7517,11.8266,11.848,12.005,12.0763,8.3788,8.4648,8.5508,8.5508,8.7714,8.9883,8.9883,9.1453,9.2911,9.2911,9.5229,9.6874,9.5603,9.9791,10.2857,10.1174,10.338,10.4577,10.2483,10.181,10.095,9.9342,9.8781,9.8557,9.8557,9.8557,9.8557,9.8557,9.8557,9.8557,9.8557,9.8557,9.8557,9.8557,9.8557,9.8557,9.8557,9.9716,10.1137,10.2782,10.4053,10.5474,10.7082,10.8353,10.9848,11.1456,11.1456,11.168,11.2054,11.2054,11.2054,11.2054,11.2054,11.2054,11.2054,11.2054,11.2054,11.2054,11.2054,11.0372,10.8278,10.8278,10.9101,10.9923,10.8652,10.9138,11.0148,11.0148,11.0148,11.0447,11.1718,11.2054,11.2129,11.2578,11.2353,11.2167,11.2578,11.3587,11.441,11.441,11.6803,11.8822,11.8822,11.9794,12.0579,12.0579,12.0579,11.856,11.3034,11.3339,11.3473,11.1823,11.2554,11.2705,11.1937,11.2771,11.3307,11.3307,11.4377,11.452,11.3378,11.3307,11.2772,11.1559,11.2308,11.3129,11.3914,11.4698,11.5483,11.6268,11.741,11.7945,8.3788,8.3826,8.3901,8.3901,8.5134,8.6368,8.6368,8.8911,9.1304,9.1304,9.2612,9.3734,9.3659,9.5229,9.7473,10.0426,10.2408,10.4053,10.5474,10.4277,10.267,10.0987,9.9454,9.8557,9.8557,9.8557,9.8557,9.8557,9.8557,9.8557,9.8557,9.8557,9.8557,9.8557,9.8557,9.8557,9.8557,9.8632,9.9454,10.1025,10.1099,10.2034,10.3679,10.3754,10.4726,10.6296,10.6296,10.7156,10.8502,10.8502,10.8502,10.8502,10.8502,10.8502,10.8502,10.8502,10.8502,10.8502,10.8502,10.839,10.8278,10.8278,10.8315,10.839,10.8278,10.8315,10.839,10.839,10.839,10.8428,10.8502,10.8502,10.8914,11.0521,10.9699,10.8951,11.0559,11.097,11.1045,11.1045,11.2503,11.3699,11.3699,11.3774,11.3849,11.3849,11.3849,11.3699,11.3319,11.3356,11.3007,11.2014,11.1239,11.0429,10.9527,10.883,10.8419,10.8419,10.8491,10.8491,10.8419,10.8419,10.8384,10.8277,11.1202,11.2058,11.0667,11.3664,11.4377,11.2986,11.3057,11.3093,8.2143,8.2143,8.2143,8.2143,8.3377,8.4611,8.4611,8.6331,8.7939,8.7939,9.0892,9.321,9.2201,9.508,9.766,9.7772,9.9155,10.0501,10.1099,10.0651,10.0053,9.9454,9.8893,9.8557,9.8557,9.8557,9.8557,9.8557,9.8557,9.8557,9.8557,9.8557,9.8557,9.8557,9.8557,9.8557,9.8557,9.8557,9.8819,9.938,9.938,10.0239,10.181,10.181,10.2707,10.4315,10.4315,10.4651,10.5137,10.5137,10.5137,10.5137,10.5137,10.581,10.6783,10.6783,10.7418,10.7979,10.5885,10.5137,10.5137,10.5137,10.5885,10.6783,10.6783,10.7456,10.8278,10.8278,10.8278,10.8278,10.8278,10.8278,10.8428,10.9026,10.8727,10.8428,10.9026,10.9998,11.0783,11.0783,11.2167,11.3326,11.3326,11.3326,11.3326,11.3326,11.1494,11.0073,11.0073,11.0073,10.978,10.8914,10.8518,10.7806,10.6345,10.691,10.709,10.6649,10.7492,10.7599,10.66,10.6564,10.61,10.5102,10.6172,10.6992,10.742,10.8526,10.9311,10.9739,11.0774,11.1238,8.0274,8.0386,8.0386,8.0386,8.1695,8.3078,8.3639,8.4574,8.5471,8.5994,8.8724,9.0705,8.9658,9.3098,9.5678,9.4556,9.5753,9.7061,9.7622,9.7697,9.7884,9.8482,9.8557,9.8557,9.8557,9.8557,9.8557,9.8557,9.8557,9.8557,9.8557,9.8557,9.8557,9.8557,9.8557,9.8557,9.8557,9.8557,9.8557,9.8557,9.8557,9.908,10.0127,10.0127,10.0726,10.1772,10.1772,10.2072,10.2558,10.2558,10.2931,10.3418,10.3418,10.4091,10.51,10.51,10.5736,10.6334,10.4165,10.3418,10.3418,10.3418,10.4165,10.51,10.51,10.581,10.6633,10.6633,10.6633,10.6783,10.7343,10.7493,10.7605,10.8166,10.8278,10.8278,10.8278,10.9138,10.9923,10.9923,11.0858,11.1643,11.1643,11.1643,11.1643,11.1643,10.9699,10.8278,10.8278,10.8278,10.8076,10.7555,10.7273,10.6671,10.5556,10.5868,10.5903,10.5387,10.6054,10.6029,10.4995,10.4995,10.4495,10.346,10.396,10.4709,10.5744,10.5744,10.6279,10.7278,10.7849,10.8198,7.8143,7.8554,7.8554,7.8554,7.9825,8.147,8.319,8.3601,8.4088,8.5695,8.6069,8.6107,8.6144,8.8873,9.1117,9.1117,9.2425,9.4033,9.5715,9.5977,9.6575,9.8258,9.8445,9.8445,9.8445,9.8445,9.8482,9.8557,9.8557,9.8557,9.8557,9.8557,9.8557,9.8557,9.8557,9.8557,9.8557,9.8557,9.8557,9.8557,9.8557,9.8557,9.8557,9.8557,9.8557,9.8557,9.8557,9.9417,10.0838,10.0838,10.181,10.3268,10.3268,10.3305,10.3343,10.3268,10.3268,10.3268,10.3268,10.3268,10.3268,10.3268,10.3305,10.3343,10.3343,10.338,10.3418,10.3418,10.3418,10.3791,10.5437,10.5848,10.6259,10.7755,10.8129,10.8129,10.8129,10.8166,10.8203,10.8203,10.8241,10.8278,10.8278,10.8278,10.8278,10.8278,10.8203,10.8129,10.8129,10.8129,10.8129,10.8129,10.7491,10.7023,10.6972,10.5474,10.4533,10.4461,10.3701,10.3282,10.3282,10.3282,10.3282,10.3282,10.478,10.553,10.553,10.553,10.5565,10.5565,10.4067,10.3772,7.5077,7.5189,7.5189,7.5189,7.5563,7.6348,7.8031,7.9302,8.0947,8.3826,8.5321,8.6181,8.6372,8.8163,8.9658,8.974,9.1158,9.2763,9.4258,9.4445,9.5042,9.6538,9.6725,9.6725,9.6725,9.6725,9.7211,9.8445,9.8557,9.8557,9.8557,9.8557,9.8557,9.8557,9.8557,9.8557,9.8557,9.8557,9.8557,9.8557,9.8557,9.8557,9.8557,9.8557,9.8557,9.8557,9.8557,9.8781,9.9193,9.9193,9.9454,9.9903,9.9903,10.0576,10.1473,10.0314,9.9903,9.9903,9.9903,9.9903,9.9903,9.9903,10.0651,10.1585,10.1585,10.2445,10.3418,10.3418,10.3418,10.353,10.4016,10.4128,10.4203,10.4651,10.4764,10.4764,10.4764,10.5736,10.6558,10.6558,10.7493,10.8278,10.8278,10.8278,10.8278,10.8278,10.6259,10.4764,10.4764,10.4764,10.4764,10.4764,10.4566,10.4187,10.3636,10.3145,10.2388,10.113,10.0884,10.0516,10.0036,10.0036,10.0036,10.0036,10.0464,10.0678,10.0678,10.0678,10.1249,10.2319,10.2496,10.334,7.1824,7.231,7.3133,7.4553,7.4404,7.4666,7.7731,7.7507,7.7844,8.1882,8.2891,8.3489,8.5064,8.6705,8.7856,8.8053,8.9501,9.0902,9.1752,9.2389,9.336,9.4818,9.4407,9.4257,9.4893,9.5603,9.6426,9.7398,9.8146,9.8557,9.8557,9.8557,9.8557,9.8557,9.8557,9.8557,9.8557,9.8557,9.8557,9.8557,9.8557,9.8557,9.8557,9.8557,9.8557,9.8557,9.8557,9.8557,9.8557,9.8557,9.8557,9.8557,9.8557,9.9118,9.9791,9.8856,9.8557,9.8557,9.8557,9.8557,9.8557,9.8557,9.9155,9.9903,9.9903,10.0613,10.1361,10.1361,10.1361,10.1511,10.2184,10.2371,10.2558,10.3231,10.3418,10.3418,10.3418,10.4203,10.4876,10.4876,10.5623,10.6222,10.6222,10.6222,10.6222,10.6222,10.4614,10.3418,10.3418,10.3418,10.3418,10.3418,10.3418,10.3259,10.2756,10.2114,10.13,10.0353,9.9655,9.9148,9.8751,9.8751,9.8751,9.8751,9.8751,9.8751,9.8751,9.8751,9.9215,10.0071,10.0548,10.1641,6.8235,6.9319,7.1263,7.4254,7.403,7.4254,0.0,7.661,7.4927,7.9713,7.9377,7.9227,8.2629,8.4387,8.5518,8.616,8.7522,8.8632,8.8982,9.0072,9.1266,9.2537,9.164,9.1528,9.3098,9.4594,9.5566,9.5715,9.7286,9.8258,9.8258,9.8445,9.8557,9.8557,9.8557,9.8557,9.8557,9.8557,9.8557,9.8557,9.8557,9.8557,9.8557,9.8557,9.8557,9.8557,9.8557,9.8557,9.8557,9.8557,9.8557,9.8557,9.8557,9.8557,9.8557,9.8557,9.8557,9.8557,9.8557,9.8557,9.8557,9.8557,9.8557,9.8557,9.8557,9.8557,9.8557,9.8557,9.8557,9.8856,10.0277,10.0651,10.1025,10.252,10.2857,10.2857,10.2857,10.3006,10.3118,10.3118,10.3268,10.3418,10.3418,10.3418,10.3305,10.2931,10.2857,10.2857,10.2857,10.2857,10.2857,10.2857,10.2857,10.2857,10.2857,10.1609,10.0786,10.0634,9.9255,9.8453,9.8335,9.8258,9.8216,9.8216,9.8216,9.8216,9.8216,9.8216,9.8287,9.8501,9.8663,9.9404,0.0,0.0,0.0,0.0,0.0,0.0,0.0,7.1637,7.2871,7.6572,7.5974,7.5862,7.9369,8.026,8.1443,8.4319,8.505,8.6177,8.8819,8.8197,8.7486,8.7527,8.8649,8.9995,9.149,9.1939,9.265,9.3883,9.5566,9.6501,9.6501,9.7809,9.8557,9.8557,9.8557,9.8557,9.8557,9.8557,9.8557,9.8557,9.8557,9.8557,9.8557,9.8557,9.8557,9.8557,9.8557,9.8557,9.8557,9.8557,9.8557,9.8557,9.8557,9.8557,9.8557,9.8557,9.8557,9.8557,9.8557,9.8557,9.8557,9.8557,9.8557,9.8557,9.8557,9.8557,9.8557,9.8557,9.8557,9.8632,9.8931,9.9006,9.908,9.9417,9.9492,9.9492,9.9492,10.0464,10.1399,10.1399,10.2483,10.3418,10.3418,10.3418,10.252,9.9903,9.9492,9.9492,9.9492,9.9492,9.9492,9.9492,9.9492,9.9492,9.9492,9.9182,9.8775,9.8153,9.7237,9.644,9.5757,9.5199,9.4863,9.4863,9.4863,9.4863,9.4863,9.4863,9.554,9.6901,9.818,9.8246,0.0,0.0,0.0,0.0,0.0,0.0,0.0,0.0,0.0,0.0,0.0,7.246,7.5862,0.0,7.9287,8.0305,8.3272,8.5418,8.5424,8.685,8.7471,8.6409,8.716,8.801,8.8574,9.0257,9.1565,9.2276,9.3846,9.4781,9.4781,9.6388,9.7286,9.7286,9.8108,9.8557,9.8557,9.8557,9.8557,9.8557,9.8557,9.8557,9.8557,9.8557,9.8557,9.8557,9.8557,9.8557,9.8557,9.8557,9.8557,9.8557,9.8557,9.8557,9.8557,9.8557,9.8557,9.8557,9.8557,9.8557,9.8557,9.8557,9.8557,9.8557,9.8557,9.8557,9.8557,9.8557,9.8557,9.8557,9.8557,9.8557,9.8557,9.8557,9.8557,9.8557,9.8557,9.9155,9.9716,9.9716,10.0389,10.0987,10.0987,10.0987,10.0426,9.8781,9.8557,9.8557,9.8557,9.8557,9.8819,9.9641,10.0464,10.0613,9.9791,10.0501,9.9925,9.753,9.6647,9.5882,9.5112,9.5407,9.5522,9.5148,9.5148,9.5148,9.5148,9.4292,9.4327,9.5188,9.592,9.6438,0.0,0.0,0.0,0.0,0.0,0.0,0.0,0.0,0.0,0.0,0.0,0.0,0.0,0.0,0.0,7.6527,8.1015,8.397,8.2324,8.5354,8.7197,8.5658,8.5788,8.5915,8.5695,8.8238,8.9995,9.0182,9.164,9.2687,9.3023,9.4631,9.5528,9.5528,9.6837,9.7585,9.7585,9.7884,9.8071,9.8071,9.837,0.0,9.8557,9.8557,9.8557,9.8557,9.8557,9.8557,9.8557,9.8557,9.8557,9.8557,9.8557,9.8557,9.8557,9.8557,9.8557,9.8557,9.8557,9.8557,9.8557,9.8557,9.8557,9.8557,9.8557,9.8557,0.0,9.8557,9.8557,9.8557,9.8557,9.8557,9.8557,9.8557,9.8557,9.8557,9.8557,9.8557,9.8557,9.8557,9.8557,9.8557,9.8557,9.8557,9.8632,9.8968,9.8744,9.8669,9.8968,9.8744,9.9043,10.0314,10.166,10.1922,10.0576,10.2558,10.2135,9.7898,9.7741,9.7448,9.6423,9.7234,9.7571,9.7366,9.6682,9.6076,9.5433,9.4113,9.3509,9.3657,9.3552,9.4559,0.0,0.0,0.0,0.0,0.0,0.0,0.0,0.0,0.0,0.0,0.0,0.0,0.0,0.0,0.0,0.0,7.7021,7.8995,8.3141,8.3022,8.2349,8.1899,8.3253,8.4226,8.405,8.4387,8.5209,8.6593,8.8238,8.9845,9.1341,9.2949,0.0,0.0,0.0,9.407,9.407,9.5566,9.6314,9.6314,9.7809,9.8557,9.8557,9.8557,9.8557,9.8557,9.8557,9.8557,9.8557,9.8557,9.8557,9.8557,9.8557,9.8557,9.8557,9.8557,9.8557,9.8557,9.8557,0.0,0.0,9.8557,9.8557,9.8557,9.8557,9.8557,9.8557,9.8557,9.8557,9.8557,9.8557,9.8557,9.8557,9.8557,9.8557,9.8557,9.8557,9.8557,9.8557,9.8557,9.8557,9.8557,9.8557,9.8557,9.9006,10.0426,9.9454,9.9043,10.0464,9.9417,9.8594,9.8781,9.8968,0.0,9.8819,10.3006,10.3604,9.8704,10.1846,10.3053,10.1314,9.9543,9.9186,10.0499,9.7788,9.497,9.2115,9.1937,9.2188,9.2855,9.2838,9.3002,0.0,0.0,0.0,0.0,0.0,0.0,0.0,0.0,0.0,0.0,0.0,0.0,0.0,0.0,0.0,0.0,7.4637,7.6879,7.8031,7.8434,7.8883,7.9676,8.1457,8.2542,8.233,8.4189,8.5199,8.4798,8.6256,8.7452,8.82,8.9771,9.1117,9.2126,9.3023,9.3509,9.3509,9.422,9.4556,9.4556,9.5267,9.5603,9.5603,9.5603,9.5603,9.5603,9.5603,9.6164,9.7061,9.7061,9.766,9.8333,0.0,0.0,0.0,0.0,9.5603,9.5603,9.5603,9.5603,9.5603,9.5603,9.5603,9.5603,9.5603,9.5603,9.5828,9.68,9.7061,9.7286,9.8295,9.8557,9.8557,9.8557,9.8557,9.8557,9.8557,9.8557,9.8557,9.8557,9.8557,0.0,9.8557,9.8557,9.8744,9.9417,9.8968,9.8781,9.9454,9.8968,9.8893,9.9828,10.08,10.0987,9.9978,10.2707,0.0,0.0,0.0,10.0805,10.0074,9.7694,0.0,0.0,0.0,9.6311,9.491,9.3585,0.0,0.0,8.8908,8.8816,0.0,0.0,0.0,0.0,0.0,0.0,0.0,0.0,0.0,0.0,0.0,0.0,0.0,0.0,0.0,0.0,7.1627,7.4308,7.359,7.4412,7.5675,7.7245,7.91,8.0148,7.9937,8.2617,8.4002,8.3153,8.4125,8.5172,8.6069,8.6854,8.8051,8.9733,9.0892,9.149,9.149,9.2388,9.2874,9.2874,9.3285,9.3509,9.3509,9.3509,9.3509,9.3509,9.3509,9.422,9.5342,9.5342,9.6052,9.68,9.3472,9.2163,9.2163,9.2163,9.2163,9.2163,9.2163,9.2762,9.3435,9.2986,9.3173,9.3509,9.3509,9.3509,9.3771,9.4968,9.5342,9.5603,9.6837,9.751,9.7847,9.7847,9.822,9.8557,9.8557,9.8557,9.8557,9.8557,9.8183,9.7847,9.7847,9.7847,9.7996,9.8445,9.7734,9.751,9.8407,9.8146,9.8482,10.009,10.1361,10.1585,10.0352,10.2632,10.252,9.8781,9.9188,9.8959,9.7615,9.6408,9.5321,9.4373,9.5514,9.5886,0.0,0.0,0.0,0.0,0.0,0.0,0.0,0.0,0.0,0.0,0.0,0.0,0.0,0.0,0.0,0.0,0.0,0.0,0.0,0.0,0.0,0.0,0.0,0.0,7.1768,7.1946,7.2432,7.4001,7.56,7.6535,7.6535,7.7993,7.9601,8.1209,8.1396,8.2779,8.592,8.4723,8.4648,8.6219,8.6331,8.6331,8.6331,8.9584,9.1266,9.1266,9.2799,9.3509,9.3509,9.3509,9.3509,9.3509,9.3509,9.3547,9.3584,9.3584,9.3622,9.3323,9.0032,8.8799,8.8799,8.8799,8.8799,8.8799,8.8799,9.0855,9.3248,9.1752,9.2276,9.3509,9.3509,9.3509,9.3509,9.3547,9.3584,9.3584,9.3659,9.4893,9.6089,9.6089,9.7361,9.8557,9.8557,9.8557,9.8557,9.8557,9.7211,9.6089,9.6089,9.6089,9.665,9.8295,9.5753,0.0,9.8108,9.7099,9.6725,9.8407,9.8669,9.8669,9.8632,10.3044,10.3754,9.8856,10.0829,9.994,9.5185,9.7037,9.7499,9.5999,9.3952,9.2087,9.0583,0.0,0.0,0.0,0.0,0.0,0.0,0.0,0.0,0.0,0.0,0.0,0.0,0.0,0.0,0.0,0.0,0.0,0.0,0.0,0.0,0.0,0.0,0.0,0.0,6.9723,7.1852,7.2553,7.489,7.5974,7.4965,7.7171,7.8068,7.646,7.8367,8.005,8.1134,8.0685,8.1695,8.4461,8.5583,8.562,8.4574,8.6742,8.7303,8.6293,8.6817,8.7602,8.8612,8.8612,8.921,9.0219,8.9098,8.9247,9.0182,8.906,8.8013,8.6966,8.5845,8.5396,8.5396,8.5396,8.5396,8.5396,8.5396,8.6144,8.6966,8.6443,8.663,8.7079,8.7079,8.7079,8.7527,8.9658,9.0257,9.078,9.2949,9.3921,9.4369,9.4369,9.4781,9.5192,9.5192,9.5192,9.5192,9.5192,9.3996,9.3584,9.5678,9.4257,9.4108,9.7959,9.5678,9.3921,9.5042,9.5678,9.6239,9.68,9.7884,9.8557,9.8557,9.9043,9.8632,9.6987,9.661,9.5708,9.403,9.3748,9.336,9.2803,9.1003,8.9505,8.8449,0.0,0.0,0.0,0.0,0.0,0.0,0.0,0.0,0.0,0.0,0.0,0.0,0.0,0.0,0.0,0.0,0.0,0.0,0.0,0.0,0.0,0.0,0.0,0.0,0.0,0.0,7.0909,7.3167,0.0,7.332,7.5563,7.6198,7.4105,7.5825,7.7507,7.8666,7.818,7.9152,8.1882,8.2966,8.3003,8.1994,8.3564,8.4162,8.3788,8.4349,8.4835,8.5284,8.5845,8.6406,8.6854,8.6331,8.6406,8.6667,8.3826,8.2031,8.1059,8.0461,8.0236,8.0311,8.0909,8.1134,8.1321,8.248,8.248,8.2181,8.3377,8.3788,8.3676,8.3078,8.2891,8.334,8.5541,8.6139,8.6892,9.0294,9.1567,9.2016,9.2016,9.2875,9.3584,9.2913,9.3249,9.3057,9.0725,8.99,9.0446,9.3062,9.2313,9.2163,9.4631,9.377,9.2573,9.1827,9.3248,9.4519,9.508,9.6089,9.6725,9.6725,9.5753,9.5117,9.5117,9.3584,9.2388,9.179,9.0219,8.8836,8.7639,8.6309,8.5121,0.0,0.0,0.0,0.0,0.0,0.0,0.0,0.0,0.0,0.0,0.0,0.0,0.0,0.0,0.0,0.0,0.0,0.0,0.0,0.0,0.0,0.0,0.0,0.0,0.0,0.0,0.0,6.8881,7.0329,0.0,0.0,0.0,0.0,7.359,7.3441,7.4778,7.7956,7.6797,7.6759,7.8404,7.8629,7.8666,7.8591,8.0274,8.1844,8.3302,8.4873,8.4873,8.3601,8.5172,8.5097,8.3863,8.5247,8.5022,8.3265,7.8404,7.6385,7.6198,7.4516,7.388,7.403,7.5563,7.6124,7.6572,7.9788,7.9825,7.904,8.2405,8.3452,8.3115,8.1508,8.1022,0.0,0.0,8.1457,8.2287,8.5625,8.7648,8.8808,8.8806,9.1378,9.3246,9.138,9.2463,9.1876,8.5464,8.5381,8.6933,8.8692,0.0,9.0631,8.8985,9.0213,9.0587,8.8758,8.9995,9.164,9.321,9.3472,9.3509,9.3509,9.336,9.3285,9.3397,9.1752,9.0107,8.8574,8.6817,8.4349,8.1209,8.0436,0.0,0.0,0.0,0.0,0.0,0.0,0.0,0.0,0.0,0.0,0.0,0.0,0.0,0.0,0.0,0.0,0.0,0.0,0.0,0.0,0.0,0.0,0.0,0.0,0.0,0.0,5.8764,6.1269,6.3979,6.5417,6.5293,0.0,0.0,0.0,0.0,0.0,0.0,6.9639,7.0582,7.2291,7.5039,7.747,7.8143,7.6984,7.8554,7.8367,7.6423,7.8068,7.9264,8.005,8.1732,8.2966,8.3751,8.2854,8.2255,8.162,7.7918,7.6385,7.6198,7.4516,7.388,7.3768,7.2946,7.2647,7.2946,7.5039,7.5488,7.5638,7.8928,7.9227,7.818,7.7769,0.0,0.0,0.0,0.0,7.9955,8.0866,8.2271,8.3452,8.355,8.5157,8.6499,8.6226,8.6521,8.5957,8.2684,8.3475,8.5505,8.8267,8.7079,0.0,9.0032,8.8799,8.7336,8.6817,8.8238,8.992,9.1603,9.2799,9.3509,9.3509,9.1266,9.0406,9.1715,8.7939,8.5994,8.6742,8.4013,8.1508,7.9414,0.0,0.0,0.0,0.0,0.0,0.0,0.0,0.0,0.0,0.0,0.0,0.0,0.0,0.0,0.0,0.0,0.0,0.0,0.0,0.0,0.0,0.0,0.0,0.0,0.0,0.0,0.0,5.1879,5.483,5.7502,5.8517,5.8856,0.0,0.0,0.0,0.0,0.0,0.0,0.0,0.0,0.0,6.9536,7.1394,7.259,7.3133,7.4703,7.5339,7.5002,7.661,7.7507,7.7731,7.8666,7.9227,7.9414,7.9227,7.8704,7.7806,7.5264,7.332,7.1861,0.0,0.0,0.0,0.0,6.9207,6.9468,7.1151,7.1759,7.1992,7.3113,0.0,0.0,0.0,0.0,0.0,0.0,0.0,7.8436,7.9323,8.1205,8.273,8.2047,8.315,8.4127,8.333,8.1646,7.9923,7.8739,7.9262,8.0676,8.3121,8.3831,0.0,0.0,0.0,8.663,8.4274,8.5508,8.749,8.9808,9.0182,9.0257,9.0257,8.9247,8.8425,8.7976,8.5957,8.4574,8.4013,8.1508,7.8704,0.0,0.0,0.0,0.0,0.0,0.0,0.0,0.0,0.0,0.0,0.0,0.0,0.0,0.0,0.0,0.0,0.0,0.0,0.0,0.0,0.0,0.0,0.0,0.0,0.0,0.0,0.0,0.0,0.0,4.882,5.0251,0.0,0.0,0.0,0.0,0.0,0.0,0.0,0.0,0.0,0.0,0.0,0.0,0.0,6.5226,6.8032,7.004,7.2422,7.5114,7.6871,7.6946,7.5451,7.5862,7.5376,7.4217,7.4366,0.0,7.2739,7.0376,0.0,0.0,0.0,0.0,0.0,0.0,0.0,0.0,0.0,0.0,0.0,0.0,0.0,0.0,0.0,0.0,0.0,0.0,0.0,0.0,0.0,0.0,8.2665,8.0993,8.2229,8.3012,8.0258,7.6886,7.4188,7.3716,7.3615,7.4217,0.0,0.0,0.0,0.0,0.0,0.0,8.1563,8.2555,8.4877,8.8013,8.6854,8.5882,8.6107,8.7041,8.6555,8.3938,8.4835,8.4125,8.1059,7.9489,0.0,0.0,0.0,0.0,0.0,0.0,0.0,0.0,0.0,0.0,0.0,0.0,0.0,0.0,0.0,0.0,0.0,0.0,0.0,0.0,0.0,0.0,0.0,0.0,0.0,0.0,0.0,0.0,0.0,0.0,0.0,0.0,0.0,0.0,0.0,0.0,0.0,0.0,0.0,0.0,0.0,0.0,0.0,0.0,0.0,0.0,0.0,0.0,0.0,0.0,7.1188,7.1824,7.0403,7.3095,7.4927,7.5525,6.7636,6.5626,6.7472,6.1694,0.0,0.0,0.0,0.0,0.0,0.0,0.0,0.0,0.0,0.0,0.0,0.0,0.0,0.0,0.0,0.0,0.0,0.0,0.0,0.0,0.0,0.0,7.3943,7.2323,7.5325,7.6827,7.0768,0.0,0.0,0.0,0.0,0.0,0.0,0.0,0.0,0.0,0.0,0.0,7.961,8.1089,8.3395,8.6559,8.5363,8.4835,8.5994,8.3901,8.2891,8.3714,8.2741,8.1209,0.0,0.0,0.0,0.0,0.0,0.0,0.0,0.0,0.0,0.0,0.0,0.0,0.0,0.0,0.0,0.0,0.0,0.0,0.0,0.0,0.0,0.0,0.0,0.0,0.0,0.0,0.0,0.0,0.0,0.0,0.0,0.0,0.0,0.0,0.0,0.0,0.0,0.0,0.0,0.0,0.0,0.0,0.0,0.0,0.0,0.0,0.0,0.0,0.0,0.0,0.0,0.0,0.0,0.0,0.0,0.0,0.0,0.0,6.5284,6.1269,0.0,0.0,0.0,0.0,0.0,0.0,0.0,0.0,0.0,0.0,0.0,0.0,0.0,0.0,0.0,0.0,0.0,0.0,0.0,0.0,0.0,0.0,0.0,0.0,0.0,0.0,0.0,0.0,0.0,0.0,0.0,0.0,0.0,0.0,0.0,0.0,0.0,0.0,0.0,0.0,7.7925,7.9379,8.1706,8.4723,8.3569,8.2854,8.3527,8.2143,8.162,8.2442,8.0872,0.0,0.0,0.0,0.0,0.0,0.0,0.0,0.0,0.0,0.0,0.0,0.0,0.0,0.0,0.0,0.0,0.0,0.0,0.0,0.0,0.0,0.0,0.0,0.0,0.0,0.0,0.0,0.0,0.0,0.0,0.0,0.0,0.0,0.0,0.0,0.0,0.0,0.0,0.0,0.0,0.0,0.0,0.0,0.0,0.0,0.0,0.0,0.0,0.0,0.0,0.0,0.0,0.0,0.0,0.0,0.0,0.0,0.0,0.0,6.0456,5.5655,0.0,0.0,0.0,0.0,0.0,0.0,0.0,0.0,0.0,0.0,0.0,0.0,0.0,0.0,0.0,0.0,0.0,0.0,0.0,0.0,0.0,0.0,0.0,0.0,0.0,0.0,0.0,0.0,0.0,0.0,0.0,0.0,0.0,0.0,0.0,0.0,0.0,0.0,0.0,0.0,7.5357,7.7287,7.9844,8.2511,8.1283,8.0536,8.1209,8.0947,8.0723,8.0723,7.9451,0.0,0.0,0.0,0.0,0.0,0.0,0.0,0.0,0.0,0.0,0.0,0.0,0.0,0.0,0.0,0.0,0.0,0.0,0.0,0.0,0.0,0.0,0.0,0.0,0.0,0.0,0.0,0.0,0.0,0.0,0.0,0.0,0.0,0.0,0.0,0.0,0.0,0.0,0.0,0.0,0.0,0.0,0.0,0.0,0.0,0.0,0.0,0.0,0.0,0.0,0.0,0.0,0.0,0.0,0.0,0.0,0.0,0.0,0.0,0.0,0.0,0.0,0.0,0.0,0.0,0.0,0.0,0.0,0.0,0.0,0.0,0.0,0.0,0.0,0.0,0.0,0.0,0.0,0.0,0.0,0.0,0.0,0.0,0.0,0.0,0.0,0.0,0.0,0.0,0.0,0.0,0.0,0.0,0.0,0.0,0.0,0.0,0.0,0.0,0.0,0.0,7.0453,7.4499,7.7986,7.955,7.8112,7.8173,8.1022,7.9863,7.8965,7.8965,0.0,0.0,0.0,0.0,0.0,0.0,0.0,0.0,0.0,0.0,0.0,0.0,0.0,0.0,0.0,0.0,0.0,0.0,0.0,0.0,0.0,0.0,0.0,0.0,0.0,0.0,0.0,0.0,0.0,0.0,0.0,0.0,0.0,0.0,0.0,0.0,0.0,0.0,0.0,0.0,0.0,0.0,0.0,0.0,0.0,0.0,0.0,0.0,0.0,0.0,0.0,0.0,0.0,0.0,0.0,0.0,0.0,0.0,0.0,0.0,0.0,0.0,0.0,0.0,0.0,0.0,0.0,0.0,0.0,0.0,0.0,0.0,0.0,0.0,0.0,0.0,0.0,0.0,0.0,0.0,0.0,0.0,0.0,0.0,0.0,0.0,0.0,0.0,0.0,0.0,0.0,0.0,0.0,0.0,0.0,0.0,0.0,0.0,0.0,0.0,0.0,0.0,6.9781,7.4084,7.7365,7.7844,7.6198,7.5974,7.8247,7.6797,7.5787,7.5787,0.0,0.0,0.0,0.0,0.0,0.0,0.0,0.0,0.0,0.0,0.0,0.0,0.0,0.0,0.0,0.0,0.0,0.0,0.0,0.0,0.0,0.0,0.0,0.0,0.0,0.0,0.0,0.0,0.0,0.0,0.0,0.0,0.0,0.0,0.0,0.0,0.0,0.0,0.0,0.0,0.0,0.0,0.0,0.0,0.0,0.0,0.0,0.0,0.0,0.0,0.0,0.0,0.0,0.0,0.0,0.0,0.0,0.0,0.0,0.0,0.0,0.0,0.0,0.0,0.0,0.0,0.0,0.0,0.0,0.0,0.0,0.0,0.0,0.0,0.0,0.0,0.0,0.0,0.0,0.0,0.0,0.0,0.0,0.0,0.0,0.0,0.0,0.0,0.0,0.0,0.0,0.0,0.0,0.0,0.0,0.0,0.0,0.0,0.0,0.0,0.0,0.0,6.8375,7.307,7.619,7.56,7.4269,7.4071,7.5704,7.5114,7.4254,7.3207,0.0,0.0,0.0,0.0,0.0,0.0,0.0,0.0,0.0,0.0,0.0,0.0,0.0,0.0,0.0,0.0,0.0,0.0,0.0,0.0,0.0,0.0,0.0,0.0,0.0,0.0,0.0,0.0,0.0,0.0,0.0,0.0,0.0,0.0,0.0,0.0,0.0,0.0,0.0,0.0,0.0,0.0,0.0,0.0,0.0,0.0,0.0,0.0,0.0,0.0,0.0,0.0,0.0,0.0,0.0,0.0,0.0,0.0,0.0,0.0,0.0,0.0,0.0,0.0,0.0,0.0,0.0,0.0,0.0,0.0,0.0,0.0,0.0,0.0,0.0,0.0,0.0,0.0,0.0,0.0,0.0,0.0,0.0,0.0,0.0,0.0,0.0,0.0,0.0,0.0,0.0,0.0,0.0,0.0,0.0,0.0,0.0,0.0,0.0,0.0,0.0,0.0,6.4997,7.0661,7.4011,7.2323,7.204,7.2521,7.3946,7.5608,7.5085,0.0,0.0,0.0,0.0,0.0,0.0,0.0,0.0,0.0,0.0,0.0,0.0,0.0,0.0,0.0,0.0,0.0,0.0,0.0,0.0,0.0,0.0,0.0,0.0,0.0,0.0,0.0,0.0,0.0,0.0,0.0,0.0,0.0,0.0,0.0,0.0,0.0,0.0,0.0,0.0,0.0,0.0,0.0,0.0,0.0,0.0,0.0,0.0,0.0,0.0,0.0,0.0,0.0,0.0,0.0,0.0,0.0,0.0,0.0,0.0,0.0,0.0,0.0,0.0,0.0,0.0,0.0,0.0,0.0,0.0,0.0,0.0,0.0,0.0,0.0,0.0,0.0,0.0,0.0,0.0,0.0,0.0,0.0,0.0,0.0,0.0,0.0,0.0,0.0,0.0,0.0,0.0,0.0,0.0,0.0,0.0,0.0,0.0,0.0,0.0,0.0,0.0,0.0,6.4769,6.9781,7.2975,7.2464,7.1218,7.1121,7.2739,7.3095,7.1348,6.6839,0.0,0.0,0.0,0.0,0.0,0.0,0.0,0.0,0.0,0.0,0.0,0.0,0.0,0.0,0.0,0.0,0.0,0.0,0.0,0.0,0.0,0.0,0.0,0.0,0.0,0.0,0.0,0.0,0.0,0.0,0.0,0.0,0.0,0.0,0.0,0.0,0.0,0.0,0.0,0.0,0.0,0.0,0.0,0.0,0.0,0.0,0.0,0.0,0.0,0.0,0.0,0.0,0.0,0.0,0.0,0.0,0.0,0.0,0.0,0.0,0.0,0.0,0.0,0.0,0.0,0.0,0.0,0.0,0.0,0.0,0.0,0.0,0.0,0.0,0.0,0.0,0.0,0.0,0.0,0.0,0.0,0.0,0.0,0.0,0.0,0.0,0.0,0.0,0.0,0.0,0.0,0.0,0.0,0.0,0.0,0.0,0.0,0.0,0.0,0.0,0.0,0.0,0.0,6.8794,7.1565,7.1565,6.9404,6.8865,7.1183,7.1133,6.8827,6.3785,0.0,0.0,0.0,0.0,0.0,0.0,0.0,0.0,0.0,0.0,0.0,0.0,0.0,0.0,0.0,0.0,0.0,0.0,0.0,0.0,0.0,0.0,0.0,0.0,0.0,0.0,0.0,0.0,0.0,0.0,0.0,0.0,0.0,0.0,0.0,0.0,0.0,0.0,0.0,0.0,0.0,0.0,0.0,0.0,0.0,0.0,0.0,0.0,0.0,0.0,0.0,0.0,0.0,0.0,0.0,0.0,0.0,0.0,0.0,0.0,0.0,0.0,0.0,0.0,0.0,0.0,0.0,0.0,0.0,0.0,0.0,0.0,0.0,0.0,0.0,0.0,0.0,0.0,0.0,0.0,0.0,0.0,0.0,0.0,0.0,0.0,0.0,0.0,0.0,0.0,0.0,0.0,0.0,0.0,0.0,0.0,0.0,0.0,0.0,0.0,0.0,0.0,0.0,6.7883,6.9933,6.9819,6.6971,6.6332,6.9381,6.9611,6.7446,6.2353,6.1799,0.0,0.0,0.0,0.0,0.0,0.0,0.0,0.0,0.0,0.0,0.0,0.0,0.0,0.0,0.0,0.0,0.0,0.0,0.0,0.0,0.0,0.0,0.0,0.0,0.0,0.0,0.0,0.0,0.0,0.0,0.0,0.0,0.0,0.0,0.0,0.0,0.0,0.0,0.0,0.0,0.0,0.0,0.0,0.0,0.0,0.0,0.0,0.0,0.0,0.0,0.0,0.0,0.0,0.0,0.0,0.0,0.0,0.0,0.0,0.0,0.0,0.0,0.0,0.0,0.0,0.0,0.0,0.0,0.0,0.0,0.0,0.0,0.0,0.0,0.0,0.0,0.0,0.0,0.0,0.0,0.0,0.0,0.0,0.0,0.0,0.0,0.0,0.0,0.0,0.0,0.0,0.0,0.0,0.0,0.0,0.0,0.0,0.0,0.0,0.0,0.0,0.0,6.7883,6.9477,6.8186,6.7351,6.7157,6.7944,6.7923,6.6212,6.2412,6.0803,0.0,0.0,0.0,0.0,0.0,0.0,0.0,0.0,0.0,0.0,0.0,0.0,0.0,0.0,0.0,0.0,0.0,0.0,0.0,0.0,0.0,0.0,0.0,0.0,0.0,0.0,0.0,0.0,0.0,0.0,0.0,0.0,0.0,0.0,0.0,0.0,0.0,0.0,0.0,0.0,0.0,0.0,0.0,0.0,0.0,0.0,0.0,0.0,0.0,0.0,0.0,0.0,0.0,0.0,0.0,0.0,0.0,0.0,0.0,0.0,0.0,0.0,0.0,0.0,0.0,0.0,0.0,0.0,0.0,0.0,0.0,0.0,0.0,0.0,0.0,0.0,0.0,0.0,0.0,0.0,0.0,0.0,0.0,0.0,0.0,0.0,0.0,0.0,0.0,0.0,0.0,0.0,0.0,0.0,0.0,0.0,0.0,0.0,0.0,0.0,0.0,0.0,6.3554,6.682,6.7389,6.6098,6.5832,6.7313,6.6013,6.4004,6.1385,5.9578,0.0,0.0,0.0,0.0,0.0,0.0,0.0,0.0,0.0,0.0,0.0,0.0,0.0,0.0,0.0,0.0,0.0,0.0,0.0,0.0,0.0,0.0,0.0,0.0,0.0,0.0,0.0,0.0,0.0,0.0,0.0,0.0,0.0,0.0,0.0,0.0,0.0,0.0,0.0,0.0,0.0,0.0,0.0,0.0,0.0,0.0,0.0,0.0,0.0,0.0,0.0,0.0,0.0,0.0,0.0,0.0,0.0,0.0,0.0,0.0,0.0,0.0,0.0,0.0,0.0,0.0,0.0,0.0,0.0,0.0,0.0,0.0,0.0,0.0,0.0,0.0,0.0,0.0,0.0,0.0,0.0,0.0,0.0,0.0,0.0,0.0,0.0,0.0,0.0,0.0,0.0,0.0,0.0,0.0,0.0,0.0,0.0,0.0,0.0,0.0,0.0,0.0,0.0,6.3554,6.7085,6.4731,6.4086,6.682,6.4314,6.1884,6.0176,0.0,0.0,0.0,0.0,0.0,0.0,0.0,0.0,0.0,0.0,0.0,0.0,0.0,0.0,0.0,0.0,0.0,0.0,0.0,0.0,0.0,0.0,0.0,0.0,0.0,0.0,0.0,0.0,0.0,0.0,0.0,0.0,0.0,0.0,0.0,0.0,0.0,0.0,0.0,0.0,0.0,0.0,0.0,0.0,0.0,0.0,0.0,0.0,0.0,0.0,0.0,0.0,0.0,0.0,0.0,0.0,0.0,0.0,0.0,0.0,0.0,0.0,0.0,0.0,0.0,0.0,0.0,0.0,0.0,0.0,0.0,0.0,0.0,0.0,0.0,0.0,0.0,0.0,0.0,0.0,0.0,0.0,0.0,0.0,0.0,0.0,0.0,0.0,0.0,0.0,0.0,0.0,0.0,0.0,0.0,0.0,0.0,0.0,0.0,0.0,0.0,0.0,0.0,0.0,6.2264,6.6933,6.5718,6.4769,6.5263,6.363,6.1884,6.0176,0.0,0.0,0.0,0.0,0.0,0.0,0.0,0.0,0.0,0.0,0.0,0.0,0.0,0.0]}],[{"header":{"parameterUnit":"kt","parameterCategory":2,"dx":1,"dy":1,"la1":29.285339999999998,"la2":30.599998999999997,"lo1":-89.70041500000002,"lo2":-87.6738589999976,"nx":112,"ny":82,"refTime":"2022-10-16T12:00:00:Z","depth":0,"parameterNumber":2,"parameterNumberName":"V-component_of_WINDS"},"data":[0.0,0.0,0.0,0.0,0.0,0.0,0.0,0.0,0.0,0.0,0.0,0.0,0.0,0.0,0.0,0.0,0.0,0.0,0.0,0.0,0.0,0.0,0.0,0.0,0.0,0.0,0.0,0.0,0.0,0.0,0.0,2.0325,2.0272,2.0253,2.0444,2.0595,2.0681,2.0787,2.0839,2.0839,2.0839,2.0839,2.0839,2.0839,2.0839,2.0839,2.0839,2.0839,2.0839,2.0839,2.0839,2.0839,2.0839,2.0839,2.0839,2.0839,2.0839,2.0839,2.0839,2.0839,2.0839,2.0839,2.0839,2.0839,2.0839,2.0839,2.0879,2.1083,2.0998,2.0886,2.109,2.0991,2.0839,2.0839,2.0984,2.1666,2.3842,2.9008,3.349,3.5792,4.079,4.4435,4.4435,4.4435,4.4435,4.4435,4.4435,4.4435,4.4435,4.4435,4.4435,4.4435,4.4435,4.4435,4.4435,4.4435,4.4435,4.4435,4.4435,4.4435,4.4435,4.4435,4.4435,4.4435,4.4435,4.4435,4.4435,4.4435,4.4435,4.4435,4.4435,4.4435,0.0,0.0,0.0,0.0,0.0,0.0,0.0,0.0,0.0,0.0,0.0,0.0,0.0,0.0,0.0,0.0,0.0,0.0,0.0,0.0,0.0,0.0,0.0,0.0,0.0,0.0,0.0,0.0,2.0957,0.0,2.0279,2.0174,2.0167,2.0253,2.0444,2.0642,2.0833,2.0839,2.0839,2.0839,2.0839,2.0839,2.0839,2.0839,2.0839,2.0839,2.0839,2.0839,2.0839,2.0839,2.0839,2.0839,2.0839,2.0839,2.0839,2.0839,2.0839,2.0839,2.0839,2.0839,2.0839,2.0839,2.0839,2.0839,2.0839,2.0839,2.0839,2.0839,2.0839,2.0839,2.0839,2.0839,2.0859,2.0965,2.1136,2.1855,2.4411,2.9301,3.3731,3.6038,4.0923,4.4435,4.4435,4.4435,4.4435,4.4435,4.4435,4.4435,4.4435,4.4435,4.4435,4.4435,4.4435,4.4435,4.4435,4.4435,4.4435,4.4435,4.4435,4.4435,4.4435,4.4435,4.4435,4.4435,4.4435,4.4435,4.4435,4.4435,4.4435,4.4435,4.4435,4.4435,0.0,0.0,0.0,0.0,0.0,0.0,0.0,0.0,0.0,0.0,0.0,0.0,0.0,0.0,0.0,0.0,0.0,0.0,0.0,0.0,0.0,0.0,0.0,0.0,0.0,1.2011,2.0262,0.0,2.1244,2.0872,2.0029,2.0239,2.0266,2.0002,2.0543,2.0839,2.0839,2.0839,2.0839,2.0839,2.0839,2.0839,2.0839,2.0839,2.0839,2.0839,2.0839,2.0839,2.0839,2.0839,2.0839,2.0839,2.0839,2.0839,2.0839,2.0839,2.0839,2.0839,2.0839,2.0839,2.0839,2.0839,2.0839,2.0839,2.0839,2.0839,2.0839,2.0839,2.0839,2.0839,2.0839,2.0846,2.0925,2.1215,2.1294,2.1459,2.2019,2.7799,3.3026,3.3448,3.9257,4.4435,4.4435,4.4435,4.4435,4.4435,4.4435,4.4435,4.4435,4.4435,4.4435,4.4435,4.4435,4.4435,4.4435,4.4435,4.4435,4.4435,4.4435,4.4435,4.4435,4.4435,4.4435,4.4435,4.4435,4.4435,4.4435,4.4435,4.4435,4.4435,4.4435,4.4435,0.0,0.0,0.0,0.0,0.0,0.0,0.0,0.0,0.0,0.0,0.0,0.0,0.0,0.0,0.0,0.0,0.0,0.0,0.0,0.0,0.0,0.0,0.0,0.0,0.0,1.1041,1.5523,1.9837,2.0147,2.0239,1.9996,2.0055,2.0154,2.0279,2.0642,2.0839,2.0839,2.0839,2.0839,2.0839,2.0839,2.0839,2.0839,2.0839,2.0839,2.0839,2.0839,2.0839,2.0839,2.0839,2.0839,2.0839,2.0839,2.0839,2.0839,2.0839,2.0839,2.0839,2.0839,2.0839,2.0839,2.0839,2.0839,2.0839,2.0839,2.0839,2.0839,2.0839,2.0839,2.0839,2.0839,2.0998,2.1182,2.1261,2.1604,2.1947,2.2105,2.6101,3.0116,3.2961,3.7354,4.1444,4.4168,4.4435,4.4435,4.4435,4.4435,4.4435,4.4435,4.4435,4.4435,4.4435,4.4435,4.4435,4.4435,4.4435,4.4435,4.4435,4.4435,4.4435,4.4435,4.4435,4.4435,4.4435,4.4435,4.4435,4.4435,4.4435,4.4435,4.4435,4.4435,4.4435,0.0,0.0,0.0,0.0,0.0,0.0,0.0,0.0,0.0,0.0,0.0,0.0,0.0,0.0,0.0,0.0,0.0,0.0,0.0,0.0,0.0,0.0,0.0,0.0,0.5264,1.1686,1.6725,1.9481,2.02,2.0286,2.016,2.0154,2.0233,2.0391,2.0681,2.0839,2.0839,2.0839,2.0839,2.0839,2.0839,2.0839,2.0839,2.0839,2.0839,2.0839,2.0839,2.0839,2.0839,2.0839,2.0839,2.0839,2.0839,2.0839,2.0839,2.0839,2.0839,2.0839,2.0839,2.0839,2.0839,2.0839,2.0839,2.0839,2.0839,2.0839,2.0839,2.0839,2.0925,2.1024,2.1024,2.1242,2.1492,2.1611,2.1901,2.2178,2.2303,2.5183,2.9148,3.2717,3.6531,4.0346,4.3889,4.4435,4.4435,4.4435,4.4435,4.4435,4.4435,4.4435,4.4435,4.4435,4.4435,4.4435,4.4435,4.4435,4.4435,4.4435,4.4435,4.4435,4.4435,4.4435,4.4435,4.4435,4.4435,4.4435,4.4435,4.4435,4.4435,4.4435,4.4435,4.4435,0.0,0.0,0.0,0.0,0.0,0.0,0.0,0.0,0.0,0.0,0.0,0.0,0.0,0.0,0.0,0.0,0.0,0.0,0.0,0.0,0.0,0.0,0.0,0.0241,0.096,1.284,2.0201,1.9951,2.0373,2.0642,2.0417,2.0398,2.0411,2.0444,2.0701,2.0839,2.0839,2.0839,2.0839,2.0839,2.0839,2.0839,2.0839,2.0839,2.0839,2.0839,2.0839,2.0839,2.0839,2.0839,2.0839,2.0839,2.0839,2.0839,2.0839,2.0839,2.0839,2.0839,2.0839,2.0839,2.0839,2.0839,2.0839,2.0839,2.0839,2.0839,2.0846,2.0879,2.1077,2.1288,2.1321,2.1538,2.1815,2.2079,2.2171,2.2263,2.2527,2.5053,2.8606,3.2707,3.6259,3.9526,4.3342,4.4168,4.4435,4.4435,4.4435,4.4435,4.4435,4.4435,4.4435,4.4435,4.4435,4.4435,4.4435,4.4435,4.4435,4.4435,4.4435,4.4435,4.4435,4.4435,4.4435,4.4435,4.4435,4.4435,4.4435,4.4435,4.4435,4.4435,4.4435,4.4435,0.0,0.0,0.0,0.0,0.0,0.0,0.0,0.0,0.0,0.0,0.0,0.0,0.0,0.0,0.0,0.0,0.0,0.0,0.0,0.0,0.0,0.0,0.0,0.1973,0.7228,1.0276,1.3848,1.8792,1.9761,2.0239,2.0204,2.0424,2.0503,2.0747,2.0806,2.0839,2.0839,2.0839,2.0839,2.0839,2.0839,2.0839,2.0839,2.0839,2.0839,2.0839,2.0839,2.0839,2.0839,2.0839,2.0839,2.0839,2.0839,2.0839,2.0839,2.0839,2.0839,2.0839,2.0839,2.0839,2.0839,2.0839,2.0839,2.0839,2.0839,2.0839,2.0892,2.1129,2.1235,2.1334,2.1558,2.1835,2.2072,2.2132,2.2329,2.2521,2.2573,2.3132,2.5601,3.217,3.4083,3.5716,3.9526,4.2528,4.4435,4.4435,4.4435,4.4435,4.4435,4.4435,4.4435,4.4435,4.4435,4.4435,4.4435,4.4435,4.4435,4.4435,4.4435,4.4435,4.4435,4.4435,4.4435,4.4435,4.4435,4.4435,4.4435,4.4435,4.4435,4.4435,4.4435,4.4435,0.0,0.0,0.0,0.0,0.0,0.0,0.0,0.0,0.0,0.0,0.0,0.0,0.0,0.0,0.0,0.0,0.0,0.0,0.0,0.0,0.0,0.0,0.0,0.1238,0.4425,1.0616,1.5626,1.8886,1.9597,2.0119,2.0425,2.0642,2.0681,2.0833,2.0839,2.0839,2.0839,2.0839,2.0839,2.0839,2.0839,2.0839,2.0839,2.0839,2.0839,2.0839,2.0839,2.0839,2.0839,2.0839,2.0839,2.0839,2.0839,2.0839,2.0839,2.0839,2.0839,2.0839,2.0839,2.0839,2.0839,2.0839,2.0839,2.0839,2.0839,2.0839,2.0899,2.1195,2.1492,2.1749,2.1888,2.2145,2.2362,2.2362,2.2474,2.2586,2.2586,2.2586,2.4233,2.9699,3.216,3.5162,4.0895,4.3342,4.4435,4.4435,4.4435,4.4435,4.4435,4.4435,4.4435,4.4435,4.4435,4.4435,4.4435,4.4435,4.4435,4.4435,4.4435,4.4435,4.4435,4.4435,4.4435,4.4435,4.4435,4.4435,4.4435,4.4435,4.4435,4.4435,4.4435,4.4435,0.0,0.0,0.0,0.0,0.0,0.0,0.0,0.0,0.0,0.0,0.0,0.0,0.0,0.0,0.0,0.0,0.0,0.0,0.0,0.0,0.0,0.0,0.0,0.0,0.0,1.1552,1.9181,1.9494,1.9899,2.0367,2.0892,2.0859,2.0839,2.0839,2.0839,2.0839,2.0839,2.0839,2.0839,2.0839,2.0839,2.0839,2.0839,2.0839,2.0839,2.0839,2.0839,2.0839,2.0839,2.0839,2.0839,2.0839,2.0839,2.0839,2.0839,2.0839,2.0839,2.0839,2.0839,2.0839,2.0839,2.0839,2.0839,2.0839,2.0839,2.0879,2.0978,2.1215,2.1696,2.2158,2.2211,2.2408,2.2586,2.2586,2.2586,2.2586,2.2586,2.2586,2.3683,2.7233,3.1064,3.5444,4.2248,4.4168,4.4435,4.4435,4.4435,4.4435,4.4435,4.4435,4.4435,4.4435,4.4435,4.4435,4.4435,4.4435,4.4435,4.4435,4.4435,4.4435,4.4435,4.4435,4.4435,4.4435,4.4435,4.4435,4.4435,4.4435,4.4435,4.4435,4.4435,4.4435,0.0,0.0,0.0,0.0,0.0,0.0,0.0,0.0,0.0,0.0,0.0,0.0,0.0,0.0,0.0,0.0,0.0,0.0,0.0,0.0,0.0,0.0,0.0,0.0,0.0,1.1552,1.952,2.0563,2.0302,2.0137,2.0892,2.0859,2.0839,2.0839,2.0839,2.0839,2.0839,2.0839,2.0839,2.0839,2.0839,2.0839,2.0839,2.0839,2.0839,2.0839,2.0839,2.0839,2.0839,2.0839,2.0839,2.0839,2.0839,2.0839,2.0839,2.0839,2.0839,2.0839,2.0839,2.0839,2.0839,2.0839,2.0839,2.0839,2.0839,2.1024,2.1242,2.1275,2.1696,2.2204,2.2468,2.256,2.2586,2.2586,2.2586,2.2586,2.2586,2.2586,2.3683,2.7233,3.1064,3.4628,3.8987,4.226,4.4435,4.4435,4.4435,4.4435,4.4435,4.4435,4.4435,4.4435,4.4435,4.4435,4.4435,4.4435,4.4435,4.4435,4.4435,4.4435,4.4435,4.4435,4.4435,4.4435,4.4435,4.4435,4.4435,4.4435,4.4435,4.4435,4.4435,4.4435,0.0,0.0,0.0,0.0,0.0,0.0,0.0,0.0,0.0,0.0,0.0,0.0,0.0,0.0,0.0,0.0,0.0,0.0,0.0,0.0,0.0,0.0,0.0,0.0,0.0,1.2105,1.6816,0.9338,1.6122,2.0627,2.0699,2.0886,2.0839,2.0839,2.0839,2.0839,2.0839,2.0839,2.0839,2.0839,2.0839,2.0839,2.0839,2.0839,2.0839,2.0839,2.0839,2.0839,2.0839,2.0839,2.0839,2.0839,2.0839,2.0839,2.0839,2.0839,2.0839,2.0839,2.0839,2.0839,2.0839,2.0839,2.0839,2.0866,2.1044,2.1182,2.1354,2.169,2.1954,2.2211,2.2507,2.2586,2.2586,2.2586,2.2586,2.2586,2.2586,2.2586,2.3683,2.7233,3.1064,3.4628,3.8436,4.1992,4.3889,4.1712,4.3075,4.3622,4.1712,4.3075,4.4435,4.4435,4.4435,4.4435,4.4435,4.4435,4.4435,4.4435,4.4435,4.4435,4.4435,4.4435,4.4435,4.4435,4.4435,4.4435,4.4435,4.4435,4.4435,4.4435,4.4435,4.4435,0.0,0.0,0.0,0.0,0.0,0.0,0.0,0.0,0.0,0.0,0.0,0.0,0.0,0.0,0.0,0.0,0.0,0.0,0.0,0.0,0.0,0.0,0.0,0.0,0.0,0.914,1.0741,0.0785,1.2845,1.9983,1.8077,1.9845,2.0853,2.0839,2.0839,2.0839,2.0839,2.0839,2.0839,2.0839,2.0839,2.0839,2.0839,2.0839,2.0839,2.0839,2.0839,2.0839,2.0839,2.0839,2.0839,2.0839,2.0839,2.0839,2.0839,2.0839,2.0839,2.0839,2.0839,2.0839,2.0839,2.0839,2.0892,2.1004,2.1215,2.1393,2.1604,2.2026,2.2197,2.2316,2.2534,2.2586,2.2586,2.2586,2.2586,2.2586,2.2586,2.2586,2.3683,2.7233,3.1064,3.4355,3.7084,4.0614,4.1712,3.8166,4.0614,4.198,3.9526,4.226,4.4435,4.4435,4.4435,4.4435,4.4435,4.4435,4.4435,4.4435,4.4435,4.4435,4.4435,4.4435,4.4435,4.4435,4.4435,4.4435,4.4435,4.4435,4.4435,4.4435,4.4435,4.4435,0.0,0.0,0.0,0.0,0.0,0.0,0.0,0.0,0.0,0.0,0.0,0.0,0.0,0.0,0.0,0.0,0.0,0.0,0.0,0.0,0.0,0.0,0.0,0.0,0.0,0.026,0.0523,0.0,1.2845,1.7851,1.1213,1.722,2.0879,2.0839,2.0839,2.0839,2.0839,2.0839,2.0839,2.0839,2.0839,2.0839,2.0839,2.0839,2.0839,2.0839,2.0839,2.0839,2.0839,2.0839,2.0839,2.0839,2.0839,2.0839,2.0839,2.0839,2.0839,2.0839,2.0839,2.0839,2.0839,2.0839,2.1031,2.1275,2.1281,2.1677,2.2125,2.2138,2.2349,2.2573,2.258,2.2586,2.2586,2.2586,2.2586,2.2586,2.2586,2.2586,2.3683,2.7233,3.1064,3.3537,3.3537,3.6802,3.7896,3.4083,3.6802,3.9257,3.8987,4.226,4.4435,4.4435,4.4435,4.4435,4.4435,4.4435,4.4435,4.4435,4.4435,4.4435,4.4435,4.4435,4.4435,4.4435,4.4435,4.4435,4.4435,4.4435,4.4435,4.4435,4.4435,4.4435,0.0,0.0,0.0,0.0,0.0,0.0,0.0,0.0,0.0,0.0,0.0,0.0,0.0,0.0,0.0,0.0,0.0,0.0,0.0,0.0,0.0,0.0,0.0,0.0,0.0,0.0,0.0,0.0,0.4447,0.8103,1.0426,1.6993,2.0673,2.0839,2.0839,2.0839,2.0839,2.0839,2.0839,2.0839,2.0839,2.0839,2.0839,2.0839,2.0839,2.0839,2.0839,2.0839,2.0839,2.0839,2.0839,2.0839,2.0839,2.0839,2.0839,2.0839,2.0839,2.0839,2.0839,2.0839,2.0839,2.0839,2.1037,2.1314,2.1505,2.1828,2.2184,2.2382,2.2507,2.2586,2.2586,2.2586,2.2586,2.2586,2.2586,2.2586,2.2586,2.2586,2.2859,2.4233,2.7241,2.9699,2.9699,3.2981,3.4073,3.0515,3.5162,3.8166,3.5716,4.0614,4.4435,4.4435,4.4435,4.4435,4.4435,4.4435,4.4435,4.4435,4.4435,4.4435,4.4435,4.4435,4.4435,4.4435,4.4435,4.4435,4.4435,4.4435,4.4435,4.4435,4.4435,4.4435,0.0,0.0,0.0,0.0,0.0,0.0,0.0,0.0,0.0,0.0,0.0,0.0,0.0,0.0,0.0,0.0,0.0,0.0,0.0,0.0,0.0,0.0,0.0,0.0,0.0,0.0,0.0,0.0,0.0,0.3135,1.0163,1.7015,2.0692,2.0839,2.0839,2.0839,2.0839,2.0839,2.0839,2.0839,2.0839,2.0839,2.0839,2.0839,2.0839,2.0839,2.0839,2.0839,2.0839,2.0839,2.0839,2.0839,2.0839,2.0839,2.0839,2.0839,2.0839,2.0839,2.0839,2.0839,2.0839,2.0839,2.1103,2.1466,2.1644,2.198,2.2343,2.2534,2.2586,2.2586,2.2586,2.2586,2.2586,2.2586,2.2586,2.2586,2.2586,2.2586,2.2586,2.2586,2.5601,2.7501,2.6141,2.9157,3.0249,2.6687,3.1338,3.4618,3.3537,3.8706,4.3075,4.4435,4.4435,4.4435,4.4435,4.4435,4.4435,4.4435,4.4435,4.4435,4.4435,4.4435,4.4435,4.4435,4.4435,4.4435,4.4435,4.4435,4.4435,4.4435,4.4435,4.4435,0.0,0.0,0.0,0.0,0.0,0.0,0.0,0.0,0.0,0.0,0.0,0.0,0.0,0.0,0.0,0.0,0.0,0.0,0.0,0.0,0.0,0.0,0.0,0.0,0.0,0.0,0.0,0.0,0.0,0.3135,1.0163,1.7015,2.0692,2.0839,2.0839,2.0839,2.0839,2.0839,2.0839,2.0839,2.0839,2.0839,2.0839,2.0839,2.0839,2.0839,2.0839,2.0839,2.0839,2.0839,2.0839,2.0839,2.0839,2.0839,2.0839,2.0839,2.0839,2.0839,2.0839,2.0839,2.0839,2.0839,2.1228,2.1696,2.1696,2.2118,2.2586,2.2586,2.2586,2.2586,2.2586,2.2586,2.2586,2.2586,2.2586,2.2586,2.2586,2.2586,2.2586,2.2586,2.5324,2.6687,2.3132,2.5324,2.641,2.3132,2.5594,2.9424,3.299,3.6802,4.0346,4.4168,4.4435,4.4435,4.4435,4.4435,4.4435,4.4435,4.4435,4.4435,4.4435,4.4435,4.4435,4.4435,4.4435,4.4435,4.4435,4.4435,4.4435,4.4435,4.4435,4.4435,0.0,0.0,0.0,0.0,0.0,0.0,0.0,0.0,0.0,0.0,0.0,0.0,0.0,0.0,0.0,0.0,0.0,0.0,0.0,0.0,0.0,0.0,0.0,0.0,0.0,0.0,0.0,0.0,0.0,0.3135,1.0163,1.7015,2.0692,2.0839,2.0839,2.0839,2.0839,2.0839,2.0839,2.0839,2.0839,2.0839,2.0839,2.0839,2.0839,2.0839,2.0839,2.0839,2.0839,2.0839,2.0839,2.0839,2.0839,2.0839,2.0839,2.0839,2.0839,2.0839,2.0839,2.0839,2.0839,2.0839,2.1228,2.1696,2.1696,2.2118,2.2586,2.2586,2.2586,2.2586,2.2586,2.2586,2.2586,2.2586,2.2586,2.2586,2.2586,2.2586,2.2586,2.2586,2.3411,2.3683,2.2586,2.3411,2.3683,2.2586,2.5594,2.9424,3.299,3.6802,4.0346,4.4168,4.4435,4.4435,4.4435,4.4435,4.4435,4.4435,4.4435,4.4435,4.4435,4.4435,4.4435,4.4435,4.4435,4.4435,4.4435,4.4435,4.4435,4.4435,4.4435,4.4435,0.0,0.0,0.0,0.0,0.0,0.0,0.0,0.0,0.0,0.0,0.0,0.0,0.0,0.0,0.0,0.0,0.0,0.0,0.0,0.0,0.0,0.0,0.0,0.0,0.0,0.0,0.0,0.0,0.0,0.3114,1.016,1.7015,2.0692,2.0839,2.0839,2.0839,2.0839,2.0839,2.0839,2.0839,2.0839,2.0839,2.0839,2.0839,2.0839,2.0839,2.0839,2.0839,2.0839,2.0839,2.0839,2.0839,2.0839,2.0839,2.0839,2.0839,2.0839,2.0839,2.0839,2.0839,2.0839,2.0839,2.1228,2.1696,2.1696,2.2118,2.2586,2.2586,2.2586,2.2586,2.2586,2.2586,2.2586,2.2586,2.2586,2.2586,2.2586,2.2586,2.2586,2.2586,2.2586,2.2586,2.2586,2.2586,2.2586,2.2586,2.4226,2.6964,3.0524,3.4345,3.7896,4.1712,4.3622,4.4435,4.4435,4.4435,4.4435,4.4435,4.4435,4.4435,4.4435,4.4435,4.4435,4.4435,4.4435,4.4435,4.4435,4.4435,4.4435,4.4435,4.4435,4.4435,0.0,0.0,0.0,0.0,0.0,0.0,0.0,0.0,0.0,0.0,0.0,0.0,0.0,0.0,0.0,0.0,0.0,0.0,0.0,0.0,0.0,0.0,0.0,0.0,0.0,0.0,0.0,0.0,0.0,0.3087,1.0157,1.7004,2.0686,2.0839,2.0839,2.0839,2.0839,2.0839,2.0839,2.0839,2.0839,2.0839,2.0839,2.0839,2.0839,2.0839,2.0839,2.0839,2.0839,2.0839,2.0839,2.0839,2.0839,2.0839,2.0839,2.0839,2.0839,2.0839,2.0839,2.0839,2.0839,2.0839,2.1228,2.1696,2.1696,2.2118,2.2586,2.2586,2.2586,2.2586,2.2586,2.2586,2.2586,2.2586,2.2586,2.2586,2.2586,2.2586,2.2586,2.2586,2.2586,2.2586,2.2586,2.2586,2.2586,2.2586,2.2586,2.3961,2.7509,3.1064,3.489,3.8717,4.226,4.4435,4.4435,4.4435,4.4435,4.4435,4.4435,4.4435,4.4435,4.4435,4.4435,4.4435,4.4435,4.4435,4.4435,4.4435,4.4435,4.4435,4.4435,4.4435,0.0,0.0,0.0,0.0,0.0,0.0,0.0,0.0,0.0,0.0,0.0,0.0,0.0,0.0,0.0,0.0,0.0,0.0,0.0,0.0,0.0,0.0,0.0,0.0,0.0,0.0,0.0,0.0,0.0,0.3082,1.0157,1.6967,2.0892,2.0839,2.0839,2.0839,2.0839,2.0839,2.0839,2.0839,2.0839,2.0839,2.0839,2.0839,2.0839,2.0839,2.0839,2.0839,2.0839,2.0839,2.0839,2.0839,2.0839,2.0839,2.0839,2.0839,2.0839,2.0839,2.0839,2.0839,2.0839,2.0839,2.1228,2.1696,2.1696,2.2118,2.2586,2.2586,2.2586,2.2586,2.2586,2.2586,2.2586,2.2586,2.2586,2.2586,2.2586,2.2586,2.2586,2.2586,2.2586,2.2586,2.2586,2.2586,2.2586,2.2586,2.2586,2.3961,2.7509,3.1064,3.489,3.8717,4.226,4.4435,4.4435,4.4435,4.4435,4.4435,4.4435,4.4435,4.4435,4.4435,4.4435,4.4435,4.4435,4.4435,4.4435,4.4435,4.4435,4.4435,4.4435,4.4435,0.0,0.0,0.0,0.0,0.0,0.0,0.0,0.0,0.0,0.0,0.0,0.0,0.0,0.0,0.0,0.0,0.0,0.0,0.0,0.0,0.0,0.0,0.0,0.0,0.0,0.0,0.2706,0.9432,0.3761,0.457,1.5244,1.9002,2.0886,2.0839,2.0839,2.0839,2.0839,2.0839,2.0839,2.0839,2.0839,2.0839,2.0839,2.0839,2.0839,2.0839,2.0839,2.0839,2.0839,2.0839,2.0839,2.0839,2.0839,2.0839,2.0839,2.0839,2.0839,2.0839,2.0839,2.0839,2.0839,2.0839,2.1228,2.1696,2.1696,2.2118,2.2586,2.2586,2.2586,2.2586,2.2586,2.2586,2.2586,2.2586,2.2586,2.2586,2.2586,2.2586,2.2586,2.2586,2.2586,2.2586,2.2586,2.2586,2.2586,2.2586,2.2586,2.3132,2.5053,2.9983,3.4083,3.5988,4.1163,4.4435,4.4435,4.4435,4.4435,4.4435,4.4435,4.4435,4.4435,4.4435,4.4435,4.4435,4.4435,4.4435,4.4435,4.4435,4.4435,4.4435,4.4435,4.4435,0.0,0.0,0.0,0.0,0.0,0.0,0.0,0.0,0.0,0.0,0.0,0.0,0.0,0.0,0.0,0.0,0.0,0.0,0.0,0.0,0.0,0.0,0.0,0.0,0.0,0.2582,0.819,1.8247,0.8662,0.7766,2.0028,2.0714,2.0806,2.0839,2.0839,2.0839,2.0839,2.0839,2.0839,2.0839,2.0839,2.0839,2.0839,2.0839,2.0839,2.0839,2.0839,2.0839,2.0839,2.0839,2.0839,2.0839,2.0839,2.0839,2.0839,2.0839,2.0839,2.0839,2.0839,2.0839,2.0839,2.0839,2.1228,2.1696,2.1696,2.2118,2.2586,2.2586,2.2586,2.2586,2.2586,2.2586,2.2586,2.2586,2.2586,2.2586,2.2586,2.2586,2.2586,2.2586,2.2586,2.2586,2.2586,2.2586,2.2586,2.2586,2.2586,2.2586,2.2586,2.889,3.3537,3.3537,4.0065,4.4435,4.4435,4.4435,4.4435,4.4435,4.4435,4.4435,4.4435,4.4435,4.4435,4.4435,4.4435,4.4435,4.4435,4.4435,4.4435,4.4435,4.4435,4.4435,0.0,0.0,0.0,0.0,0.0,0.0,0.0,0.0,0.0,0.0,0.0,0.0,0.0,0.0,0.0,0.0,0.0,0.0,0.0,0.0,0.0,0.0,0.0,0.0,0.0,1.0487,1.7747,1.898,1.3249,1.2902,2.0275,2.049,2.0563,2.0833,2.0839,2.0839,2.0839,2.0839,2.0839,2.0839,2.0839,2.0839,2.0839,2.0839,2.0839,2.0839,2.0839,2.0839,2.0839,2.0839,2.0839,2.0839,2.0839,2.0839,2.0839,2.0839,2.0839,2.0839,2.0839,2.0839,2.0839,2.0839,2.1228,2.1696,2.1696,2.2118,2.2586,2.2586,2.2586,2.2586,2.2586,2.2586,2.2586,2.2586,2.2586,2.2586,2.2586,2.2586,2.2586,2.2586,2.2586,2.2586,2.2586,2.2586,2.2586,2.2586,2.2586,2.2586,2.2586,2.889,3.3537,3.3537,4.0065,4.4435,4.4435,4.4435,4.4435,4.4435,4.4435,4.4435,4.4435,4.4435,4.4435,4.4435,4.4435,4.4435,4.4435,4.4435,4.4435,4.4435,4.4435,4.4435,0.0,0.0,0.0,0.0,0.0,0.0,0.0,0.0,0.0,0.0,0.0,0.0,0.0,0.0,0.0,0.0,0.0,0.0,0.0,0.0,0.0,0.0,0.0,0.1572,0.5462,1.3753,1.9079,1.9136,1.3631,1.332,1.9719,2.0338,2.053,2.0826,2.0839,2.0839,2.0839,2.0839,2.0839,2.0839,2.0839,2.0839,2.0839,2.0839,2.0839,2.0839,2.0839,2.0839,2.0839,2.0839,2.0839,2.0839,2.0839,2.0839,2.0839,2.0839,2.0839,2.0839,2.0839,2.0839,2.0839,2.0839,2.1228,2.1696,2.1696,2.2118,2.2586,2.2586,2.2586,2.2586,2.2586,2.2586,2.2586,2.2586,2.2586,2.2586,2.2586,2.2586,2.2586,2.2586,2.2586,2.2586,2.2586,2.2586,2.2586,2.2586,2.2586,2.2586,2.2586,2.889,3.3537,3.3537,4.0065,4.4435,4.4435,4.4435,4.4435,4.4435,4.4435,4.4435,4.4435,4.4435,4.4435,4.4435,4.4435,4.4435,4.4435,4.4435,4.4435,4.4435,4.4435,4.4435,0.0,0.0,0.0,0.0,0.0,0.0,0.0,0.0,0.0,0.0,0.0,0.0,0.0,0.0,0.0,0.0,0.0,0.0,0.0,0.0,0.0,0.0,0.0,0.2468,0.8876,1.5374,1.8263,1.6257,1.424,1.4942,1.9539,2.0193,2.0444,2.0826,2.0839,2.0839,2.0839,2.0839,2.0839,2.0839,2.0839,2.0839,2.0839,2.0839,2.0839,2.0839,2.0839,2.0839,2.0839,2.0839,2.0839,2.0839,2.0839,2.0839,2.0839,2.0839,2.0839,2.0839,2.0839,2.0839,2.0853,2.0938,2.1301,2.1716,2.1802,2.2184,2.2586,2.2586,2.2586,2.2586,2.2586,2.2586,2.2586,2.2586,2.2586,2.2586,2.2586,2.2586,2.2586,2.2586,2.2586,2.2586,2.2586,2.2586,2.2586,2.2586,2.2586,2.2586,2.2586,2.6972,3.1082,3.3264,4.0065,4.4435,4.4435,4.4435,4.4435,4.4435,4.4435,4.4435,4.4435,4.4435,4.4435,4.4435,4.4435,4.4435,4.4435,4.4435,4.4435,4.4435,4.4435,4.4435,0.0,0.0,0.0,0.0,0.0,0.0,0.0,0.0,0.0,0.0,0.0,0.0,0.0,0.0,0.0,0.0,0.0,0.0,0.0,0.0,0.0,0.0,0.0,0.2463,0.8876,1.533,1.6529,1.0026,1.5307,1.9201,2.0081,2.0035,2.0253,2.082,2.0839,2.0839,2.0839,2.0839,2.0839,2.0839,2.0839,2.0839,2.0839,2.0839,2.0839,2.0839,2.0839,2.0839,2.0839,2.0839,2.0839,2.0839,2.0839,2.0839,2.0839,2.0839,2.0839,2.0839,2.0839,2.0839,2.0886,2.1182,2.1472,2.1756,2.2052,2.2349,2.2586,2.2586,2.2586,2.2586,2.2586,2.2586,2.2586,2.2586,2.2586,2.2586,2.2586,2.2586,2.2586,2.2586,2.2586,2.2586,2.2586,2.2586,2.2586,2.2586,2.2586,2.2586,2.2586,2.2586,2.5331,3.2717,4.0065,4.4435,4.4435,4.4435,4.4435,4.4435,4.4435,4.4435,4.4435,4.4435,4.4435,4.4435,4.4435,4.4435,4.4435,4.4435,4.4435,4.4435,4.4435,4.4435,0.0,0.0,0.0,0.0,0.0,0.0,0.0,0.0,0.0,0.0,0.0,0.0,0.0,0.0,0.0,0.0,0.0,0.0,0.0,0.0,0.0,0.0,0.0,0.4256,1.5085,1.7926,1.8186,1.6212,1.5265,1.6136,1.9449,1.9883,2.0154,2.0523,2.0734,2.0839,2.0839,2.0839,2.0839,2.0839,2.0839,2.0839,2.0839,2.0839,2.0839,2.0839,2.0839,2.0839,2.0839,2.0839,2.0839,2.0839,2.0839,2.0839,2.0839,2.0839,2.0839,2.0839,2.0839,2.0839,2.0886,2.1189,2.1472,2.1756,2.2052,2.2349,2.2586,2.2586,2.2586,2.2586,2.2586,2.2586,2.2586,2.2586,2.2586,2.2586,2.2586,2.2586,2.2586,2.2586,2.2586,2.2586,2.2586,2.2586,2.2586,2.2586,2.2586,2.2586,2.2586,2.2586,2.5331,3.2717,4.0065,4.4435,4.4435,4.4435,4.4435,4.4435,4.4435,4.4435,4.4435,4.4435,4.4435,4.4435,4.4435,4.4435,4.4435,4.4435,4.4435,4.4435,4.4435,4.4435,0.0,0.0,0.0,0.0,0.0,0.0,0.0,0.0,0.0,0.0,0.0,0.0,0.0,0.0,0.0,0.0,0.0,0.0,0.0,0.0,0.0,0.0,0.2238,0.7718,1.7874,1.8935,1.898,1.9106,1.6697,1.6563,1.9299,1.9831,2.0108,2.0385,2.0681,2.0839,2.0839,2.0839,2.0839,2.0839,2.0839,2.0839,2.0839,2.0839,2.0839,2.0839,2.0839,2.0839,2.0839,2.0839,2.0839,2.0839,2.0839,2.0839,2.0839,2.0839,2.0839,2.0839,2.0839,2.0839,2.0905,2.1307,2.1558,2.1776,2.2184,2.2441,2.2586,2.2586,2.2586,2.2586,2.2586,2.2586,2.2586,2.2586,2.2586,2.2586,2.2586,2.2586,2.2586,2.2586,2.2586,2.2586,2.2586,2.2586,2.2586,2.2586,2.2586,2.2586,2.2586,2.2586,2.5331,3.2717,3.7614,4.1432,4.4168,4.4435,4.4435,4.4435,4.4435,4.4435,4.4435,4.4435,4.4435,4.4435,4.4435,4.4435,4.4435,4.4435,4.4435,4.4435,4.4435,4.4435,0.0,0.0,0.0,0.0,0.0,0.0,0.0,0.0,0.0,0.0,0.0,0.0,0.0,0.0,0.0,0.0,0.0,0.0,0.0,0.0,0.0,0.0,0.5964,1.2326,1.79,1.8796,1.9106,1.9152,1.9112,1.9231,1.9554,1.9831,2.0101,2.0358,2.0675,2.0839,2.0839,2.0839,2.0839,2.0839,2.0839,2.0839,2.0839,2.0839,2.0839,2.0839,2.0839,2.0839,2.0839,2.0839,2.0839,2.0839,2.0839,2.0839,2.0839,2.0839,2.0839,2.0839,2.0839,2.0839,2.0932,2.1512,2.1696,2.1809,2.2408,2.2586,2.2586,2.2586,2.2586,2.2586,2.2586,2.2586,2.2586,2.2586,2.2586,2.2586,2.2586,2.2586,2.2586,2.2586,2.2586,2.2586,2.2586,2.2586,2.2586,2.2586,2.2586,2.2586,2.2586,2.2586,2.5331,3.2717,3.3537,3.6531,4.3889,4.4435,4.4435,4.4435,4.4435,4.4435,4.4435,4.4435,4.4435,4.4435,4.4435,4.4435,4.4435,4.4435,4.4435,4.4435,4.4435,4.4435,0.0,0.0,0.0,0.0,0.0,0.0,0.0,0.0,0.0,0.0,0.0,0.0,0.0,0.0,0.0,0.0,0.0,0.0,0.0,0.0,0.0,0.0,0.9859,1.728,1.8677,1.8921,1.9092,1.9106,1.9099,1.9125,1.9204,1.9699,2.0015,2.0081,2.0569,2.0839,2.0839,2.0839,2.0839,2.0839,2.0839,2.0839,2.0839,2.0839,2.0839,2.0839,2.0839,2.0839,2.0839,2.0839,2.0839,2.0839,2.0839,2.0839,2.0839,2.0839,2.0839,2.0839,2.0839,2.0839,2.0932,2.1512,2.1696,2.1809,2.2408,2.2586,2.2586,2.2586,2.2586,2.2586,2.2586,2.2586,2.2586,2.2586,2.2586,2.2586,2.2586,2.2586,2.2586,2.2586,2.2586,2.2586,2.2586,2.2586,2.2586,2.2586,2.2586,2.2586,2.2586,2.2586,2.5331,3.2717,3.3537,3.6531,4.3889,4.4435,4.4435,4.4435,4.4435,4.4435,4.4435,4.4435,4.4435,4.4435,4.4435,4.4435,4.4435,4.4435,4.4435,4.4435,4.4435,4.4435,0.5132,0.33,0.0,0.0,0.0,0.0,0.0,0.0,0.0,0.0,0.0,0.0,0.0,0.0,0.0,0.0,0.0,0.0,0.0,0.0,0.2101,0.7701,1.4596,1.8954,1.9148,1.902,1.9092,1.9092,1.9092,1.9092,1.9092,1.9659,1.9982,1.9982,2.0543,2.0839,2.0839,2.0839,2.0839,2.0839,2.0839,2.0839,2.0839,2.0839,2.0839,2.0839,2.0839,2.0839,2.0839,2.0839,2.0839,2.0839,2.0839,2.0839,2.0839,2.0839,2.0839,2.0839,2.0839,2.0925,2.1116,2.1558,2.1789,2.1987,2.2448,2.2586,2.2586,2.2586,2.2586,2.2586,2.2586,2.2586,2.2586,2.2586,2.2586,2.2586,2.2586,2.2586,2.2586,2.2586,2.2586,2.2586,2.2586,2.2586,2.2586,2.2586,2.2586,2.2586,2.2586,2.2586,2.5331,3.2717,3.3537,3.6531,4.3889,4.4435,4.4435,4.4435,4.4435,4.4435,4.4435,4.4435,4.4435,4.4435,4.4435,4.4435,4.4435,4.4435,4.4435,4.4435,4.4435,4.4591,1.1545,0.7024,0.0,0.0,0.0,0.0,0.0,0.0,0.0,0.0,0.0,0.0,0.0,0.0,0.0,0.0,0.0,0.0,0.0,0.1641,0.6784,1.7093,1.8498,1.8576,1.9007,1.9026,1.9046,1.9086,1.9092,1.9092,1.9092,1.9659,1.9982,1.9982,2.0543,2.0839,2.0839,2.0839,2.0839,2.0839,2.0839,2.0839,2.0839,2.0839,2.0839,2.0839,2.0839,2.0839,2.0839,2.0839,2.0839,2.0839,2.0839,2.0839,2.0839,2.0839,2.0839,2.0839,2.0839,2.1031,2.1327,2.1611,2.1901,2.2197,2.2494,2.2586,2.2586,2.2586,2.2586,2.2586,2.2586,2.2586,2.2586,2.2586,2.2586,2.2586,2.2586,2.2586,2.2586,2.2586,2.2586,2.2586,2.2586,2.2586,2.2586,2.2586,2.2586,2.2586,2.2586,2.2586,2.5331,3.2717,3.3537,3.6531,4.3889,4.4435,4.4435,4.4435,4.4435,4.4435,4.4435,4.4435,4.4435,4.4435,4.4435,4.4435,4.4435,4.4435,4.4435,4.4435,4.4435,4.4772,1.291,0.7094,0.0,0.0,0.0,0.0,0.0,0.0,0.0,0.0,0.0,0.0,0.0,0.0,0.0,0.0,0.0,0.0,0.0,0.9279,1.661,1.7821,1.8472,1.8703,1.8736,1.8743,1.8842,1.9073,1.9092,1.9092,1.9092,1.9659,1.9982,1.9982,2.0543,2.0839,2.0839,2.0839,2.0839,2.0839,2.0839,2.0839,2.0839,2.0839,2.0839,2.0839,2.0839,2.0839,2.0839,2.0839,2.0839,2.0839,2.0839,2.0839,2.0839,2.0839,2.0839,2.0839,2.0839,2.1031,2.1327,2.1611,2.1901,2.2197,2.2494,2.2586,2.2586,2.2586,2.2586,2.2586,2.2586,2.2586,2.2586,2.2586,2.2586,2.2586,2.2586,2.2586,2.2586,2.2586,2.2586,2.2586,2.2586,2.2586,2.2586,2.2586,2.2586,2.2586,2.2586,2.2586,2.5331,3.2717,3.3537,3.6531,4.3889,4.4435,4.4435,4.4435,4.4435,4.4435,4.4435,4.4435,4.4435,4.4435,4.4435,4.4435,4.4435,4.4435,4.4435,4.4435,4.4435,4.4772,1.2588,1.1133,0.7781,0.1624,0.0,0.0,0.0,0.0,0.0,0.0,0.0,0.0,0.0,0.0,0.0,0.0,0.0,0.2288,0.896,1.4794,1.8511,1.8433,1.8264,1.8446,1.9079,1.8862,1.8789,1.9073,1.9092,1.9092,1.9092,1.9659,1.9982,1.9982,2.0543,2.0839,2.0839,2.0839,2.0839,2.0839,2.0839,2.0839,2.0839,2.0839,2.0839,2.0839,2.0839,2.0839,2.0839,2.0839,2.0839,2.0839,2.0839,2.0839,2.0839,2.0839,2.0839,2.0839,2.0839,2.0925,2.1116,2.1558,2.2006,2.2408,2.2547,2.2586,2.2586,2.2586,2.2586,2.2586,2.2586,2.2586,2.2586,2.2586,2.2586,2.2586,2.2586,2.2586,2.2586,2.2586,2.2586,2.2586,2.2586,2.2586,2.2586,2.2586,2.2586,2.2586,2.2586,2.2586,2.5331,3.2717,3.3537,3.6531,4.3889,4.4435,4.4435,4.4435,4.4435,4.4435,4.4435,4.4435,4.4435,4.4435,4.4435,4.4435,4.4435,4.4435,4.4435,4.4435,4.4435,4.4772,1.2486,0.0,1.2884,0.4087,0.1823,0.2156,0.0,0.3719,0.2969,0.0524,0.0,0.0,0.0,0.0,0.0,0.0,0.1315,0.5446,1.4911,1.7088,1.8211,1.8842,1.8242,1.8169,1.9132,1.8835,1.869,1.8974,1.9053,1.9092,1.9092,1.9593,1.991,1.9982,2.047,2.0734,2.0734,2.0806,2.0839,2.0839,2.0839,2.0839,2.0839,2.0839,2.0839,2.0839,2.0839,2.0839,2.0839,2.0839,2.0839,2.0839,2.0839,2.0839,2.0839,2.0839,2.0839,2.0839,2.0839,2.0839,2.0932,2.1512,2.2099,2.2586,2.2586,2.2586,2.2586,2.2586,2.2586,2.2586,2.2586,2.2586,2.2586,2.2586,2.2586,2.2586,2.2586,2.2586,2.2586,2.2586,2.2586,2.2586,2.2586,2.2586,2.2586,2.2586,2.2586,2.2586,2.2586,2.2586,2.5331,3.2717,3.3537,3.6531,4.3889,4.4435,4.4435,4.4435,4.4435,4.4435,4.4435,4.4435,4.4435,4.4435,4.4435,4.4435,4.4435,4.4435,4.4435,4.4435,4.4435,4.4772,0.0,1.161,0.8325,0.7386,0.7273,0.8433,1.3383,1.4456,0.0,0.1921,0.0,0.0,0.0,0.0,0.0,0.0,0.5065,0.9126,0.9992,1.4626,1.8062,1.8295,1.7998,1.7932,1.8295,1.8288,1.8387,1.8684,1.8947,1.9092,1.9092,1.9396,1.9692,1.9976,2.0272,2.0424,2.0424,2.0701,2.0839,2.0839,2.0839,2.0839,2.0839,2.0839,2.0839,2.0839,2.0839,2.0839,2.0839,2.0839,2.0839,2.0839,2.0839,2.0839,2.0839,2.0839,2.0839,2.0839,2.0839,2.0839,2.0932,2.1512,2.2099,2.2586,2.2586,2.2586,2.2586,2.2586,2.2586,2.2586,2.2586,2.2586,2.2586,2.2586,2.2586,2.2586,2.2586,2.2586,2.2586,2.2586,2.2586,2.2586,2.2586,2.2586,2.2586,2.2586,2.2586,2.2586,2.2586,2.2586,2.5331,3.2717,3.3537,3.6531,4.3889,4.4435,4.4435,4.4435,4.4435,4.4435,4.4435,4.4435,4.4435,4.4435,4.4435,4.4435,4.4435,4.4435,4.4435,4.4435,4.4435,4.4772,1.5348,1.4567,1.3659,1.3367,1.33,1.3654,1.5237,1.5589,1.4516,1.0531,0.4582,0.0,0.0,0.0,0.0,0.0,0.4727,0.9973,1.406,1.6974,1.842,1.8301,1.782,1.7714,1.8189,1.807,1.8163,1.8644,1.8776,1.8908,1.9079,1.9376,1.9587,1.9699,1.9989,2.022,2.0391,2.0688,2.0839,2.0839,2.0839,2.0839,2.0839,2.0839,2.0839,2.0839,2.0839,2.0839,0.0,2.0839,2.0839,2.0839,2.0839,2.0839,2.0839,2.0839,2.0839,2.0839,2.0839,2.0839,2.0932,2.1512,2.1848,2.2099,2.2474,2.2586,2.2586,2.2586,2.2586,2.2586,2.2586,2.2586,2.2586,2.2586,2.2586,2.2586,2.2586,2.2586,2.2586,2.2586,2.2586,2.2586,2.2586,2.2586,2.2586,2.2586,2.2586,2.2586,2.2586,2.2586,2.5331,3.2717,3.3537,3.6531,4.3889,4.4435,4.4435,4.4435,4.4435,4.4435,4.4435,4.4435,4.4435,4.4435,4.4435,4.4435,4.4435,4.4435,4.4435,4.4435,4.4435,4.4565,1.5941,1.6383,1.6959,1.6579,1.647,1.6368,1.5896,1.565,1.5065,1.3402,0.7332,0.233,0.2208,0.2427,0.3086,0.4572,0.8209,1.2506,1.7347,1.8453,1.8732,1.844,1.7945,1.7767,1.8064,1.7912,1.7958,1.8367,1.8572,1.8763,1.8947,1.9237,1.9396,1.9396,1.9686,1.9976,2.0259,2.0549,2.0747,2.0839,2.0839,2.0839,2.0839,2.0839,2.0839,2.0839,2.0839,2.0839,2.0839,2.0839,2.0839,2.0839,2.0839,2.0839,2.0839,2.0839,2.0839,2.0839,2.0839,2.0839,2.0919,2.1406,2.1624,2.1789,2.229,2.2448,2.2448,2.2448,2.2514,2.2586,2.2586,2.2586,2.2586,2.2586,2.2586,2.2586,2.2586,2.2586,2.2586,2.2586,2.2586,2.2586,2.2586,2.2586,2.2586,2.2586,2.2586,2.2586,2.2586,2.3683,2.6703,3.2717,3.4628,3.7625,4.3902,4.4435,4.4435,4.4435,4.4435,4.4435,4.4435,4.4435,4.4435,4.4435,4.4435,4.4435,4.4435,4.4435,4.4435,4.4435,4.4435,4.4435,1.6323,1.6482,1.6488,1.6488,1.6284,1.6212,1.616,1.5862,1.4138,0.8855,0.7828,0.775,0.7198,0.7424,0.9497,1.4637,1.6633,1.7622,1.8448,1.8268,1.8347,1.8644,1.8413,1.811,1.7813,1.7787,1.7787,1.7794,1.8341,1.867,1.8677,1.8934,1.9086,1.9086,1.9376,1.9679,1.9976,2.0253,2.0543,2.0833,2.0839,2.0839,2.0839,2.0839,2.0839,2.0839,2.0839,2.0839,2.0839,2.0839,2.0839,2.0839,2.0839,2.0839,2.0839,2.0839,2.0839,2.0839,2.0839,2.0839,2.0886,2.1189,2.1472,2.1749,2.2046,2.2138,2.2138,2.2138,2.2349,2.258,2.258,2.258,2.2586,2.2586,2.2586,2.2586,2.2586,2.2586,2.2586,2.2586,2.2586,2.2586,2.2586,2.2586,2.2586,2.2586,2.2586,2.2586,2.2586,2.5871,2.9424,3.299,3.6813,4.0626,4.4168,4.4435,4.4435,4.4435,4.4435,4.4435,4.4435,4.4435,4.4435,4.4435,4.4435,4.4435,4.4435,4.4435,4.4435,4.4435,4.4435,4.4435,1.6093,1.6343,1.6488,1.6488,1.6284,1.606,1.6178,1.5798,1.5203,1.3512,1.3035,1.285,1.3033,1.3114,1.3878,1.6061,1.7194,1.7813,1.8202,1.8426,1.8499,1.838,1.8103,1.7813,1.7523,1.7497,1.7583,1.778,1.7958,1.8235,1.8657,1.8756,1.8802,1.8802,1.9277,1.9574,1.9666,2.0147,2.0437,2.053,2.0741,2.0839,2.0839,2.0839,2.0839,2.0839,2.0839,2.0839,2.0839,2.0839,2.0839,2.0839,2.0839,2.0839,2.0839,2.0839,2.0839,2.0839,2.0839,2.0839,2.0886,2.1189,2.134,2.142,2.1512,2.1677,2.1828,2.1828,2.1894,2.2006,2.2217,2.2428,2.2586,2.2586,2.2586,2.2586,2.2586,2.2586,2.2586,2.2586,2.2586,2.2586,2.2586,2.2586,2.2586,2.2586,2.2586,2.2586,2.2586,2.5871,2.9424,3.299,3.8976,4.3342,4.4435,4.4435,4.4435,4.4435,4.4435,4.4435,4.4435,4.4435,4.4435,4.4435,4.4435,4.4435,4.4435,4.4435,4.4435,4.4435,4.4435,4.4435,1.5994,1.6277,1.6515,1.6633,1.6449,1.6244,1.6244,1.6098,1.5711,1.5464,1.5196,1.5229,1.5414,1.5756,1.6198,1.6792,1.749,1.8031,1.8209,1.8387,1.8394,1.8097,1.7807,1.7556,1.7391,1.7378,1.7444,1.7616,1.7728,1.7952,1.8308,1.8328,1.8433,1.867,1.9013,1.9303,1.9527,1.9877,2.0167,2.0398,2.0576,2.0721,2.0839,2.0839,2.0839,2.0839,2.0839,2.0839,2.0839,2.0839,2.0839,2.0839,2.0839,2.0839,2.0839,2.0839,2.0839,2.0839,2.0839,2.0839,2.0866,2.1044,2.1103,2.1103,2.1103,2.1307,2.1532,2.1532,2.1611,2.1743,2.1921,2.2099,2.2263,2.2382,2.2408,2.2441,2.256,2.2586,2.2586,2.2586,2.2586,2.2586,2.2586,2.2586,2.2586,2.2586,2.2586,2.2586,2.2586,2.6972,3.1064,3.3264,4.0065,4.4435,4.4435,4.4435,4.4435,4.4435,4.4435,4.4435,4.4435,4.4435,4.4435,4.4435,4.4435,4.4435,4.4435,4.4435,4.4435,4.4435,4.4435,4.4435,1.5915,1.6198,1.6482,1.6778,1.6653,1.6455,1.6482,1.6277,1.5921,1.5381,1.548,1.5671,1.5671,1.6139,1.6712,1.7286,1.786,1.8235,1.8235,1.8235,1.8123,1.7827,1.7543,1.7378,1.7378,1.7378,1.7378,1.7378,1.7609,1.7754,1.7754,1.778,1.8044,1.8578,1.8651,1.8928,1.9455,1.9508,1.9798,2.0312,2.0371,2.0536,2.08,2.0826,2.0839,2.0839,2.0839,2.0839,2.0839,2.0839,2.0839,2.0839,2.0839,2.0839,2.0839,2.0839,2.0839,2.0839,2.0839,2.0839,2.0839,2.0839,2.0839,2.0839,2.0839,2.1024,2.1242,2.1242,2.1426,2.1624,2.165,2.1657,2.1736,2.2033,2.2099,2.2184,2.2481,2.2547,2.2553,2.258,2.2586,2.2586,2.2586,2.2586,2.2586,2.2586,2.2586,2.2586,2.2586,2.889,3.3537,3.3537,3.9796,4.4168,4.4435,4.4435,4.4435,4.4435,4.4435,4.4435,4.4435,4.4435,4.4435,4.4435,4.4435,4.4435,4.4435,4.4435,4.4435,4.4435,4.4435,4.4435,1.5295,1.5585,1.5882,1.6185,1.6211,1.6218,1.6442,1.6277,1.604,1.5915,1.5934,1.5981,1.5981,1.6449,1.6956,1.7319,1.786,1.8235,1.8235,1.8235,1.8123,1.7827,1.7543,1.7378,1.7378,1.7378,1.7378,1.7378,1.7431,1.7464,1.7464,1.7675,1.7853,1.7978,1.844,1.8736,1.8862,1.931,1.9593,1.9725,2.018,2.0431,2.0497,2.0734,2.0839,2.0839,2.0839,2.0839,2.0839,2.0839,2.0839,2.0839,2.0839,2.0839,2.0839,2.0839,2.0839,2.0839,2.0839,2.0839,2.0839,2.0839,2.0839,2.0839,2.0839,2.0886,2.0932,2.0932,2.0978,2.1077,2.1314,2.1373,2.1439,2.1723,2.1795,2.1874,2.2171,2.2237,2.2303,2.254,2.2586,2.2586,2.2586,2.2586,2.2586,2.2586,2.2586,2.2586,2.2586,2.889,3.3537,3.3537,3.7625,4.1444,4.4168,4.4435,4.4435,4.4435,4.4435,4.4435,4.4435,4.4435,4.4435,4.4435,4.4435,4.4435,4.4435,4.4435,4.4435,4.4435,4.4435,4.4435,1.511,1.54,1.5697,1.6,1.6178,1.631,1.6455,1.6488,1.6449,1.6304,1.6277,1.6317,1.6462,1.6844,1.7286,1.7714,1.8156,1.84,1.8255,1.8235,1.8077,1.7642,1.7464,1.7378,1.7378,1.7378,1.7378,1.7378,1.7378,1.7378,1.7378,1.7517,1.7655,1.7787,1.809,1.8387,1.8677,1.8974,1.9264,1.9541,1.9982,2.0266,2.0404,2.0701,2.0839,2.0839,2.0839,2.0839,2.0839,2.0839,2.0839,2.0839,2.0839,2.0839,2.0839,2.0839,2.0839,2.0839,2.0839,2.0839,2.0793,2.0516,2.0516,2.0602,2.047,2.0523,2.0628,2.0628,2.0628,2.0694,2.0991,2.107,2.1103,2.1248,2.1393,2.1545,2.1696,2.1835,2.1973,2.2132,2.2277,2.2375,2.2375,2.2488,2.2586,2.2586,2.2586,2.2586,2.2586,2.8729,3.3763,3.5381,3.9388,4.2528,4.4435,4.4435,4.4435,4.4435,4.4435,4.4435,4.4435,4.4435,4.4435,4.4435,4.4435,4.4435,4.4435,4.4435,4.4435,4.4435,4.4435,4.4435,1.5051,1.5328,1.5618,1.5928,1.6211,1.6416,1.6416,1.6646,1.6785,1.6541,1.6528,1.664,1.6884,1.7174,1.7583,1.8209,1.8519,1.8611,1.8413,1.8341,1.8097,1.7517,1.7405,1.7378,1.7378,1.7378,1.7378,1.7378,1.7378,1.7378,1.7378,1.7378,1.7477,1.7714,1.7721,1.7978,1.8519,1.8578,1.8868,1.9389,1.9686,1.9976,2.0259,2.0556,2.0714,2.076,2.076,2.076,2.076,2.076,2.0734,2.0688,2.0688,2.0688,2.0688,2.0688,2.0688,2.0688,2.0688,2.0688,2.0615,2.0134,2.0134,2.0279,2.0055,2.0141,2.0325,2.0325,2.0325,2.0378,2.0628,2.0688,2.0701,2.0747,2.0912,2.107,2.1116,2.1347,2.1578,2.1677,2.1894,2.2066,2.2066,2.227,2.2435,2.2435,2.2435,2.2706,2.3253,2.7882,3.2761,3.6766,4.0356,4.2785,4.4149,4.4136,4.4136,4.4136,4.4136,4.4136,4.4136,4.4136,4.4136,4.4136,4.424,4.424,4.4136,4.4344,4.4396,4.4292,4.4396,4.4435,1.482,1.5031,1.5315,1.5611,1.5908,1.6132,1.6132,1.635,1.6534,1.6495,1.6693,1.6884,1.6923,1.7174,1.7649,1.8486,1.8651,1.875,1.8947,1.8769,1.84,1.7807,1.7523,1.7378,1.7378,1.7378,1.7378,1.7378,1.7378,1.7378,1.7378,1.7378,1.7391,1.7431,1.7431,1.7589,1.7906,1.8163,1.8459,1.8796,1.9079,1.9363,1.9659,1.9956,2.0226,2.045,2.045,2.045,2.045,2.045,2.0312,2.0094,2.0094,2.0094,2.0094,2.0094,2.0094,2.0094,2.0094,2.0094,2.0088,2.0009,2.0009,2.0029,1.9996,2.0009,2.0042,2.0042,2.0042,2.0048,2.0088,2.0094,2.016,2.0398,2.0299,2.022,2.0457,2.0741,2.1097,2.1604,2.1729,2.1756,2.1756,2.1789,2.1815,2.1815,2.1815,2.288,2.5789,2.4435,2.5726,3.2328,3.3431,3.6369,4.2426,4.2967,4.2967,4.2967,4.2967,4.2967,4.2967,4.2967,4.2967,4.2967,4.3435,4.3448,4.2967,4.3954,4.4188,4.3708,4.4201,4.4435,1.4774,1.4972,1.5216,1.5341,1.573,1.608,1.608,1.629,1.6488,1.6488,1.6857,1.7128,1.6963,1.7576,1.8123,1.8176,1.8459,1.8604,1.8394,1.8255,1.8024,1.7609,1.7451,1.7378,1.7378,1.7378,1.7378,1.7378,1.7378,1.7378,1.7378,1.7378,1.7378,1.7378,1.7378,1.7431,1.7556,1.784,1.8136,1.8433,1.8723,1.9007,1.9297,1.9593,1.989,2.0167,2.0167,2.0167,2.0167,2.0167,2.0094,1.9982,1.9982,1.9982,1.9982,1.9982,1.9982,1.9982,1.9982,1.9765,1.9481,1.9481,1.9593,1.9699,1.9534,1.96,1.9732,1.9732,1.9732,1.9771,1.9936,1.9982,2.0015,2.0134,2.0075,2.0015,2.0141,2.0385,2.0661,2.0919,2.1235,2.1466,2.1466,2.1598,2.1696,2.1696,2.1696,2.2771,2.5367,2.468,2.6578,3.3426,3.4419,3.6624,4.1272,4.2084,4.2266,4.2266,4.2565,4.2591,4.2279,4.2266,4.211,4.1786,4.2019,4.2188,4.2266,4.2773,4.3045,4.3123,4.3695,4.3954,1.4774,1.4926,1.5077,1.5077,1.5466,1.5849,1.5849,1.6126,1.6383,1.6383,1.6792,1.7082,1.6857,1.7596,1.8136,1.784,1.8229,1.844,1.807,1.7952,1.78,1.7517,1.7418,1.7378,1.7378,1.7378,1.7378,1.7378,1.7378,1.7378,1.7378,1.7378,1.7378,1.7378,1.7378,1.7378,1.7378,1.7583,1.7833,1.8123,1.8347,1.8598,1.8881,1.9106,1.9369,1.9653,1.9653,1.9692,1.9758,1.9758,1.9758,1.9758,1.9758,1.9758,1.9758,1.9758,1.9758,1.9758,1.9758,1.9462,1.9092,1.9092,1.9237,1.9382,1.9158,1.9244,1.9422,1.9422,1.9422,1.9475,1.9699,1.9758,1.9771,1.9851,1.9811,1.9778,1.9851,2.0029,2.0174,2.0174,2.0595,2.0951,2.0951,2.1123,2.1261,2.1261,2.1261,2.1974,2.3511,2.4091,2.6458,3.2329,3.3875,3.6077,3.909,4.0489,4.124,4.124,4.163,4.1682,4.1266,4.124,4.1046,4.0604,4.0877,4.1175,4.1461,4.1747,4.2032,4.2318,4.2734,4.2928,1.4774,1.4781,1.4794,1.4794,1.5011,1.5229,1.5229,1.5677,1.6099,1.6099,1.633,1.6528,1.6515,1.6792,1.7187,1.7708,1.8057,1.8347,1.8598,1.8387,1.8103,1.7807,1.7536,1.7378,1.7378,1.7378,1.7378,1.7378,1.7378,1.7378,1.7378,1.7378,1.7378,1.7378,1.7378,1.7378,1.7378,1.7391,1.7536,1.7813,1.7827,1.7991,1.8281,1.8295,1.8466,1.8743,1.8743,1.8895,1.9132,1.9132,1.9132,1.9132,1.9132,1.9132,1.9132,1.9132,1.9132,1.9132,1.9132,1.9112,1.9092,1.9092,1.9099,1.9112,1.9092,1.9099,1.9112,1.9112,1.9112,1.9119,1.9132,1.9132,1.9204,1.9488,1.9343,1.9211,1.9495,1.9567,1.958,1.958,1.9837,2.0048,2.0048,2.0061,2.0075,2.0075,2.0075,2.0048,2.0236,2.0243,2.1711,2.5346,2.8251,3.1405,3.4797,3.7739,3.9461,3.9461,3.9487,3.9487,3.9461,3.9461,3.9448,3.941,4.0474,4.0786,4.0279,4.137,4.163,4.1124,4.1149,4.1162,1.4484,1.4484,1.4484,1.4484,1.4702,1.4919,1.4919,1.5222,1.5506,1.5506,1.6027,1.6436,1.6258,1.6765,1.722,1.724,1.7484,1.7721,1.7827,1.7747,1.7642,1.7536,1.7438,1.7378,1.7378,1.7378,1.7378,1.7378,1.7378,1.7378,1.7378,1.7378,1.7378,1.7378,1.7378,1.7378,1.7378,1.7378,1.7424,1.7523,1.7523,1.7675,1.7952,1.7952,1.811,1.8394,1.8394,1.8453,1.8539,1.8539,1.8539,1.8539,1.8539,1.8657,1.8829,1.8829,1.8941,1.904,1.867,1.8539,1.8539,1.8539,1.867,1.8829,1.8829,1.8947,1.9092,1.9092,1.9092,1.9092,1.9092,1.9092,1.9119,1.9224,1.9171,1.9119,1.9224,1.9396,1.9534,1.9534,1.9778,1.9982,1.9982,1.9982,1.9982,1.9982,1.9659,1.9409,1.9409,1.9409,2.0594,2.3897,2.5303,2.7881,3.3275,3.4995,3.6613,3.8554,3.9124,3.9163,3.8799,3.8786,3.8617,3.8254,3.8643,3.8942,3.9098,3.95,3.9786,3.9942,4.0318,4.0487,1.4154,1.4174,1.4174,1.4174,1.4405,1.4649,1.4748,1.4913,1.5071,1.5163,1.5644,1.5994,1.5809,1.6416,1.6871,1.6673,1.6884,1.7115,1.7213,1.7227,1.726,1.7365,1.7378,1.7378,1.7378,1.7378,1.7378,1.7378,1.7378,1.7378,1.7378,1.7378,1.7378,1.7378,1.7378,1.7378,1.7378,1.7378,1.7378,1.7378,1.7378,1.7471,1.7655,1.7655,1.7761,1.7945,1.7945,1.7998,1.8084,1.8084,1.815,1.8235,1.8235,1.8354,1.8532,1.8532,1.8644,1.875,1.8367,1.8235,1.8235,1.8235,1.8367,1.8532,1.8532,1.8657,1.8802,1.8802,1.8802,1.8829,1.8928,1.8954,1.8974,1.9073,1.9092,1.9092,1.9092,1.9244,1.9382,1.9382,1.9547,1.9686,1.9686,1.9686,1.9686,1.9686,1.9343,1.9092,1.9092,1.9092,1.9787,2.1882,2.3046,2.5363,2.9521,3.2115,3.441,3.6545,3.8077,3.8591,3.8215,3.8215,3.8033,3.7657,3.7838,3.8111,3.8488,3.8488,3.8682,3.9046,3.9254,3.8847,1.3779,1.3851,1.3851,1.3851,1.4075,1.4365,1.4669,1.4741,1.4827,1.511,1.5176,1.5183,1.5189,1.5671,1.6066,1.6066,1.6297,1.6581,1.6877,1.6923,1.7029,1.7326,1.7358,1.7358,1.7358,1.7358,1.7365,1.7378,1.7378,1.7378,1.7378,1.7378,1.7378,1.7378,1.7378,1.7378,1.7378,1.7378,1.7378,1.7378,1.7378,1.7378,1.7378,1.7378,1.7378,1.7378,1.7378,1.753,1.778,1.778,1.7952,1.8209,1.8209,1.8216,1.8222,1.8209,1.8209,1.8209,1.8209,1.8209,1.8209,1.8209,1.8216,1.8222,1.8222,1.8229,1.8235,1.8235,1.8235,1.8301,1.8591,1.8664,1.8736,1.9,1.9066,1.9066,1.9066,1.9073,1.9079,1.9079,1.9086,1.9092,1.9092,1.9092,1.9092,1.9092,1.9079,1.9066,1.9066,1.9066,1.9066,1.9066,2.1625,2.3482,2.3715,2.9251,3.2709,3.2937,3.596,3.7592,3.7592,3.7592,3.7592,3.7592,3.8137,3.841,3.841,3.841,3.8423,3.8423,3.7877,3.5985,1.3238,1.3258,1.3258,1.3258,1.3324,1.3462,1.3759,1.3983,1.4273,1.4781,1.5044,1.5196,1.5424,1.5545,1.5809,1.643,1.6484,1.6565,1.6832,1.6866,1.6759,1.7022,1.7055,1.7055,1.7055,1.7055,1.7141,1.7358,1.7378,1.7378,1.7378,1.7378,1.7378,1.7378,1.7378,1.7378,1.7378,1.7378,1.7378,1.7378,1.7378,1.7378,1.7378,1.7378,1.7378,1.7378,1.7378,1.7418,1.749,1.749,1.7536,1.7616,1.7616,1.7734,1.7892,1.7688,1.7616,1.7616,1.7616,1.7616,1.7616,1.7616,1.7747,1.7912,1.7912,1.8064,1.8235,1.8235,1.8235,1.8255,1.8341,1.8361,1.8374,1.8453,1.8473,1.8473,1.8473,1.8644,1.8789,1.8789,1.8954,1.9092,1.9092,1.9092,1.9092,1.9092,1.8736,1.8473,1.8473,1.8473,1.8473,1.8473,1.9144,2.0724,2.2975,2.4763,2.7435,3.1886,3.2779,3.4365,3.641,3.641,3.641,3.641,3.6566,3.6644,3.6644,3.6644,3.6851,3.7241,3.4793,3.3328,1.2665,1.275,1.2895,1.3146,1.3119,1.3166,1.3706,1.3667,1.3726,1.4438,1.4616,1.4721,1.5191,1.5288,1.5096,1.4143,1.3976,1.4601,1.6178,1.6499,1.6462,1.6719,1.6646,1.662,1.6732,1.6857,1.7002,1.7174,1.7306,1.7378,1.7378,1.7378,1.7378,1.7378,1.7378,1.7378,1.7378,1.7378,1.7378,1.7378,1.7378,1.7378,1.7378,1.7378,1.7378,1.7378,1.7378,1.7378,1.7378,1.7378,1.7378,1.7378,1.7378,1.7477,1.7596,1.7431,1.7378,1.7378,1.7378,1.7378,1.7378,1.7378,1.7484,1.7616,1.7616,1.7741,1.7873,1.7873,1.7873,1.7899,1.8018,1.8051,1.8084,1.8202,1.8235,1.8235,1.8235,1.8374,1.8492,1.8492,1.8624,1.873,1.873,1.873,1.873,1.873,1.8446,1.8235,1.8235,1.8235,1.8235,1.8235,1.8235,1.8905,2.0906,2.334,2.6198,2.9488,3.214,3.4139,3.5943,3.5943,3.5943,3.5943,3.5943,3.5943,3.5943,3.5943,3.6111,3.6423,3.4621,3.2536,1.2032,1.2223,1.2566,1.3093,1.3053,1.3093,0.0,1.3508,1.3212,1.4056,1.3996,1.397,1.457,1.488,1.4119,1.1343,1.0553,1.1472,1.549,1.6085,1.6093,1.6317,1.6159,1.6139,1.6416,1.6679,1.6851,1.6877,1.7154,1.7326,1.7326,1.7358,1.7378,1.7378,1.7378,1.7378,1.7378,1.7378,1.7378,1.7378,1.7378,1.7378,1.7378,1.7378,1.7378,1.7378,1.7378,1.7378,1.7378,1.7378,1.7378,1.7378,1.7378,1.7378,1.7378,1.7378,1.7378,1.7378,1.7378,1.7378,1.7378,1.7378,1.7378,1.7378,1.7378,1.7378,1.7378,1.7378,1.7378,1.7431,1.7682,1.7747,1.7813,1.8077,1.8136,1.8136,1.8136,1.8163,1.8183,1.8183,1.8209,1.8235,1.8235,1.8235,1.8216,1.815,1.8136,1.8136,1.8136,1.8136,1.8136,1.8136,1.8136,1.8136,1.8136,2.2992,2.6065,2.6495,3.1772,3.4864,3.5306,3.552,3.5748,3.5748,3.5748,3.5748,3.5748,3.5748,3.5774,3.5852,3.5181,3.2298,0.0,0.0,0.0,0.0,0.0,0.0,0.0,1.2632,1.2849,1.3502,1.3396,1.3377,1.3817,1.3791,1.3629,1.3921,1.0443,0.9628,1.4863,1.5353,1.5229,1.5433,1.5631,1.5869,1.6132,1.6211,1.6337,1.6554,1.6851,1.7016,1.7016,1.7246,1.7378,1.7378,1.7378,1.7378,1.7378,1.7378,1.7378,1.7378,1.7378,1.7378,1.7378,1.7378,1.7378,1.7378,1.7378,1.7378,1.7378,1.7378,1.7378,1.7378,1.7378,1.7378,1.7378,1.7378,1.7378,1.7378,1.7378,1.7378,1.7378,1.7378,1.7378,1.7378,1.7378,1.7378,1.7378,1.7378,1.7378,1.7391,1.7444,1.7457,1.7471,1.753,1.7543,1.7543,1.7543,1.7714,1.7879,1.7879,1.807,1.8235,1.8235,1.8235,1.8077,1.7616,1.7543,1.7543,1.7543,1.7543,1.7543,1.7543,1.7543,1.7543,1.7543,1.8606,2.0096,2.2435,2.5827,2.8796,3.1113,3.3245,3.4527,3.4527,3.4527,3.4527,3.4527,3.4527,3.4774,3.503,3.0251,3.0037,0.0,0.0,0.0,0.0,0.0,0.0,0.0,0.0,0.0,0.0,0.0,1.2777,1.3377,0.0,1.3624,1.3979,1.2259,1.2005,1.4678,1.5119,1.4638,1.3107,1.4195,1.5321,1.5618,1.5915,1.6145,1.6271,1.6548,1.6712,1.6712,1.6996,1.7154,1.7154,1.7299,1.7378,1.7378,1.7378,1.7378,1.7378,1.7378,1.7378,1.7378,1.7378,1.7378,1.7378,1.7378,1.7378,1.7378,1.7378,1.7378,1.7378,1.7378,1.7378,1.7378,1.7378,1.7378,1.7378,1.7378,1.7378,1.7378,1.7378,1.7378,1.7378,1.7378,1.7378,1.7378,1.7378,1.7378,1.7378,1.7378,1.7378,1.7378,1.7378,1.7378,1.7378,1.7378,1.7484,1.7583,1.7583,1.7701,1.7807,1.7807,1.7807,1.7708,1.7418,1.7378,1.7378,1.7378,1.7378,1.7424,1.7569,1.7714,1.7741,1.7596,1.7721,1.8971,2.1399,2.4321,2.7041,2.9761,3.1692,3.3124,3.4631,3.4631,3.4631,3.4631,3.4319,3.4332,3.441,2.8413,2.6745,0.0,0.0,0.0,0.0,0.0,0.0,0.0,0.0,0.0,0.0,0.0,0.0,0.0,0.0,0.0,1.3322,1.4103,1.4617,1.4331,1.4858,1.4201,1.1658,1.3396,1.4956,1.511,1.5559,1.5869,1.5901,1.6159,1.6343,1.6403,1.6686,1.6844,1.6844,1.7075,1.7207,1.7207,1.726,1.7293,1.7293,1.7345,0.0,1.7378,1.7378,1.7378,1.7378,1.7378,1.7378,1.7378,1.7378,1.7378,1.7378,1.7378,1.7378,1.7378,1.7378,1.7378,1.7378,1.7378,1.7378,1.7378,1.7378,1.7378,1.7378,1.7378,1.7378,0.0,1.7378,1.7378,1.7378,1.7378,1.7378,1.7378,1.7378,1.7378,1.7378,1.7378,1.7378,1.7378,1.7378,1.7378,1.7378,1.7378,1.7378,1.7391,1.7451,1.7411,1.7398,1.7451,1.7411,1.7464,1.7688,1.7925,1.7972,1.7734,1.8084,1.893,2.0586,2.3691,2.6796,3.0402,3.1359,3.2884,3.5198,3.5189,3.4969,3.4735,3.4254,3.3804,3.3166,2.8379,2.5116,0.0,0.0,0.0,0.0,0.0,0.0,0.0,0.0,0.0,0.0,0.0,0.0,0.0,0.0,0.0,0.0,1.3581,1.3751,1.4286,1.4079,1.3965,1.3889,1.4306,1.4473,1.482,1.488,1.5025,1.5269,1.5559,1.5842,1.6106,1.6389,0.0,0.0,0.0,1.6587,1.6587,1.6851,1.6983,1.6983,1.7246,1.7378,1.7378,1.7378,1.7378,1.7378,1.7378,1.7378,1.7378,1.7378,1.7378,1.7378,1.7378,1.7378,1.7378,1.7378,1.7378,1.7378,1.7378,0.0,0.0,1.7378,1.7378,1.7378,1.7378,1.7378,1.7378,1.7378,1.7378,1.7378,1.7378,1.7378,1.7378,1.7378,1.7378,1.7378,1.7378,1.7378,1.7378,1.7378,1.7378,1.7378,1.7378,1.7378,1.7457,1.7708,1.7536,1.7464,1.7714,1.753,1.7385,1.7418,1.7451,0.0,1.7424,1.8163,1.8268,1.7849,2.1184,2.5933,3.2187,3.4275,3.5856,3.6579,3.5592,3.4566,3.3527,3.3462,3.2193,2.9723,2.9272,2.8878,0.0,0.0,0.0,0.0,0.0,0.0,0.0,0.0,0.0,0.0,0.0,0.0,0.0,0.0,0.0,0.0,1.3328,1.3729,1.3759,1.3654,1.3732,1.4049,1.3997,1.4183,1.4517,1.4466,1.464,1.4952,1.5209,1.542,1.5552,1.5829,1.6066,1.6244,1.6403,1.6488,1.6488,1.6614,1.6673,1.6673,1.6798,1.6857,1.6857,1.6857,1.6857,1.6857,1.6857,1.6956,1.7115,1.7115,1.722,1.7339,0.0,0.0,0.0,0.0,1.6857,1.6857,1.6857,1.6857,1.6857,1.6857,1.6857,1.6857,1.6857,1.6857,1.6897,1.7068,1.7115,1.7154,1.7332,1.7378,1.7378,1.7378,1.7378,1.7378,1.7378,1.7378,1.7378,1.7378,1.7378,0.0,1.7378,1.7378,1.7411,1.753,1.7451,1.7418,1.7536,1.7451,1.7438,1.7602,1.7774,1.7807,1.7629,1.811,0.0,0.0,0.0,2.0968,2.3564,2.6177,0.0,0.0,0.0,3.2459,3.2218,3.337,0.0,0.0,2.3615,2.2763,0.0,0.0,0.0,0.0,0.0,0.0,0.0,0.0,0.0,0.0,0.0,0.0,0.0,0.0,0.0,0.0,1.2469,1.3437,1.3142,1.3288,1.3344,1.362,1.3592,1.3772,1.4095,1.4196,1.4434,1.4662,1.4833,1.5018,1.5176,1.5315,1.5526,1.5822,1.6027,1.6132,1.6132,1.629,1.6376,1.6376,1.6449,1.6488,1.6488,1.6488,1.6488,1.6488,1.6488,1.6614,1.6811,1.6811,1.6937,1.7068,1.6482,1.6251,1.6251,1.6251,1.6251,1.6251,1.6251,1.6356,1.6475,1.6396,1.6429,1.6488,1.6488,1.6488,1.6534,1.6745,1.6811,1.6857,1.7075,1.7194,1.7253,1.7253,1.7319,1.7378,1.7378,1.7378,1.7378,1.7378,1.7312,1.7253,1.7253,1.7253,1.7279,1.7358,1.7233,1.7194,1.7352,1.7306,1.7365,1.7649,1.7873,1.7912,1.7695,1.8097,1.8077,1.7418,1.816,1.8564,1.8312,2.1373,2.3987,2.595,2.8974,3.0463,0.0,0.0,0.0,0.0,0.0,0.0,0.0,0.0,0.0,0.0,0.0,0.0,0.0,0.0,0.0,0.0,0.0,0.0,0.0,0.0,0.0,0.0,0.0,0.0,1.2978,1.2848,1.2935,1.3215,1.333,1.3495,1.3495,1.3752,1.4036,1.4319,1.4352,1.4596,1.515,1.4939,1.4926,1.5203,1.5222,1.5222,1.5222,1.5796,1.6093,1.6093,1.6363,1.6488,1.6488,1.6488,1.6488,1.6488,1.6488,1.6495,1.6501,1.6501,1.6508,1.6455,1.5875,1.5658,1.5658,1.5658,1.5658,1.5658,1.5658,1.602,1.6442,1.6178,1.6271,1.6488,1.6488,1.6488,1.6488,1.6495,1.6501,1.6501,1.6515,1.6732,1.6943,1.6943,1.7167,1.7378,1.7378,1.7378,1.7378,1.7378,1.7141,1.6943,1.6943,1.6943,1.7042,1.7332,1.6884,0.0,1.7299,1.7121,1.7055,1.7352,1.7398,1.7398,1.7391,1.8169,1.8295,1.7431,2.0285,2.1928,2.1102,2.5095,2.7039,2.6623,2.85,2.9256,2.8344,0.0,0.0,0.0,0.0,0.0,0.0,0.0,0.0,0.0,0.0,0.0,0.0,0.0,0.0,0.0,0.0,0.0,0.0,0.0,0.0,0.0,0.0,0.0,0.0,1.2765,1.3155,1.312,1.3205,1.3396,1.3218,1.3607,1.3765,1.3482,1.3818,1.4115,1.4306,1.4227,1.4405,1.4893,1.5091,1.5097,1.4913,1.5295,1.5394,1.5216,1.5308,1.5447,1.5625,1.5625,1.573,1.5908,1.571,1.5737,1.5901,1.5704,1.5519,1.5335,1.5137,1.5058,1.5058,1.5058,1.5058,1.5058,1.5058,1.5189,1.5335,1.5242,1.5275,1.5354,1.5354,1.5354,1.5433,1.5809,1.5915,1.6007,1.6389,1.6561,1.664,1.664,1.6712,1.6785,1.6785,1.6785,1.6785,1.6785,1.6574,1.6501,1.6871,1.662,1.6594,1.7273,1.6871,1.6561,1.6759,1.6871,1.697,1.7068,1.726,1.7378,1.7378,1.7464,1.7391,1.7101,1.7906,1.8387,1.8065,1.9286,1.9844,1.9726,1.9967,2.1076,2.2669,0.0,0.0,0.0,0.0,0.0,0.0,0.0,0.0,0.0,0.0,0.0,0.0,0.0,0.0,0.0,0.0,0.0,0.0,0.0,0.0,0.0,0.0,0.0,0.0,0.0,0.0,1.2822,1.2244,0.0,1.2928,1.3324,1.3436,1.3067,1.337,1.3667,1.3871,1.3785,1.3957,1.4438,1.4629,1.4636,1.4458,1.4735,1.484,1.4774,1.4873,1.4959,1.5038,1.5137,1.5236,1.5315,1.5222,1.5236,1.5282,1.4781,1.4464,1.4293,1.4187,1.4148,1.4161,1.4267,1.4306,1.4339,1.4543,1.4543,1.4491,1.4702,1.4774,1.4754,1.4649,1.4616,1.4695,1.4891,1.4995,1.5321,1.5921,1.6352,1.6432,1.6432,1.6585,1.6501,1.6592,1.6652,1.599,1.3761,1.4843,1.6152,1.6619,1.6277,1.6251,1.6686,1.6323,1.6115,1.6192,1.6442,1.6666,1.6765,1.6943,1.7055,1.7055,1.6884,1.6772,1.6772,1.6501,1.629,1.6185,1.5908,1.5664,1.5453,1.6191,1.7318,0.0,0.0,0.0,0.0,0.0,0.0,0.0,0.0,0.0,0.0,0.0,0.0,0.0,0.0,0.0,0.0,0.0,0.0,0.0,0.0,0.0,0.0,0.0,0.0,0.0,0.0,0.0,1.2301,1.0511,0.0,0.0,0.0,0.0,1.3142,1.3115,1.3185,1.3746,1.3541,1.3535,1.3825,1.3864,1.3871,1.3858,1.4154,1.4431,1.4688,1.4965,1.4965,1.4741,1.5018,1.5005,1.4787,1.5031,1.4992,1.4682,1.3825,1.3469,1.3436,1.3139,1.3027,1.3053,1.3324,1.3423,1.3502,1.4069,1.4075,1.3937,1.453,1.4715,1.4655,1.4372,1.4286,0.0,0.0,1.3997,1.4324,1.5291,1.6047,1.646,1.6259,1.6112,1.6232,1.6318,1.6304,1.4757,0.9171,1.1999,1.5524,1.6038,0.0,1.5981,1.5691,1.5501,1.5566,1.5451,1.5869,1.6159,1.6436,1.6482,1.6488,1.6488,1.6462,1.6449,1.6468,1.6178,1.5888,1.5618,1.5308,1.4873,1.4319,1.6731,0.0,0.0,0.0,0.0,0.0,0.0,0.0,0.0,0.0,0.0,0.0,0.0,0.0,0.0,0.0,0.0,0.0,0.0,0.0,0.0,0.0,0.0,0.0,0.0,0.0,0.0,0.852,1.1909,1.2291,1.1829,1.166,0.0,0.0,0.0,0.0,0.0,0.0,1.2593,1.2922,1.3072,1.3231,1.366,1.3779,1.3574,1.3851,1.3818,1.3475,1.3765,1.3976,1.4115,1.4412,1.4629,1.4768,1.4609,1.4504,1.4392,1.3739,1.3469,1.3436,1.3139,1.3027,1.3007,1.2862,1.281,1.2862,1.3231,1.3311,1.3337,1.3917,1.397,1.3785,1.3713,0.0,0.0,0.0,0.0,1.1593,1.4077,1.5062,1.4715,1.1928,1.14,1.1388,1.0205,1.3124,1.5157,1.3096,1.1917,1.2207,1.5167,1.5354,0.0,1.5875,1.5658,1.5203,1.5308,1.5559,1.5855,1.6152,1.6363,1.6488,1.6488,1.6093,1.5941,1.6172,1.5506,1.5163,1.5295,1.4814,1.4372,1.4003,0.0,0.0,0.0,0.0,0.0,0.0,0.0,0.0,0.0,0.0,0.0,0.0,0.0,0.0,0.0,0.0,0.0,0.0,0.0,0.0,0.0,0.0,0.0,0.0,0.0,0.0,0.0,0.8333,1.041,1.0787,0.9137,0.8141,0.0,0.0,0.0,0.0,0.0,0.0,0.0,0.0,0.0,1.2731,1.291,1.3126,1.2895,1.3172,1.3284,1.3225,1.3508,1.3667,1.3706,1.3871,1.397,1.4003,1.397,1.3878,1.3719,1.3271,1.2928,1.2671,0.0,0.0,0.0,0.0,1.2203,1.2249,1.2546,1.2814,1.3018,1.3221,0.0,0.0,0.0,0.0,0.0,0.0,0.0,0.6001,0.7638,1.0871,1.3288,1.1714,1.1501,1.1076,0.9126,1.1838,1.4813,1.4949,1.3086,1.2417,1.4843,1.497,0.0,0.0,0.0,1.5275,1.486,1.5077,1.5427,1.5836,1.5901,1.5915,1.5915,1.5737,1.5592,1.5513,1.5157,1.4913,1.4814,1.4372,1.3878,0.0,0.0,0.0,0.0,0.0,0.0,0.0,0.0,0.0,0.0,0.0,0.0,0.0,0.0,0.0,0.0,0.0,0.0,0.0,0.0,0.0,0.0,0.0,0.0,0.0,0.0,0.0,0.0,0.0,0.6427,0.8409,0.0,0.0,0.0,0.0,0.0,0.0,0.0,0.0,0.0,0.0,0.0,0.0,0.0,1.2236,1.2302,1.2507,1.277,1.3245,1.3555,1.3568,1.3304,1.3377,1.3291,1.3086,1.3113,0.0,1.3153,1.2568,0.0,0.0,0.0,0.0,0.0,0.0,0.0,0.0,0.0,0.0,0.0,0.0,0.0,0.0,0.0,0.0,0.0,0.0,0.0,0.0,0.0,0.0,1.2723,1.3554,1.376,1.2962,1.021,1.1834,1.4085,1.4329,1.3644,1.3086,0.0,0.0,0.0,0.0,0.0,0.0,1.3832,1.4557,1.5157,1.5519,1.5315,1.5143,1.5183,1.5348,1.5262,1.4801,1.4959,1.4833,1.4293,1.4016,0.0,0.0,0.0,0.0,0.0,0.0,0.0,0.0,0.0,0.0,0.0,0.0,0.0,0.0,0.0,0.0,0.0,0.0,0.0,0.0,0.0,0.0,0.0,0.0,0.0,0.0,0.0,0.0,0.0,0.0,0.0,0.0,0.0,0.0,0.0,0.0,0.0,0.0,0.0,0.0,0.0,0.0,0.0,0.0,0.0,0.0,0.0,0.0,0.0,0.0,1.2552,1.2665,1.2414,1.2889,1.3212,1.3317,1.1926,1.2163,1.3421,1.1295,0.0,0.0,0.0,0.0,0.0,0.0,0.0,0.0,0.0,0.0,0.0,0.0,0.0,0.0,0.0,0.0,0.0,0.0,0.0,0.0,0.0,0.0,1.3538,1.3731,1.3791,1.2684,0.8376,0.0,0.0,0.0,0.0,0.0,0.0,0.0,0.0,0.0,0.0,0.0,1.0481,1.3206,1.5456,1.5457,1.5244,1.4959,1.5163,1.4794,1.4616,1.4761,1.459,1.4319,0.0,0.0,0.0,0.0,0.0,0.0,0.0,0.0,0.0,0.0,0.0,0.0,0.0,0.0,0.0,0.0,0.0,0.0,0.0,0.0,0.0,0.0,0.0,0.0,0.0,0.0,0.0,0.0,0.0,0.0,0.0,0.0,0.0,0.0,0.0,0.0,0.0,0.0,0.0,0.0,0.0,0.0,0.0,0.0,0.0,0.0,0.0,0.0,0.0,0.0,0.0,0.0,0.0,0.0,0.0,0.0,0.0,0.0,1.2542,1.1909,0.0,0.0,0.0,0.0,0.0,0.0,0.0,0.0,0.0,0.0,0.0,0.0,0.0,0.0,0.0,0.0,0.0,0.0,0.0,0.0,0.0,0.0,0.0,0.0,0.0,0.0,0.0,0.0,0.0,0.0,0.0,0.0,0.0,0.0,0.0,0.0,0.0,0.0,0.0,0.0,1.182,1.1333,1.2211,1.4939,1.4924,1.4609,1.4728,1.4484,1.4392,1.4537,1.426,0.0,0.0,0.0,0.0,0.0,0.0,0.0,0.0,0.0,0.0,0.0,0.0,0.0,0.0,0.0,0.0,0.0,0.0,0.0,0.0,0.0,0.0,0.0,0.0,0.0,0.0,0.0,0.0,0.0,0.0,0.0,0.0,0.0,0.0,0.0,0.0,0.0,0.0,0.0,0.0,0.0,0.0,0.0,0.0,0.0,0.0,0.0,0.0,0.0,0.0,0.0,0.0,0.0,0.0,0.0,0.0,0.0,0.0,0.0,1.23,1.0944,0.0,0.0,0.0,0.0,0.0,0.0,0.0,0.0,0.0,0.0,0.0,0.0,0.0,0.0,0.0,0.0,0.0,0.0,0.0,0.0,0.0,0.0,0.0,0.0,0.0,0.0,0.0,0.0,0.0,0.0,0.0,0.0,0.0,0.0,0.0,0.0,0.0,0.0,0.0,0.0,1.0758,0.949,1.0157,1.4363,1.4332,1.4201,1.4319,1.4273,1.4234,1.4234,1.4009,0.0,0.0,0.0,0.0,0.0,0.0,0.0,0.0,0.0,0.0,0.0,0.0,0.0,0.0,0.0,0.0,0.0,0.0,0.0,0.0,0.0,0.0,0.0,0.0,0.0,0.0,0.0,0.0,0.0,0.0,0.0,0.0,0.0,0.0,0.0,0.0,0.0,0.0,0.0,0.0,0.0,0.0,0.0,0.0,0.0,0.0,0.0,0.0,0.0,0.0,0.0,0.0,0.0,0.0,0.0,0.0,0.0,0.0,0.0,0.0,0.0,0.0,0.0,0.0,0.0,0.0,0.0,0.0,0.0,0.0,0.0,0.0,0.0,0.0,0.0,0.0,0.0,0.0,0.0,0.0,0.0,0.0,0.0,0.0,0.0,0.0,0.0,0.0,0.0,0.0,0.0,0.0,0.0,0.0,0.0,0.0,0.0,0.0,0.0,0.0,0.0,0.123,0.8159,1.3576,1.4744,1.3949,1.3608,1.4286,1.4082,1.3924,1.3924,0.0,0.0,0.0,0.0,0.0,0.0,0.0,0.0,0.0,0.0,0.0,0.0,0.0,0.0,0.0,0.0,0.0,0.0,0.0,0.0,0.0,0.0,0.0,0.0,0.0,0.0,0.0,0.0,0.0,0.0,0.0,0.0,0.0,0.0,0.0,0.0,0.0,0.0,0.0,0.0,0.0,0.0,0.0,0.0,0.0,0.0,0.0,0.0,0.0,0.0,0.0,0.0,0.0,0.0,0.0,0.0,0.0,0.0,0.0,0.0,0.0,0.0,0.0,0.0,0.0,0.0,0.0,0.0,0.0,0.0,0.0,0.0,0.0,0.0,0.0,0.0,0.0,0.0,0.0,0.0,0.0,0.0,0.0,0.0,0.0,0.0,0.0,0.0,0.0,0.0,0.0,0.0,0.0,0.0,0.0,0.0,0.0,0.0,0.0,0.0,0.0,0.0,0.7642,1.1568,1.3816,1.3726,1.3436,1.3396,1.3621,1.3541,1.3363,1.3363,0.0,0.0,0.0,0.0,0.0,0.0,0.0,0.0,0.0,0.0,0.0,0.0,0.0,0.0,0.0,0.0,0.0,0.0,0.0,0.0,0.0,0.0,0.0,0.0,0.0,0.0,0.0,0.0,0.0,0.0,0.0,0.0,0.0,0.0,0.0,0.0,0.0,0.0,0.0,0.0,0.0,0.0,0.0,0.0,0.0,0.0,0.0,0.0,0.0,0.0,0.0,0.0,0.0,0.0,0.0,0.0,0.0,0.0,0.0,0.0,0.0,0.0,0.0,0.0,0.0,0.0,0.0,0.0,0.0,0.0,0.0,0.0,0.0,0.0,0.0,0.0,0.0,0.0,0.0,0.0,0.0,0.0,0.0,0.0,0.0,0.0,0.0,0.0,0.0,0.0,0.0,0.0,0.0,0.0,0.0,0.0,0.0,0.0,0.0,0.0,0.0,0.0,0.885,1.19,1.3263,1.333,1.2096,1.1897,1.3178,1.3245,1.3093,1.2908,0.0,0.0,0.0,0.0,0.0,0.0,0.0,0.0,0.0,0.0,0.0,0.0,0.0,0.0,0.0,0.0,0.0,0.0,0.0,0.0,0.0,0.0,0.0,0.0,0.0,0.0,0.0,0.0,0.0,0.0,0.0,0.0,0.0,0.0,0.0,0.0,0.0,0.0,0.0,0.0,0.0,0.0,0.0,0.0,0.0,0.0,0.0,0.0,0.0,0.0,0.0,0.0,0.0,0.0,0.0,0.0,0.0,0.0,0.0,0.0,0.0,0.0,0.0,0.0,0.0,0.0,0.0,0.0,0.0,0.0,0.0,0.0,0.0,0.0,0.0,0.0,0.0,0.0,0.0,0.0,0.0,0.0,0.0,0.0,0.0,0.0,0.0,0.0,0.0,0.0,0.0,0.0,0.0,0.0,0.0,0.0,0.0,0.0,0.0,0.0,0.0,0.0,0.0142,0.7271,1.2717,1.3731,0.9804,0.8744,1.2872,1.3502,1.3408,0.0,0.0,0.0,0.0,0.0,0.0,0.0,0.0,0.0,0.0,0.0,0.0,0.0,0.0,0.0,0.0,0.0,0.0,0.0,0.0,0.0,0.0,0.0,0.0,0.0,0.0,0.0,0.0,0.0,0.0,0.0,0.0,0.0,0.0,0.0,0.0,0.0,0.0,0.0,0.0,0.0,0.0,0.0,0.0,0.0,0.0,0.0,0.0,0.0,0.0,0.0,0.0,0.0,0.0,0.0,0.0,0.0,0.0,0.0,0.0,0.0,0.0,0.0,0.0,0.0,0.0,0.0,0.0,0.0,0.0,0.0,0.0,0.0,0.0,0.0,0.0,0.0,0.0,0.0,0.0,0.0,0.0,0.0,0.0,0.0,0.0,0.0,0.0,0.0,0.0,0.0,0.0,0.0,0.0,0.0,0.0,0.0,0.0,0.0,0.0,0.0,0.0,0.0,0.0,0.2284,0.3984,0.4273,0.8114,1.1105,1.2499,1.2889,1.2741,1.1635,0.0,0.0,0.0,0.0,0.0,0.0,0.0,0.0,0.0,0.0,0.0,0.0,0.0,0.0,0.0,0.0,0.0,0.0,0.0,0.0,0.0,0.0,0.0,0.0,0.0,0.0,0.0,0.0,0.0,0.0,0.0,0.0,0.0,0.0,0.0,0.0,0.0,0.0,0.0,0.0,0.0,0.0,0.0,0.0,0.0,0.0,0.0,0.0,0.0,0.0,0.0,0.0,0.0,0.0,0.0,0.0,0.0,0.0,0.0,0.0,0.0,0.0,0.0,0.0,0.0,0.0,0.0,0.0,0.0,0.0,0.0,0.0,0.0,0.0,0.0,0.0,0.0,0.0,0.0,0.0,0.0,0.0,0.0,0.0,0.0,0.0,0.0,0.0,0.0,0.0,0.0,0.0,0.0,0.0,0.0,0.0,0.0,0.0,0.0,0.0,0.0,0.0,0.0,0.0,0.0,0.0,0.4549,0.8913,1.1912,1.2863,1.2601,1.1247,0.0,0.0,0.0,0.0,0.0,0.0,0.0,0.0,0.0,0.0,0.0,0.0,0.0,0.0,0.0,0.0,0.0,0.0,0.0,0.0,0.0,0.0,0.0,0.0,0.0,0.0,0.0,0.0,0.0,0.0,0.0,0.0,0.0,0.0,0.0,0.0,0.0,0.0,0.0,0.0,0.0,0.0,0.0,0.0,0.0,0.0,0.0,0.0,0.0,0.0,0.0,0.0,0.0,0.0,0.0,0.0,0.0,0.0,0.0,0.0,0.0,0.0,0.0,0.0,0.0,0.0,0.0,0.0,0.0,0.0,0.0,0.0,0.0,0.0,0.0,0.0,0.0,0.0,0.0,0.0,0.0,0.0,0.0,0.0,0.0,0.0,0.0,0.0,0.0,0.0,0.0,0.0,0.0,0.0,0.0,0.0,0.0,0.0,0.0,0.0,0.0,0.0,0.0,0.0,0.0,0.0,0.0,0.3041,1.0679,1.2745,1.2958,1.1275,1.048,0.0,0.0,0.0,0.0,0.0,0.0,0.0,0.0,0.0,0.0,0.0,0.0,0.0,0.0,0.0,0.0,0.0,0.0,0.0,0.0,0.0,0.0,0.0,0.0,0.0,0.0,0.0,0.0,0.0,0.0,0.0,0.0,0.0,0.0,0.0,0.0,0.0,0.0,0.0,0.0,0.0,0.0,0.0,0.0,0.0,0.0,0.0,0.0,0.0,0.0,0.0,0.0,0.0,0.0,0.0,0.0,0.0,0.0,0.0,0.0,0.0,0.0,0.0,0.0,0.0,0.0,0.0,0.0,0.0,0.0,0.0,0.0,0.0,0.0,0.0,0.0,0.0,0.0,0.0,0.0,0.0,0.0,0.0,0.0,0.0,0.0,0.0,0.0,0.0,0.0,0.0,0.0,0.0,0.0,0.0,0.0,0.0,0.0,0.0,0.0,0.0,0.0,0.0,0.0,0.0,0.0,0.0733,0.267,0.8792,1.2122,1.0724,0.76,0.0,0.0,0.0,0.0,0.0,0.0,0.0,0.0,0.0,0.0,0.0,0.0,0.0,0.0,0.0,0.0,0.0,0.0,0.0,0.0,0.0,0.0,0.0,0.0,0.0,0.0,0.0,0.0,0.0,0.0,0.0,0.0,0.0,0.0,0.0,0.0,0.0,0.0,0.0,0.0,0.0,0.0,0.0,0.0,0.0,0.0,0.0,0.0,0.0,0.0,0.0,0.0,0.0,0.0,0.0,0.0,0.0,0.0,0.0,0.0,0.0,0.0,0.0,0.0,0.0,0.0,0.0,0.0,0.0,0.0,0.0,0.0,0.0,0.0,0.0,0.0,0.0,0.0,0.0,0.0,0.0,0.0,0.0,0.0,0.0,0.0,0.0,0.0,0.0,0.0,0.0,0.0,0.0,0.0,0.0,0.0,0.0,0.0,0.0,0.0,0.0,0.0,0.0,0.0,0.0,0.0,0.0,0.0,0.4038,0.6304,0.5776,0.3514,0.0,0.0,0.0,0.0,0.0,0.0,0.0,0.0,0.0,0.0,0.0,0.0,0.0,0.0,0.0,0.0,0.0,0.0,0.0,0.0,0.0,0.0,0.0,0.0,0.0,0.0,0.0,0.0,0.0,0.0,0.0,0.0,0.0,0.0,0.0,0.0,0.0,0.0,0.0,0.0,0.0,0.0,0.0,0.0,0.0,0.0,0.0,0.0,0.0,0.0,0.0,0.0,0.0,0.0,0.0,0.0,0.0,0.0,0.0,0.0,0.0,0.0,0.0,0.0,0.0,0.0,0.0,0.0,0.0,0.0,0.0,0.0,0.0,0.0,0.0,0.0,0.0,0.0,0.0,0.0,0.0,0.0,0.0,0.0,0.0,0.0,0.0,0.0,0.0,0.0,0.0,0.0,0.0,0.0,0.0,0.0,0.0,0.0,0.0,0.0,0.0,0.0,0.0,0.0,0.0,0.0,0.0,0.0,0.0,0.0,0.0,0.0,0.0,0.0,0.0,0.0,0.0,0.0,0.0,0.0,0.0,0.0,0.0,0.0,0.0,0.0,0.0,0.0,0.0,0.0,0.0,0.0,0.0,0.0,0.0,0.0,0.0,0.0,0.0,0.0,0.0,0.0,0.0,0.0,0.0,0.0,0.0,0.0,0.0,0.0,0.0,0.0,0.0,0.0,0.0,0.0,0.0,0.0,0.0,0.0,0.0,0.0,0.0,0.0,0.0,0.0,0.0,0.0,0.0,0.0,0.0,0.0,0.0,0.0,0.0,0.0,0.0,0.0,0.0,0.0,0.0,0.0,0.0,0.0,0.0,0.0,0.0,0.0,0.0,0.0,0.0,0.0,0.0,0.0,0.0,0.0,0.0,0.0,0.0,0.0,0.0,0.0,0.0,0.0,0.0,0.0,0.0,0.0,0.0,0.0,0.0,0.0,0.0,0.0,0.0,0.0,0.0,0.0,0.0,0.0,0.0,0.0,0.0,0.0,0.0,0.0,0.0,0.0,0.0,0.0,0.0,0.0,0.0,0.0,0.0,0.0,0.0]}]]]